<?xml version='1.0' encoding='UTF-8'?>
<gpx version="1.1" creator="https://www.komoot.de" xmlns="http://www.topografix.com/GPX/1/1" xmlns:xsi="http://www.w3.org/2001/XMLSchema-instance" xsi:schemaLocation="http://www.topografix.com/GPX/1/1 http://www.topografix.com/GPX/1/1/gpx.xsd">
  <metadata>
    <name>81_1150HogschuerHuetten</name>
    <author>
      <link href="https://www.komoot.de">
        <text>komoot</text>
        <type>text/html</type>
      </link>
    </author>
  </metadata>
  <trk>
    <name>81_1150HogschuerHuetten</name>
    <trkseg>
      <trkpt lat="47.541371" lon="7.870823">
        <ele>341.037041</ele>
        <time>2021-11-22T07:30:45.347Z</time>
      </trkpt>
      <trkpt lat="47.541410" lon="7.870791">
        <ele>341.037041</ele>
        <time>2021-11-22T07:30:45.992Z</time>
      </trkpt>
      <trkpt lat="47.541576" lon="7.870664">
        <ele>341.037041</ele>
        <time>2021-11-22T07:30:50.135Z</time>
      </trkpt>
      <trkpt lat="47.541796" lon="7.871042">
        <ele>341.037041</ele>
        <time>2021-11-22T07:30:57.237Z</time>
      </trkpt>
      <trkpt lat="47.541953" lon="7.871286">
        <ele>341.037041</ele>
        <time>2021-11-22T07:31:02.059Z</time>
      </trkpt>
      <trkpt lat="47.542039" lon="7.871556">
        <ele>341.409863</ele>
        <time>2021-11-22T07:31:06.443Z</time>
      </trkpt>
      <trkpt lat="47.542067" lon="7.871664">
        <ele>341.706688</ele>
        <time>2021-11-22T07:31:08.133Z</time>
      </trkpt>
      <trkpt lat="47.542091" lon="7.871721">
        <ele>341.879047</ele>
        <time>2021-11-22T07:31:08.721Z</time>
      </trkpt>
      <trkpt lat="47.542218" lon="7.871866">
        <ele>342.488465</ele>
        <time>2021-11-22T07:31:13.827Z</time>
      </trkpt>
      <trkpt lat="47.542394" lon="7.872341">
        <ele>343.878665</ele>
        <time>2021-11-22T07:31:23.879Z</time>
      </trkpt>
      <trkpt lat="47.542436" lon="7.872494">
        <ele>344.302426</ele>
        <time>2021-11-22T07:31:27.270Z</time>
      </trkpt>
      <trkpt lat="47.542537" lon="7.872430">
        <ele>344.719942</ele>
        <time>2021-11-22T07:31:29.383Z</time>
      </trkpt>
      <trkpt lat="47.542714" lon="7.872334">
        <ele>345.436340</ele>
        <time>2021-11-22T07:31:36.339Z</time>
      </trkpt>
      <trkpt lat="47.542814" lon="7.872280">
        <ele>345.840875</ele>
        <time>2021-11-22T07:31:39.353Z</time>
      </trkpt>
      <trkpt lat="47.542919" lon="7.872226">
        <ele>346.263315</ele>
        <time>2021-11-22T07:31:43.191Z</time>
      </trkpt>
      <trkpt lat="47.543013" lon="7.872182">
        <ele>346.637992</ele>
        <time>2021-11-22T07:31:46.698Z</time>
      </trkpt>
      <trkpt lat="47.543233" lon="7.872082">
        <ele>347.512625</ele>
        <time>2021-11-22T07:31:53.937Z</time>
      </trkpt>
      <trkpt lat="47.543251" lon="7.872152">
        <ele>347.704807</ele>
        <time>2021-11-22T07:31:57.310Z</time>
      </trkpt>
      <trkpt lat="47.543332" lon="7.872237">
        <ele>348.225145</ele>
        <time>2021-11-22T07:32:00.615Z</time>
      </trkpt>
      <trkpt lat="47.544390" lon="7.872423">
        <ele>355.047651</ele>
        <time>2021-11-22T07:32:42.335Z</time>
      </trkpt>
      <trkpt lat="47.544883" lon="7.872555">
        <ele>358.255752</ele>
        <time>2021-11-22T07:33:04.744Z</time>
      </trkpt>
      <trkpt lat="47.545131" lon="7.872664">
        <ele>359.925405</ele>
        <time>2021-11-22T07:33:15.748Z</time>
      </trkpt>
      <trkpt lat="47.545375" lon="7.872836">
        <ele>361.699389</ele>
        <time>2021-11-22T07:33:26.689Z</time>
      </trkpt>
      <trkpt lat="47.545478" lon="7.872968">
        <ele>362.593498</ele>
        <time>2021-11-22T07:33:33.496Z</time>
      </trkpt>
      <trkpt lat="47.545515" lon="7.873015">
        <ele>362.913475</ele>
        <time>2021-11-22T07:33:35.453Z</time>
      </trkpt>
      <trkpt lat="47.545746" lon="7.873302">
        <ele>364.892731</ele>
        <time>2021-11-22T07:33:48.652Z</time>
      </trkpt>
      <trkpt lat="47.545934" lon="7.873549">
        <ele>366.542407</ele>
        <time>2021-11-22T07:33:58.753Z</time>
      </trkpt>
      <trkpt lat="47.546077" lon="7.873763">
        <ele>367.876833</ele>
        <time>2021-11-22T07:34:07.949Z</time>
      </trkpt>
      <trkpt lat="47.546135" lon="7.873859">
        <ele>368.447772</ele>
        <time>2021-11-22T07:34:11.188Z</time>
      </trkpt>
      <trkpt lat="47.546309" lon="7.874154">
        <ele>370.183822</ele>
        <time>2021-11-22T07:34:22.303Z</time>
      </trkpt>
      <trkpt lat="47.547126" lon="7.875801">
        <ele>375.871051</ele>
        <time>2021-11-22T07:35:08.064Z</time>
      </trkpt>
      <trkpt lat="47.547574" lon="7.876801">
        <ele>377.869326</ele>
        <time>2021-11-22T07:35:27.059Z</time>
      </trkpt>
      <trkpt lat="47.547992" lon="7.877974">
        <ele>377.151282</ele>
        <time>2021-11-22T07:35:39.860Z</time>
      </trkpt>
      <trkpt lat="47.548234" lon="7.878638">
        <ele>376.742788</ele>
        <time>2021-11-22T07:35:45.172Z</time>
      </trkpt>
      <trkpt lat="47.548422" lon="7.878959">
        <ele>376.079314</ele>
        <time>2021-11-22T07:35:48.015Z</time>
      </trkpt>
      <trkpt lat="47.548718" lon="7.879258">
        <ele>374.591339</ele>
        <time>2021-11-22T07:35:51.553Z</time>
      </trkpt>
      <trkpt lat="47.549140" lon="7.879391">
        <ele>372.799378</ele>
        <time>2021-11-22T07:35:55.740Z</time>
      </trkpt>
      <trkpt lat="47.549318" lon="7.879398">
        <ele>372.059809</ele>
        <time>2021-11-22T07:35:57.367Z</time>
      </trkpt>
      <trkpt lat="47.549327" lon="7.879547">
        <ele>371.640437</ele>
        <time>2021-11-22T07:35:58.353Z</time>
      </trkpt>
      <trkpt lat="47.549726" lon="7.880786">
        <ele>367.968936</ele>
        <time>2021-11-22T07:36:07.288Z</time>
      </trkpt>
      <trkpt lat="47.549927" lon="7.881490">
        <ele>366.106135</ele>
        <time>2021-11-22T07:36:12.320Z</time>
      </trkpt>
      <trkpt lat="47.550234" lon="7.883221">
        <ele>361.575666</ele>
        <time>2021-11-22T07:36:24.721Z</time>
      </trkpt>
      <trkpt lat="47.550332" lon="7.884727">
        <ele>357.202116</ele>
        <time>2021-11-22T07:36:34.565Z</time>
      </trkpt>
      <trkpt lat="47.550391" lon="7.885109">
        <ele>356.069335</ele>
        <time>2021-11-22T07:36:37.097Z</time>
      </trkpt>
      <trkpt lat="47.550548" lon="7.885799">
        <ele>353.648311</ele>
        <time>2021-11-22T07:36:41.702Z</time>
      </trkpt>
      <trkpt lat="47.550677" lon="7.886476">
        <ele>350.961444</ele>
        <time>2021-11-22T07:36:46.132Z</time>
      </trkpt>
      <trkpt lat="47.550758" lon="7.887295">
        <ele>347.799882</ele>
        <time>2021-11-22T07:36:51.274Z</time>
      </trkpt>
      <trkpt lat="47.550789" lon="7.887816">
        <ele>345.802216</ele>
        <time>2021-11-22T07:36:54.506Z</time>
      </trkpt>
      <trkpt lat="47.550831" lon="7.888611">
        <ele>342.541358</ele>
        <time>2021-11-22T07:36:59.462Z</time>
      </trkpt>
      <trkpt lat="47.550833" lon="7.889069">
        <ele>340.605128</ele>
        <time>2021-11-22T07:37:02.272Z</time>
      </trkpt>
      <trkpt lat="47.550915" lon="7.890600">
        <ele>334.112502</ele>
        <time>2021-11-22T07:37:11.665Z</time>
      </trkpt>
      <trkpt lat="47.550904" lon="7.891725">
        <ele>330.731498</ele>
        <time>2021-11-22T07:37:18.669Z</time>
      </trkpt>
      <trkpt lat="47.550892" lon="7.893176">
        <ele>326.631105</ele>
        <time>2021-11-22T07:37:28.281Z</time>
      </trkpt>
      <trkpt lat="47.550908" lon="7.894308">
        <ele>325.197207</ele>
        <time>2021-11-22T07:37:37.486Z</time>
      </trkpt>
      <trkpt lat="47.550878" lon="7.895158">
        <ele>324.462459</ele>
        <time>2021-11-22T07:37:44.671Z</time>
      </trkpt>
      <trkpt lat="47.550838" lon="7.895509">
        <ele>324.155177</ele>
        <time>2021-11-22T07:37:47.835Z</time>
      </trkpt>
      <trkpt lat="47.550660" lon="7.896255">
        <ele>323.255516</ele>
        <time>2021-11-22T07:37:54.324Z</time>
      </trkpt>
      <trkpt lat="47.550639" lon="7.896345">
        <ele>323.084810</ele>
        <time>2021-11-22T07:37:55.511Z</time>
      </trkpt>
      <trkpt lat="47.550648" lon="7.896481">
        <ele>322.839844</ele>
        <time>2021-11-22T07:37:56.466Z</time>
      </trkpt>
      <trkpt lat="47.550819" lon="7.898109">
        <ele>319.886325</ele>
        <time>2021-11-22T07:38:08.214Z</time>
      </trkpt>
      <trkpt lat="47.550801" lon="7.900244">
        <ele>314.347506</ele>
        <time>2021-11-22T07:38:22.051Z</time>
      </trkpt>
      <trkpt lat="47.550769" lon="7.901362">
        <ele>311.146564</ele>
        <time>2021-11-22T07:38:29.323Z</time>
      </trkpt>
      <trkpt lat="47.550757" lon="7.901591">
        <ele>310.578705</ele>
        <time>2021-11-22T07:38:31.459Z</time>
      </trkpt>
      <trkpt lat="47.550688" lon="7.902451">
        <ele>308.437562</ele>
        <time>2021-11-22T07:38:39.893Z</time>
      </trkpt>
      <trkpt lat="47.550498" lon="7.903445">
        <ele>305.883445</ele>
        <time>2021-11-22T07:38:50.143Z</time>
      </trkpt>
      <trkpt lat="47.550302" lon="7.904164">
        <ele>303.959554</ele>
        <time>2021-11-22T07:38:57.403Z</time>
      </trkpt>
      <trkpt lat="47.550025" lon="7.904774">
        <ele>302.123814</ele>
        <time>2021-11-22T07:39:04.328Z</time>
      </trkpt>
      <trkpt lat="47.549868" lon="7.905010">
        <ele>301.296423</ele>
        <time>2021-11-22T07:39:07.460Z</time>
      </trkpt>
      <trkpt lat="47.549867" lon="7.905155">
        <ele>300.934352</ele>
        <time>2021-11-22T07:39:08.857Z</time>
      </trkpt>
      <trkpt lat="47.550067" lon="7.905245">
        <ele>300.161096</ele>
        <time>2021-11-22T07:39:11.782Z</time>
      </trkpt>
      <trkpt lat="47.550283" lon="7.905413">
        <ele>299.258610</ele>
        <time>2021-11-22T07:39:15.232Z</time>
      </trkpt>
      <trkpt lat="47.550497" lon="7.905558">
        <ele>298.388078</ele>
        <time>2021-11-22T07:39:18.590Z</time>
      </trkpt>
      <trkpt lat="47.549539" lon="7.908625">
        <ele>293.140413</ele>
        <time>2021-11-22T07:39:43.032Z</time>
      </trkpt>
      <trkpt lat="47.549520" lon="7.908678">
        <ele>293.083031</ele>
        <time>2021-11-22T07:39:43.536Z</time>
      </trkpt>
      <trkpt lat="47.549316" lon="7.909356">
        <ele>292.373254</ele>
        <time>2021-11-22T07:39:49.579Z</time>
      </trkpt>
      <trkpt lat="47.549195" lon="7.909756">
        <ele>291.954131</ele>
        <time>2021-11-22T07:39:53.178Z</time>
      </trkpt>
      <trkpt lat="47.549102" lon="7.910058">
        <ele>291.636733</ele>
        <time>2021-11-22T07:39:55.874Z</time>
      </trkpt>
      <trkpt lat="47.549012" lon="7.910340">
        <ele>291.338469</ele>
        <time>2021-11-22T07:39:58.392Z</time>
      </trkpt>
      <trkpt lat="47.548412" lon="7.912168">
        <ele>289.793532</ele>
        <time>2021-11-22T07:40:14.721Z</time>
      </trkpt>
      <trkpt lat="47.548027" lon="7.913334">
        <ele>289.060139</ele>
        <time>2021-11-22T07:40:25.482Z</time>
      </trkpt>
      <trkpt lat="47.547994" lon="7.913433">
        <ele>289.034169</ele>
        <time>2021-11-22T07:40:26.403Z</time>
      </trkpt>
      <trkpt lat="47.547423" lon="7.915080">
        <ele>288.598673</ele>
        <time>2021-11-22T07:40:43.880Z</time>
      </trkpt>
      <trkpt lat="47.547113" lon="7.915971">
        <ele>288.749143</ele>
        <time>2021-11-22T07:40:54.327Z</time>
      </trkpt>
      <trkpt lat="47.547091" lon="7.916039">
        <ele>288.770624</ele>
        <time>2021-11-22T07:40:55.351Z</time>
      </trkpt>
      <trkpt lat="47.547032" lon="7.916218">
        <ele>288.827370</ele>
        <time>2021-11-22T07:40:57.554Z</time>
      </trkpt>
      <trkpt lat="47.546821" lon="7.916867">
        <ele>289.032575</ele>
        <time>2021-11-22T07:41:05.663Z</time>
      </trkpt>
      <trkpt lat="47.546262" lon="7.919081">
        <ele>289.677177</ele>
        <time>2021-11-22T07:41:33.175Z</time>
      </trkpt>
      <trkpt lat="47.546128" lon="7.919617">
        <ele>289.828557</ele>
        <time>2021-11-22T07:41:38.643Z</time>
      </trkpt>
      <trkpt lat="47.545973" lon="7.920313">
        <ele>290.065396</ele>
        <time>2021-11-22T07:41:47.106Z</time>
      </trkpt>
      <trkpt lat="47.545913" lon="7.920765">
        <ele>290.444532</ele>
        <time>2021-11-22T07:41:51.280Z</time>
      </trkpt>
      <trkpt lat="47.545881" lon="7.921096">
        <ele>290.719736</ele>
        <time>2021-11-22T07:41:55.296Z</time>
      </trkpt>
      <trkpt lat="47.545810" lon="7.921755">
        <ele>291.268982</ele>
        <time>2021-11-22T07:42:04.205Z</time>
      </trkpt>
      <trkpt lat="47.545778" lon="7.921947">
        <ele>291.431750</ele>
        <time>2021-11-22T07:42:07.814Z</time>
      </trkpt>
      <trkpt lat="47.545714" lon="7.922249">
        <ele>291.692269</ele>
        <time>2021-11-22T07:42:11.012Z</time>
      </trkpt>
      <trkpt lat="47.545699" lon="7.922325">
        <ele>291.757439</ele>
        <time>2021-11-22T07:42:12.210Z</time>
      </trkpt>
      <trkpt lat="47.545690" lon="7.922369">
        <ele>291.795279</ele>
        <time>2021-11-22T07:42:14.308Z</time>
      </trkpt>
      <trkpt lat="47.545641" lon="7.922610">
        <ele>292.002434</ele>
        <time>2021-11-22T07:42:16.662Z</time>
      </trkpt>
      <trkpt lat="47.545587" lon="7.922895">
        <ele>292.340845</ele>
        <time>2021-11-22T07:42:22.458Z</time>
      </trkpt>
      <trkpt lat="47.545553" lon="7.923142">
        <ele>292.937131</ele>
        <time>2021-11-22T07:42:25.105Z</time>
      </trkpt>
      <trkpt lat="47.545536" lon="7.923407">
        <ele>293.566795</ele>
        <time>2021-11-22T07:42:30.995Z</time>
      </trkpt>
      <trkpt lat="47.545521" lon="7.923709">
        <ele>294.283086</ele>
        <time>2021-11-22T07:42:35.148Z</time>
      </trkpt>
      <trkpt lat="47.545481" lon="7.924396">
        <ele>295.914173</ele>
        <time>2021-11-22T07:42:49.751Z</time>
      </trkpt>
      <trkpt lat="47.545466" lon="7.924880">
        <ele>297.060250</ele>
        <time>2021-11-22T07:43:01.058Z</time>
      </trkpt>
      <trkpt lat="47.545446" lon="7.925350">
        <ele>298.174211</ele>
        <time>2021-11-22T07:43:11.433Z</time>
      </trkpt>
      <trkpt lat="47.545417" lon="7.925848">
        <ele>299.086882</ele>
        <time>2021-11-22T07:43:21.912Z</time>
      </trkpt>
      <trkpt lat="47.545409" lon="7.926773">
        <ele>300.587327</ele>
        <time>2021-11-22T07:43:39.113Z</time>
      </trkpt>
      <trkpt lat="47.545407" lon="7.927001">
        <ele>300.957167</ele>
        <time>2021-11-22T07:43:42.922Z</time>
      </trkpt>
      <trkpt lat="47.545406" lon="7.927306">
        <ele>301.451874</ele>
        <time>2021-11-22T07:43:47.526Z</time>
      </trkpt>
      <trkpt lat="47.545421" lon="7.927686">
        <ele>302.069275</ele>
        <time>2021-11-22T07:43:53.062Z</time>
      </trkpt>
      <trkpt lat="47.545475" lon="7.928419">
        <ele>302.578018</ele>
        <time>2021-11-22T07:44:02.379Z</time>
      </trkpt>
      <trkpt lat="47.545563" lon="7.929641">
        <ele>301.491429</ele>
        <time>2021-11-22T07:44:12.259Z</time>
      </trkpt>
      <trkpt lat="47.545661" lon="7.930955">
        <ele>300.322640</ele>
        <time>2021-11-22T07:44:21.655Z</time>
      </trkpt>
      <trkpt lat="47.545696" lon="7.931497">
        <ele>299.841510</ele>
        <time>2021-11-22T07:44:25.623Z</time>
      </trkpt>
      <trkpt lat="47.545721" lon="7.931992">
        <ele>299.402875</ele>
        <time>2021-11-22T07:44:29.416Z</time>
      </trkpt>
      <trkpt lat="47.545724" lon="7.932758">
        <ele>298.725980</ele>
        <time>2021-11-22T07:44:35.625Z</time>
      </trkpt>
      <trkpt lat="47.545702" lon="7.933290">
        <ele>298.254992</ele>
        <time>2021-11-22T07:44:40.268Z</time>
      </trkpt>
      <trkpt lat="47.545674" lon="7.933625">
        <ele>298.211644</ele>
        <time>2021-11-22T07:44:43.469Z</time>
      </trkpt>
      <trkpt lat="47.545457" lon="7.935110">
        <ele>299.104415</ele>
        <time>2021-11-22T07:45:01.604Z</time>
      </trkpt>
      <trkpt lat="47.545074" lon="7.936484">
        <ele>300.280314</ele>
        <time>2021-11-22T07:45:23.131Z</time>
      </trkpt>
      <trkpt lat="47.544903" lon="7.936917">
        <ele>300.869914</ele>
        <time>2021-11-22T07:45:30.447Z</time>
      </trkpt>
      <trkpt lat="47.544705" lon="7.937395">
        <ele>301.529051</ele>
        <time>2021-11-22T07:45:38.631Z</time>
      </trkpt>
      <trkpt lat="47.544472" lon="7.937932">
        <ele>302.279328</ele>
        <time>2021-11-22T07:45:48.038Z</time>
      </trkpt>
      <trkpt lat="47.543826" lon="7.939433">
        <ele>304.339424</ele>
        <time>2021-11-22T07:46:14.920Z</time>
      </trkpt>
      <trkpt lat="47.543435" lon="7.940670">
        <ele>305.887785</ele>
        <time>2021-11-22T07:46:34.881Z</time>
      </trkpt>
      <trkpt lat="47.543161" lon="7.942213">
        <ele>306.536788</ele>
        <time>2021-11-22T07:46:55.730Z</time>
      </trkpt>
      <trkpt lat="47.543007" lon="7.943867">
        <ele>306.240570</ele>
        <time>2021-11-22T07:47:11.274Z</time>
      </trkpt>
      <trkpt lat="47.542913" lon="7.945267">
        <ele>304.644783</ele>
        <time>2021-11-22T07:47:22.034Z</time>
      </trkpt>
      <trkpt lat="47.542872" lon="7.945781">
        <ele>304.057722</ele>
        <time>2021-11-22T07:47:25.630Z</time>
      </trkpt>
      <trkpt lat="47.542875" lon="7.946089">
        <ele>303.609645</ele>
        <time>2021-11-22T07:47:27.721Z</time>
      </trkpt>
      <trkpt lat="47.542902" lon="7.946514">
        <ele>302.915818</ele>
        <time>2021-11-22T07:47:30.600Z</time>
      </trkpt>
      <trkpt lat="47.542943" lon="7.946806">
        <ele>302.431057</ele>
        <time>2021-11-22T07:47:32.647Z</time>
      </trkpt>
      <trkpt lat="47.542974" lon="7.946965">
        <ele>302.162063</ele>
        <time>2021-11-22T07:47:33.857Z</time>
      </trkpt>
      <trkpt lat="47.542979" lon="7.946989">
        <ele>302.121239</ele>
        <time>2021-11-22T07:47:34.013Z</time>
      </trkpt>
      <trkpt lat="47.543007" lon="7.947104">
        <ele>301.922537</ele>
        <time>2021-11-22T07:47:34.861Z</time>
      </trkpt>
      <trkpt lat="47.543087" lon="7.947317">
        <ele>301.526358</ele>
        <time>2021-11-22T07:47:36.604Z</time>
      </trkpt>
      <trkpt lat="47.543191" lon="7.947615">
        <ele>300.981103</ele>
        <time>2021-11-22T07:47:39.045Z</time>
      </trkpt>
      <trkpt lat="47.543242" lon="7.947745">
        <ele>300.736717</ele>
        <time>2021-11-22T07:47:40.175Z</time>
      </trkpt>
      <trkpt lat="47.543273" lon="7.947816">
        <ele>300.599282</ele>
        <time>2021-11-22T07:47:40.802Z</time>
      </trkpt>
      <trkpt lat="47.543358" lon="7.947967">
        <ele>300.279718</ele>
        <time>2021-11-22T07:47:42.245Z</time>
      </trkpt>
      <trkpt lat="47.543455" lon="7.948127">
        <ele>299.930181</ele>
        <time>2021-11-22T07:47:43.912Z</time>
      </trkpt>
      <trkpt lat="47.543532" lon="7.948214">
        <ele>299.697010</ele>
        <time>2021-11-22T07:47:44.993Z</time>
      </trkpt>
      <trkpt lat="47.543579" lon="7.948287">
        <ele>299.602004</ele>
        <time>2021-11-22T07:47:45.756Z</time>
      </trkpt>
      <trkpt lat="47.543760" lon="7.948548">
        <ele>299.572587</ele>
        <time>2021-11-22T07:47:48.645Z</time>
      </trkpt>
      <trkpt lat="47.543864" lon="7.948694">
        <ele>299.555900</ele>
        <time>2021-11-22T07:47:50.317Z</time>
      </trkpt>
      <trkpt lat="47.544239" lon="7.949202">
        <ele>299.496720</ele>
        <time>2021-11-22T07:47:57.679Z</time>
      </trkpt>
      <trkpt lat="47.544521" lon="7.949558">
        <ele>299.453570</ele>
        <time>2021-11-22T07:48:03.852Z</time>
      </trkpt>
      <trkpt lat="47.544901" lon="7.950044">
        <ele>299.397865</ele>
        <time>2021-11-22T07:48:13.249Z</time>
      </trkpt>
      <trkpt lat="47.545166" lon="7.950366">
        <ele>299.476426</ele>
        <time>2021-11-22T07:48:19.798Z</time>
      </trkpt>
      <trkpt lat="47.545434" lon="7.950668">
        <ele>299.553608</ele>
        <time>2021-11-22T07:48:25.588Z</time>
      </trkpt>
      <trkpt lat="47.545542" lon="7.950842">
        <ele>299.590182</ele>
        <time>2021-11-22T07:48:28.014Z</time>
      </trkpt>
      <trkpt lat="47.545667" lon="7.950979">
        <ele>299.625823</ele>
        <time>2021-11-22T07:48:30.619Z</time>
      </trkpt>
      <trkpt lat="47.545737" lon="7.951055">
        <ele>299.645716</ele>
        <time>2021-11-22T07:48:31.873Z</time>
      </trkpt>
      <trkpt lat="47.545876" lon="7.951233">
        <ele>299.687830</ele>
        <time>2021-11-22T07:48:34.266Z</time>
      </trkpt>
      <trkpt lat="47.546112" lon="7.951485">
        <ele>299.754513</ele>
        <time>2021-11-22T07:48:38.808Z</time>
      </trkpt>
      <trkpt lat="47.546164" lon="7.951520">
        <ele>299.767605</ele>
        <time>2021-11-22T07:48:39.443Z</time>
      </trkpt>
      <trkpt lat="47.546212" lon="7.951535">
        <ele>299.778849</ele>
        <time>2021-11-22T07:48:40.208Z</time>
      </trkpt>
      <trkpt lat="47.546231" lon="7.951558">
        <ele>299.784474</ele>
        <time>2021-11-22T07:48:40.937Z</time>
      </trkpt>
      <trkpt lat="47.546421" lon="7.951793">
        <ele>299.747575</ele>
        <time>2021-11-22T07:48:44.118Z</time>
      </trkpt>
      <trkpt lat="47.546634" lon="7.952024">
        <ele>299.635830</ele>
        <time>2021-11-22T07:48:47.653Z</time>
      </trkpt>
      <trkpt lat="47.546695" lon="7.952091">
        <ele>299.603685</ele>
        <time>2021-11-22T07:48:48.608Z</time>
      </trkpt>
      <trkpt lat="47.546776" lon="7.952185">
        <ele>299.560128</ele>
        <time>2021-11-22T07:48:49.794Z</time>
      </trkpt>
      <trkpt lat="47.546935" lon="7.952372">
        <ele>299.474190</ele>
        <time>2021-11-22T07:48:52.730Z</time>
      </trkpt>
      <trkpt lat="47.547090" lon="7.952543">
        <ele>299.392381</ele>
        <time>2021-11-22T07:48:55.367Z</time>
      </trkpt>
      <trkpt lat="47.547400" lon="7.952910">
        <ele>299.224400</ele>
        <time>2021-11-22T07:49:00.667Z</time>
      </trkpt>
      <trkpt lat="47.547458" lon="7.952975">
        <ele>299.193614</ele>
        <time>2021-11-22T07:49:01.585Z</time>
      </trkpt>
      <trkpt lat="47.547550" lon="7.953078">
        <ele>299.144798</ele>
        <time>2021-11-22T07:49:03.076Z</time>
      </trkpt>
      <trkpt lat="47.547624" lon="7.953160">
        <ele>299.105680</ele>
        <time>2021-11-22T07:49:04.315Z</time>
      </trkpt>
      <trkpt lat="47.547797" lon="7.953355">
        <ele>298.989975</ele>
        <time>2021-11-22T07:49:07.319Z</time>
      </trkpt>
      <trkpt lat="47.547871" lon="7.953437">
        <ele>298.922996</ele>
        <time>2021-11-22T07:49:08.613Z</time>
      </trkpt>
      <trkpt lat="47.547994" lon="7.953584">
        <ele>298.808452</ele>
        <time>2021-11-22T07:49:10.794Z</time>
      </trkpt>
      <trkpt lat="47.548115" lon="7.953729">
        <ele>298.695650</ele>
        <time>2021-11-22T07:49:12.944Z</time>
      </trkpt>
      <trkpt lat="47.548251" lon="7.953895">
        <ele>298.567930</ele>
        <time>2021-11-22T07:49:15.344Z</time>
      </trkpt>
      <trkpt lat="47.548335" lon="7.953779">
        <ele>298.484697</ele>
        <time>2021-11-22T07:49:17.250Z</time>
      </trkpt>
      <trkpt lat="47.549296" lon="7.953268">
        <ele>297.744642</ele>
        <time>2021-11-22T07:49:35.566Z</time>
      </trkpt>
      <trkpt lat="47.549442" lon="7.953195">
        <ele>297.467020</ele>
        <time>2021-11-22T07:49:38.117Z</time>
      </trkpt>
      <trkpt lat="47.549640" lon="7.953086">
        <ele>297.083524</ele>
        <time>2021-11-22T07:49:41.831Z</time>
      </trkpt>
      <trkpt lat="47.549673" lon="7.953076">
        <ele>297.022370</ele>
        <time>2021-11-22T07:49:42.389Z</time>
      </trkpt>
      <trkpt lat="47.549687" lon="7.953071">
        <ele>296.996224</ele>
        <time>2021-11-22T07:49:42.581Z</time>
      </trkpt>
      <trkpt lat="47.550567" lon="7.953069">
        <ele>295.398520</ele>
        <time>2021-11-22T07:49:56.757Z</time>
      </trkpt>
      <trkpt lat="47.550656" lon="7.953072">
        <ele>295.236892</ele>
        <time>2021-11-22T07:49:58.074Z</time>
      </trkpt>
      <trkpt lat="47.550967" lon="7.953063">
        <ele>294.672142</ele>
        <time>2021-11-22T07:50:02.838Z</time>
      </trkpt>
      <trkpt lat="47.551254" lon="7.952986">
        <ele>294.128778</ele>
        <time>2021-11-22T07:50:07.227Z</time>
      </trkpt>
      <trkpt lat="47.551295" lon="7.952900">
        <ele>293.994434</ele>
        <time>2021-11-22T07:50:08.290Z</time>
      </trkpt>
      <trkpt lat="47.551334" lon="7.952777">
        <ele>293.821039</ele>
        <time>2021-11-22T07:50:10.965Z</time>
      </trkpt>
      <trkpt lat="47.551339" lon="7.952761">
        <ele>293.798542</ele>
        <time>2021-11-22T07:50:11.336Z</time>
      </trkpt>
      <trkpt lat="47.551381" lon="7.952341">
        <ele>293.256801</ele>
        <time>2021-11-22T07:50:20.117Z</time>
      </trkpt>
      <trkpt lat="47.551506" lon="7.950255">
        <ele>291.041207</ele>
        <time>2021-11-22T07:51:05.654Z</time>
      </trkpt>
      <trkpt lat="47.551525" lon="7.950027">
        <ele>291.019680</ele>
        <time>2021-11-22T07:51:11.115Z</time>
      </trkpt>
      <trkpt lat="47.551581" lon="7.949830">
        <ele>290.999651</ele>
        <time>2021-11-22T07:51:16.267Z</time>
      </trkpt>
      <trkpt lat="47.551673" lon="7.949634">
        <ele>290.977280</ele>
        <time>2021-11-22T07:51:22.353Z</time>
      </trkpt>
      <trkpt lat="47.551794" lon="7.949387">
        <ele>290.948682</ele>
        <time>2021-11-22T07:51:29.914Z</time>
      </trkpt>
      <trkpt lat="47.552010" lon="7.949039">
        <ele>290.904381</ele>
        <time>2021-11-22T07:51:42.102Z</time>
      </trkpt>
      <trkpt lat="47.552049" lon="7.948982">
        <ele>290.896776</ele>
        <time>2021-11-22T07:51:44.276Z</time>
      </trkpt>
      <trkpt lat="47.552094" lon="7.948926">
        <ele>290.888617</ele>
        <time>2021-11-22T07:51:46.648Z</time>
      </trkpt>
      <trkpt lat="47.552202" lon="7.949003">
        <ele>290.871977</ele>
        <time>2021-11-22T07:51:51.337Z</time>
      </trkpt>
      <trkpt lat="47.552351" lon="7.949099">
        <ele>290.849420</ele>
        <time>2021-11-22T07:51:57.740Z</time>
      </trkpt>
      <trkpt lat="47.552382" lon="7.949119">
        <ele>290.844726</ele>
        <time>2021-11-22T07:51:59.193Z</time>
      </trkpt>
      <trkpt lat="47.552518" lon="7.949236">
        <ele>290.818913</ele>
        <time>2021-11-22T07:52:05.526Z</time>
      </trkpt>
      <trkpt lat="47.552953" lon="7.948775">
        <ele>290.682867</ele>
        <time>2021-11-22T07:52:26.531Z</time>
      </trkpt>
      <trkpt lat="47.553197" lon="7.948543">
        <ele>290.609117</ele>
        <time>2021-11-22T07:52:37.263Z</time>
      </trkpt>
      <trkpt lat="47.553243" lon="7.948595">
        <ele>290.594399</ele>
        <time>2021-11-22T07:52:39.319Z</time>
      </trkpt>
      <trkpt lat="47.553259" lon="7.948634">
        <ele>290.586564</ele>
        <time>2021-11-22T07:52:40.495Z</time>
      </trkpt>
      <trkpt lat="47.553488" lon="7.949175">
        <ele>290.476928</ele>
        <time>2021-11-22T07:52:55.555Z</time>
      </trkpt>
      <trkpt lat="47.553669" lon="7.949729">
        <ele>290.371258</ele>
        <time>2021-11-22T07:53:09.581Z</time>
      </trkpt>
      <trkpt lat="47.553699" lon="7.949840">
        <ele>290.285227</ele>
        <time>2021-11-22T07:53:12.162Z</time>
      </trkpt>
      <trkpt lat="47.553747" lon="7.950009">
        <ele>290.147495</ele>
        <time>2021-11-22T07:53:16.232Z</time>
      </trkpt>
      <trkpt lat="47.553836" lon="7.950173">
        <ele>289.989416</ele>
        <time>2021-11-22T07:53:21.082Z</time>
      </trkpt>
      <trkpt lat="47.553918" lon="7.950361">
        <ele>289.821270</ele>
        <time>2021-11-22T07:53:25.913Z</time>
      </trkpt>
      <trkpt lat="47.554036" lon="7.950322">
        <ele>289.686706</ele>
        <time>2021-11-22T07:53:29.898Z</time>
      </trkpt>
      <trkpt lat="47.554130" lon="7.950301">
        <ele>289.580900</ele>
        <time>2021-11-22T07:53:33.199Z</time>
      </trkpt>
      <trkpt lat="47.554192" lon="7.950296">
        <ele>289.511791</ele>
        <time>2021-11-22T07:53:35.156Z</time>
      </trkpt>
      <trkpt lat="47.554240" lon="7.950300">
        <ele>289.458281</ele>
        <time>2021-11-22T07:53:36.713Z</time>
      </trkpt>
      <trkpt lat="47.554303" lon="7.950312">
        <ele>289.387584</ele>
        <time>2021-11-22T07:53:37.451Z</time>
      </trkpt>
      <trkpt lat="47.554392" lon="7.950331">
        <ele>289.287503</ele>
        <time>2021-11-22T07:53:38.525Z</time>
      </trkpt>
      <trkpt lat="47.554652" lon="7.950448">
        <ele>288.985067</ele>
        <time>2021-11-22T07:53:41.738Z</time>
      </trkpt>
      <trkpt lat="47.554759" lon="7.950515">
        <ele>288.855776</ele>
        <time>2021-11-22T07:53:43.144Z</time>
      </trkpt>
      <trkpt lat="47.554954" lon="7.950665">
        <ele>288.611234</ele>
        <time>2021-11-22T07:53:45.777Z</time>
      </trkpt>
      <trkpt lat="47.555474" lon="7.951144">
        <ele>288.359238</ele>
        <time>2021-11-22T07:53:53.661Z</time>
      </trkpt>
      <trkpt lat="47.555687" lon="7.951449">
        <ele>288.352489</ele>
        <time>2021-11-22T07:53:57.745Z</time>
      </trkpt>
      <trkpt lat="47.556339" lon="7.952382">
        <ele>288.331837</ele>
        <time>2021-11-22T07:54:11.808Z</time>
      </trkpt>
      <trkpt lat="47.556386" lon="7.952449">
        <ele>288.330351</ele>
        <time>2021-11-22T07:54:12.977Z</time>
      </trkpt>
      <trkpt lat="47.556400" lon="7.952468">
        <ele>288.329919</ele>
        <time>2021-11-22T07:54:13.289Z</time>
      </trkpt>
      <trkpt lat="47.557120" lon="7.953536">
        <ele>288.861075</ele>
        <time>2021-11-22T07:54:31.316Z</time>
      </trkpt>
      <trkpt lat="47.557517" lon="7.954117">
        <ele>289.191722</ele>
        <time>2021-11-22T07:54:41.163Z</time>
      </trkpt>
      <trkpt lat="47.557687" lon="7.954371">
        <ele>289.334780</ele>
        <time>2021-11-22T07:54:45.276Z</time>
      </trkpt>
      <trkpt lat="47.557874" lon="7.954579">
        <ele>289.394699</ele>
        <time>2021-11-22T07:54:49.004Z</time>
      </trkpt>
      <trkpt lat="47.557899" lon="7.954581">
        <ele>289.395001</ele>
        <time>2021-11-22T07:54:49.501Z</time>
      </trkpt>
      <trkpt lat="47.557935" lon="7.954571">
        <ele>289.395442</ele>
        <time>2021-11-22T07:54:50.151Z</time>
      </trkpt>
      <trkpt lat="47.558070" lon="7.954468">
        <ele>289.397272</ele>
        <time>2021-11-22T07:54:52.520Z</time>
      </trkpt>
      <trkpt lat="47.558107" lon="7.954410">
        <ele>289.397921</ele>
        <time>2021-11-22T07:54:53.450Z</time>
      </trkpt>
      <trkpt lat="47.558161" lon="7.954466">
        <ele>289.398715</ele>
        <time>2021-11-22T07:54:54.441Z</time>
      </trkpt>
      <trkpt lat="47.558201" lon="7.954539">
        <ele>289.399479</ele>
        <time>2021-11-22T07:54:55.523Z</time>
      </trkpt>
      <trkpt lat="47.558360" lon="7.955074">
        <ele>289.404232</ele>
        <time>2021-11-22T07:55:01.728Z</time>
      </trkpt>
      <trkpt lat="47.558659" lon="7.956055">
        <ele>289.412984</ele>
        <time>2021-11-22T07:55:12.029Z</time>
      </trkpt>
      <trkpt lat="47.558756" lon="7.956469">
        <ele>289.331674</ele>
        <time>2021-11-22T07:55:15.922Z</time>
      </trkpt>
      <trkpt lat="47.559224" lon="7.958738">
        <ele>288.446216</ele>
        <time>2021-11-22T07:55:36.366Z</time>
      </trkpt>
      <trkpt lat="47.559324" lon="7.959601">
        <ele>288.593114</ele>
        <time>2021-11-22T07:55:44.724Z</time>
      </trkpt>
      <trkpt lat="47.559346" lon="7.959868">
        <ele>288.650910</ele>
        <time>2021-11-22T07:55:47.818Z</time>
      </trkpt>
      <trkpt lat="47.559406" lon="7.960730">
        <ele>288.837107</ele>
        <time>2021-11-22T07:55:57.301Z</time>
      </trkpt>
      <trkpt lat="47.559408" lon="7.961845">
        <ele>289.163448</ele>
        <time>2021-11-22T07:56:11.066Z</time>
      </trkpt>
      <trkpt lat="47.559368" lon="7.962709">
        <ele>289.541845</ele>
        <time>2021-11-22T07:56:22.307Z</time>
      </trkpt>
      <trkpt lat="47.559232" lon="7.963800">
        <ele>290.026604</ele>
        <time>2021-11-22T07:56:34.900Z</time>
      </trkpt>
      <trkpt lat="47.559029" lon="7.964894">
        <ele>290.076793</ele>
        <time>2021-11-22T07:56:46.603Z</time>
      </trkpt>
      <trkpt lat="47.558949" lon="7.965326">
        <ele>290.033620</ele>
        <time>2021-11-22T07:56:50.838Z</time>
      </trkpt>
      <trkpt lat="47.558732" lon="7.966356">
        <ele>289.929629</ele>
        <time>2021-11-22T07:57:00.721Z</time>
      </trkpt>
      <trkpt lat="47.558606" lon="7.966985">
        <ele>289.907471</ele>
        <time>2021-11-22T07:57:06.977Z</time>
      </trkpt>
      <trkpt lat="47.558448" lon="7.967701">
        <ele>289.922462</ele>
        <time>2021-11-22T07:57:14.232Z</time>
      </trkpt>
      <trkpt lat="47.558430" lon="7.967788">
        <ele>289.924273</ele>
        <time>2021-11-22T07:57:15.116Z</time>
      </trkpt>
      <trkpt lat="47.558327" lon="7.968108">
        <ele>289.931329</ele>
        <time>2021-11-22T07:57:19.069Z</time>
      </trkpt>
      <trkpt lat="47.558313" lon="7.968259">
        <ele>289.934362</ele>
        <time>2021-11-22T07:57:20.528Z</time>
      </trkpt>
      <trkpt lat="47.558296" lon="7.968403">
        <ele>289.937271</ele>
        <time>2021-11-22T07:57:22.330Z</time>
      </trkpt>
      <trkpt lat="47.558225" lon="7.968807">
        <ele>289.945579</ele>
        <time>2021-11-22T07:57:26.784Z</time>
      </trkpt>
      <trkpt lat="47.558045" lon="7.969704">
        <ele>289.900080</ele>
        <time>2021-11-22T07:57:36.355Z</time>
      </trkpt>
      <trkpt lat="47.557756" lon="7.971140">
        <ele>289.751535</ele>
        <time>2021-11-22T07:57:51.046Z</time>
      </trkpt>
      <trkpt lat="47.557538" lon="7.972196">
        <ele>289.644438</ele>
        <time>2021-11-22T07:58:00.730Z</time>
      </trkpt>
      <trkpt lat="47.557419" lon="7.972636">
        <ele>289.599811</ele>
        <time>2021-11-22T07:58:04.985Z</time>
      </trkpt>
      <trkpt lat="47.557323" lon="7.972992">
        <ele>289.563718</ele>
        <time>2021-11-22T07:58:08.601Z</time>
      </trkpt>
      <trkpt lat="47.557235" lon="7.973507">
        <ele>289.513702</ele>
        <time>2021-11-22T07:58:13.680Z</time>
      </trkpt>
      <trkpt lat="47.557108" lon="7.974186">
        <ele>289.447365</ele>
        <time>2021-11-22T07:58:20.832Z</time>
      </trkpt>
      <trkpt lat="47.557045" lon="7.974526">
        <ele>289.578956</ele>
        <time>2021-11-22T07:58:24.867Z</time>
      </trkpt>
      <trkpt lat="47.556769" lon="7.976421">
        <ele>290.640354</ele>
        <time>2021-11-22T07:58:49.027Z</time>
      </trkpt>
      <trkpt lat="47.556668" lon="7.978159">
        <ele>291.216531</ele>
        <time>2021-11-22T07:59:10.941Z</time>
      </trkpt>
      <trkpt lat="47.557185" lon="7.988787">
        <ele>293.688556</ele>
        <time>2021-11-22T08:01:05.275Z</time>
      </trkpt>
      <trkpt lat="47.557298" lon="7.990679">
        <ele>294.124959</ele>
        <time>2021-11-22T08:01:26.499Z</time>
      </trkpt>
      <trkpt lat="47.557377" lon="7.991413">
        <ele>294.258155</ele>
        <time>2021-11-22T08:01:34.787Z</time>
      </trkpt>
      <trkpt lat="47.557666" lon="7.996934">
        <ele>295.448189</ele>
        <time>2021-11-22T08:02:33.644Z</time>
      </trkpt>
      <trkpt lat="47.557611" lon="7.998828">
        <ele>296.068559</ele>
        <time>2021-11-22T08:02:56.271Z</time>
      </trkpt>
      <trkpt lat="47.557595" lon="7.999065">
        <ele>296.151589</ele>
        <time>2021-11-22T08:02:59.296Z</time>
      </trkpt>
      <trkpt lat="47.557590" lon="7.999121">
        <ele>296.171280</ele>
        <time>2021-11-22T08:02:59.955Z</time>
      </trkpt>
      <trkpt lat="47.557569" lon="7.999330">
        <ele>296.244940</ele>
        <time>2021-11-22T08:03:05.543Z</time>
      </trkpt>
      <trkpt lat="47.557552" lon="7.999488">
        <ele>296.300714</ele>
        <time>2021-11-22T08:03:07.560Z</time>
      </trkpt>
      <trkpt lat="47.557421" lon="8.000151">
        <ele>296.541537</ele>
        <time>2021-11-22T08:03:15.759Z</time>
      </trkpt>
      <trkpt lat="47.556859" lon="8.003033">
        <ele>296.589417</ele>
        <time>2021-11-22T08:03:45.473Z</time>
      </trkpt>
      <trkpt lat="47.556414" lon="8.004608">
        <ele>295.973645</ele>
        <time>2021-11-22T08:04:00.241Z</time>
      </trkpt>
      <trkpt lat="47.555689" lon="8.008075">
        <ele>294.333785</ele>
        <time>2021-11-22T08:04:31.909Z</time>
      </trkpt>
      <trkpt lat="47.555492" lon="8.008854">
        <ele>293.866561</ele>
        <time>2021-11-22T08:04:38.929Z</time>
      </trkpt>
      <trkpt lat="47.555373" lon="8.009365">
        <ele>293.537082</ele>
        <time>2021-11-22T08:04:43.413Z</time>
      </trkpt>
      <trkpt lat="47.555124" lon="8.010557">
        <ele>292.776543</ele>
        <time>2021-11-22T08:04:53.740Z</time>
      </trkpt>
      <trkpt lat="47.555069" lon="8.010772">
        <ele>292.636400</ele>
        <time>2021-11-22T08:04:55.573Z</time>
      </trkpt>
      <trkpt lat="47.554818" lon="8.011865">
        <ele>292.271133</ele>
        <time>2021-11-22T08:05:05.278Z</time>
      </trkpt>
      <trkpt lat="47.554682" lon="8.012449">
        <ele>292.092403</ele>
        <time>2021-11-22T08:05:10.982Z</time>
      </trkpt>
      <trkpt lat="47.554665" lon="8.012540">
        <ele>292.065087</ele>
        <time>2021-11-22T08:05:11.821Z</time>
      </trkpt>
      <trkpt lat="47.554546" lon="8.013079">
        <ele>291.901019</ele>
        <time>2021-11-22T08:05:17.323Z</time>
      </trkpt>
      <trkpt lat="47.554393" lon="8.013577">
        <ele>291.882311</ele>
        <time>2021-11-22T08:05:23.106Z</time>
      </trkpt>
      <trkpt lat="47.554329" lon="8.013807">
        <ele>291.969404</ele>
        <time>2021-11-22T08:05:25.979Z</time>
      </trkpt>
      <trkpt lat="47.553882" lon="8.015749">
        <ele>292.687709</ele>
        <time>2021-11-22T08:05:49.782Z</time>
      </trkpt>
      <trkpt lat="47.553715" lon="8.016236">
        <ele>292.886913</ele>
        <time>2021-11-22T08:05:56.244Z</time>
      </trkpt>
      <trkpt lat="47.553318" lon="8.017064">
        <ele>293.262712</ele>
        <time>2021-11-22T08:06:08.127Z</time>
      </trkpt>
      <trkpt lat="47.553229" lon="8.017328">
        <ele>293.371900</ele>
        <time>2021-11-22T08:06:11.736Z</time>
      </trkpt>
      <trkpt lat="47.553159" lon="8.017677">
        <ele>293.506612</ele>
        <time>2021-11-22T08:06:16.337Z</time>
      </trkpt>
      <trkpt lat="47.553012" lon="8.018748">
        <ele>293.822906</ele>
        <time>2021-11-22T08:06:27.965Z</time>
      </trkpt>
      <trkpt lat="47.553028" lon="8.018988">
        <ele>293.869893</ele>
        <time>2021-11-22T08:06:30.289Z</time>
      </trkpt>
      <trkpt lat="47.553028" lon="8.018988">
        <ele>293.869893</ele>
        <time>2021-11-22T08:06:30.318Z</time>
      </trkpt>
      <trkpt lat="47.553028" lon="8.018988">
        <ele>293.869893</ele>
        <time>2021-11-22T08:06:30.330Z</time>
      </trkpt>
      <trkpt lat="47.553030" lon="8.019182">
        <ele>293.907694</ele>
        <time>2021-11-22T08:06:32.024Z</time>
      </trkpt>
      <trkpt lat="47.553055" lon="8.019647">
        <ele>293.998577</ele>
        <time>2021-11-22T08:06:36.707Z</time>
      </trkpt>
      <trkpt lat="47.553064" lon="8.019820">
        <ele>294.032382</ele>
        <time>2021-11-22T08:06:38.233Z</time>
      </trkpt>
      <trkpt lat="47.553056" lon="8.019871">
        <ele>294.042584</ele>
        <time>2021-11-22T08:06:38.723Z</time>
      </trkpt>
      <trkpt lat="47.553031" lon="8.019915">
        <ele>294.053789</ele>
        <time>2021-11-22T08:06:39.374Z</time>
      </trkpt>
      <trkpt lat="47.552961" lon="8.019989">
        <ele>294.078613</ele>
        <time>2021-11-22T08:06:40.826Z</time>
      </trkpt>
      <trkpt lat="47.552879" lon="8.020034">
        <ele>294.103856</ele>
        <time>2021-11-22T08:06:42.405Z</time>
      </trkpt>
      <trkpt lat="47.552872" lon="8.020109">
        <ele>294.118607</ele>
        <time>2021-11-22T08:06:43.018Z</time>
      </trkpt>
      <trkpt lat="47.552813" lon="8.020595">
        <ele>294.214814</ele>
        <time>2021-11-22T08:06:48.841Z</time>
      </trkpt>
      <trkpt lat="47.552776" lon="8.021316">
        <ele>295.211553</ele>
        <time>2021-11-22T08:06:57.826Z</time>
      </trkpt>
      <trkpt lat="47.552959" lon="8.021335">
        <ele>295.670873</ele>
        <time>2021-11-22T08:07:01.840Z</time>
      </trkpt>
      <trkpt lat="47.553183" lon="8.021466">
        <ele>296.273832</ele>
        <time>2021-11-22T08:07:06.515Z</time>
      </trkpt>
      <trkpt lat="47.553232" lon="8.021484">
        <ele>296.400233</ele>
        <time>2021-11-22T08:07:07.837Z</time>
      </trkpt>
      <trkpt lat="47.553266" lon="8.021493">
        <ele>296.486710</ele>
        <time>2021-11-22T08:07:08.635Z</time>
      </trkpt>
      <trkpt lat="47.553291" lon="8.021502">
        <ele>296.551126</ele>
        <time>2021-11-22T08:07:09.310Z</time>
      </trkpt>
      <trkpt lat="47.553305" lon="8.021505">
        <ele>296.586544</ele>
        <time>2021-11-22T08:07:09.665Z</time>
      </trkpt>
      <trkpt lat="47.553565" lon="8.021501">
        <ele>297.237569</ele>
        <time>2021-11-22T08:07:16.235Z</time>
      </trkpt>
      <trkpt lat="47.553607" lon="8.021497">
        <ele>297.342946</ele>
        <time>2021-11-22T08:07:17.412Z</time>
      </trkpt>
      <trkpt lat="47.553614" lon="8.021587">
        <ele>297.496036</ele>
        <time>2021-11-22T08:07:19.076Z</time>
      </trkpt>
      <trkpt lat="47.553615" lon="8.021606">
        <ele>297.528240</ele>
        <time>2021-11-22T08:07:19.459Z</time>
      </trkpt>
      <trkpt lat="47.553619" lon="8.021667">
        <ele>297.631804</ele>
        <time>2021-11-22T08:07:20.699Z</time>
      </trkpt>
      <trkpt lat="47.553687" lon="8.021682">
        <ele>297.803939</ele>
        <time>2021-11-22T08:07:22.855Z</time>
      </trkpt>
      <trkpt lat="47.553878" lon="8.021738">
        <ele>298.291439</ele>
        <time>2021-11-22T08:07:28.919Z</time>
      </trkpt>
      <trkpt lat="47.553961" lon="8.021754">
        <ele>298.501006</ele>
        <time>2021-11-22T08:07:31.749Z</time>
      </trkpt>
      <trkpt lat="47.554086" lon="8.021778">
        <ele>298.890209</ele>
        <time>2021-11-22T08:07:36.084Z</time>
      </trkpt>
      <trkpt lat="47.554332" lon="8.021803">
        <ele>300.166331</ele>
        <time>2021-11-22T08:07:44.608Z</time>
      </trkpt>
      <trkpt lat="47.554468" lon="8.021743">
        <ele>300.900712</ele>
        <time>2021-11-22T08:07:49.587Z</time>
      </trkpt>
      <trkpt lat="47.554589" lon="8.021606">
        <ele>301.688821</ele>
        <time>2021-11-22T08:07:54.644Z</time>
      </trkpt>
      <trkpt lat="47.554743" lon="8.021466">
        <ele>302.623871</ele>
        <time>2021-11-22T08:08:01.241Z</time>
      </trkpt>
      <trkpt lat="47.554958" lon="8.021349">
        <ele>303.809235</ele>
        <time>2021-11-22T08:08:08.697Z</time>
      </trkpt>
      <trkpt lat="47.555346" lon="8.021253">
        <ele>305.845065</ele>
        <time>2021-11-22T08:08:22.850Z</time>
      </trkpt>
      <trkpt lat="47.555521" lon="8.021257">
        <ele>306.750855</ele>
        <time>2021-11-22T08:08:29.273Z</time>
      </trkpt>
      <trkpt lat="47.555963" lon="8.021294">
        <ele>309.260748</ele>
        <time>2021-11-22T08:08:46.819Z</time>
      </trkpt>
      <trkpt lat="47.556296" lon="8.021331">
        <ele>311.372458</ele>
        <time>2021-11-22T08:09:00.987Z</time>
      </trkpt>
      <trkpt lat="47.556552" lon="8.021260">
        <ele>313.019442</ele>
        <time>2021-11-22T08:09:10.959Z</time>
      </trkpt>
      <trkpt lat="47.556632" lon="8.021199">
        <ele>313.588390</ele>
        <time>2021-11-22T08:09:14.294Z</time>
      </trkpt>
      <trkpt lat="47.556709" lon="8.021127">
        <ele>314.164161</ele>
        <time>2021-11-22T08:09:17.412Z</time>
      </trkpt>
      <trkpt lat="47.556718" lon="8.021112">
        <ele>314.249817</ele>
        <time>2021-11-22T08:09:17.981Z</time>
      </trkpt>
      <trkpt lat="47.556775" lon="8.021020">
        <ele>314.782806</ele>
        <time>2021-11-22T08:09:21.506Z</time>
      </trkpt>
      <trkpt lat="47.556880" lon="8.020827">
        <ele>315.840767</ele>
        <time>2021-11-22T08:09:28.126Z</time>
      </trkpt>
      <trkpt lat="47.556951" lon="8.020734">
        <ele>316.440022</ele>
        <time>2021-11-22T08:09:31.337Z</time>
      </trkpt>
      <trkpt lat="47.557049" lon="8.020675">
        <ele>317.108944</ele>
        <time>2021-11-22T08:09:35.837Z</time>
      </trkpt>
      <trkpt lat="47.557140" lon="8.020649">
        <ele>317.695002</ele>
        <time>2021-11-22T08:09:40.414Z</time>
      </trkpt>
      <trkpt lat="47.557326" lon="8.020583">
        <ele>318.904467</ele>
        <time>2021-11-22T08:09:47.474Z</time>
      </trkpt>
      <trkpt lat="47.557406" lon="8.020509">
        <ele>319.506093</ele>
        <time>2021-11-22T08:09:51.728Z</time>
      </trkpt>
      <trkpt lat="47.557453" lon="8.020436">
        <ele>319.968714</ele>
        <time>2021-11-22T08:09:55.610Z</time>
      </trkpt>
      <trkpt lat="47.557491" lon="8.020177">
        <ele>321.184036</ele>
        <time>2021-11-22T08:10:02.540Z</time>
      </trkpt>
      <trkpt lat="47.557398" lon="8.019696">
        <ele>323.478278</ele>
        <time>2021-11-22T08:10:17.560Z</time>
      </trkpt>
      <trkpt lat="47.557390" lon="8.019571">
        <ele>324.054007</ele>
        <time>2021-11-22T08:10:21.537Z</time>
      </trkpt>
      <trkpt lat="47.557414" lon="8.019414">
        <ele>324.792130</ele>
        <time>2021-11-22T08:10:26.970Z</time>
      </trkpt>
      <trkpt lat="47.557532" lon="8.018992">
        <ele>326.886630</ele>
        <time>2021-11-22T08:10:39.297Z</time>
      </trkpt>
      <trkpt lat="47.557566" lon="8.018865">
        <ele>327.513105</ele>
        <time>2021-11-22T08:10:44.040Z</time>
      </trkpt>
      <trkpt lat="47.557700" lon="8.018487">
        <ele>329.470906</ele>
        <time>2021-11-22T08:10:54.063Z</time>
      </trkpt>
      <trkpt lat="47.557746" lon="8.018355">
        <ele>330.152091</ele>
        <time>2021-11-22T08:10:58.473Z</time>
      </trkpt>
      <trkpt lat="47.557944" lon="8.018030">
        <ele>332.189439</ele>
        <time>2021-11-22T08:11:10.093Z</time>
      </trkpt>
      <trkpt lat="47.558167" lon="8.017713">
        <ele>334.411796</ele>
        <time>2021-11-22T08:11:22.970Z</time>
      </trkpt>
      <trkpt lat="47.558238" lon="8.017607">
        <ele>335.136619</ele>
        <time>2021-11-22T08:11:27.369Z</time>
      </trkpt>
      <trkpt lat="47.558302" lon="8.017520">
        <ele>335.761216</ele>
        <time>2021-11-22T08:11:30.939Z</time>
      </trkpt>
      <trkpt lat="47.558316" lon="8.017494">
        <ele>335.922645</ele>
        <time>2021-11-22T08:11:32.588Z</time>
      </trkpt>
      <trkpt lat="47.558404" lon="8.017331">
        <ele>336.935716</ele>
        <time>2021-11-22T08:11:37.738Z</time>
      </trkpt>
      <trkpt lat="47.558419" lon="8.017286">
        <ele>337.179299</ele>
        <time>2021-11-22T08:11:39.173Z</time>
      </trkpt>
      <trkpt lat="47.558456" lon="8.017175">
        <ele>337.780137</ele>
        <time>2021-11-22T08:11:42.957Z</time>
      </trkpt>
      <trkpt lat="47.558469" lon="8.016757">
        <ele>339.810924</ele>
        <time>2021-11-22T08:11:54.869Z</time>
      </trkpt>
      <trkpt lat="47.558472" lon="8.016633">
        <ele>340.413107</ele>
        <time>2021-11-22T08:11:58.580Z</time>
      </trkpt>
      <trkpt lat="47.558468" lon="8.016544">
        <ele>340.845997</ele>
        <time>2021-11-22T08:12:00.926Z</time>
      </trkpt>
      <trkpt lat="47.558466" lon="8.016482">
        <ele>341.147239</ele>
        <time>2021-11-22T08:12:04.065Z</time>
      </trkpt>
      <trkpt lat="47.558477" lon="8.015998">
        <ele>343.497514</ele>
        <time>2021-11-22T08:12:17.628Z</time>
      </trkpt>
      <trkpt lat="47.558647" lon="8.015459">
        <ele>346.778660</ele>
        <time>2021-11-22T08:12:37.968Z</time>
      </trkpt>
      <trkpt lat="47.559052" lon="8.014792">
        <ele>352.086280</ele>
        <time>2021-11-22T08:13:07.832Z</time>
      </trkpt>
      <trkpt lat="47.559301" lon="8.014552">
        <ele>354.690033</ele>
        <time>2021-11-22T08:13:24.535Z</time>
      </trkpt>
      <trkpt lat="47.559783" lon="8.014275">
        <ele>359.221711</ele>
        <time>2021-11-22T08:13:50.717Z</time>
      </trkpt>
      <trkpt lat="47.559980" lon="8.014260">
        <ele>360.851620</ele>
        <time>2021-11-22T08:14:00.663Z</time>
      </trkpt>
      <trkpt lat="47.560319" lon="8.014395">
        <ele>363.418206</ele>
        <time>2021-11-22T08:14:16.820Z</time>
      </trkpt>
      <trkpt lat="47.560683" lon="8.014628">
        <ele>366.317320</ele>
        <time>2021-11-22T08:14:33.307Z</time>
      </trkpt>
      <trkpt lat="47.560834" lon="8.014633">
        <ele>367.421653</ele>
        <time>2021-11-22T08:14:38.824Z</time>
      </trkpt>
      <trkpt lat="47.560957" lon="8.014567">
        <ele>368.378125</ele>
        <time>2021-11-22T08:14:45.047Z</time>
      </trkpt>
      <trkpt lat="47.560995" lon="8.014547">
        <ele>368.672971</ele>
        <time>2021-11-22T08:14:45.951Z</time>
      </trkpt>
      <trkpt lat="47.561174" lon="8.014255">
        <ele>370.619389</ele>
        <time>2021-11-22T08:14:58.654Z</time>
      </trkpt>
      <trkpt lat="47.561324" lon="8.013664">
        <ele>373.730909</ele>
        <time>2021-11-22T08:15:17.492Z</time>
      </trkpt>
      <trkpt lat="47.561442" lon="8.013448">
        <ele>375.079217</ele>
        <time>2021-11-22T08:15:24.132Z</time>
      </trkpt>
      <trkpt lat="47.561619" lon="8.013259">
        <ele>376.647730</ele>
        <time>2021-11-22T08:15:34.076Z</time>
      </trkpt>
      <trkpt lat="47.561899" lon="8.013170">
        <ele>378.706623</ele>
        <time>2021-11-22T08:15:47.045Z</time>
      </trkpt>
      <trkpt lat="47.562066" lon="8.013151">
        <ele>379.910831</ele>
        <time>2021-11-22T08:15:52.815Z</time>
      </trkpt>
      <trkpt lat="47.562148" lon="8.013140">
        <ele>380.502795</ele>
        <time>2021-11-22T08:15:55.735Z</time>
      </trkpt>
      <trkpt lat="47.562228" lon="8.013107">
        <ele>381.099835</ele>
        <time>2021-11-22T08:16:00.106Z</time>
      </trkpt>
      <trkpt lat="47.562467" lon="8.013027">
        <ele>382.861453</ele>
        <time>2021-11-22T08:16:09.788Z</time>
      </trkpt>
      <trkpt lat="47.562986" lon="8.012625">
        <ele>386.989887</ele>
        <time>2021-11-22T08:16:37.668Z</time>
      </trkpt>
      <trkpt lat="47.563093" lon="8.012604">
        <ele>387.665986</ele>
        <time>2021-11-22T08:16:42.293Z</time>
      </trkpt>
      <trkpt lat="47.563207" lon="8.012665">
        <ele>388.425202</ele>
        <time>2021-11-22T08:16:49.324Z</time>
      </trkpt>
      <trkpt lat="47.563289" lon="8.012797">
        <ele>389.183572</ele>
        <time>2021-11-22T08:16:55.006Z</time>
      </trkpt>
      <trkpt lat="47.563524" lon="8.013612">
        <ele>392.929726</ele>
        <time>2021-11-22T08:17:21.246Z</time>
      </trkpt>
      <trkpt lat="47.563694" lon="8.013972">
        <ele>394.786963</ele>
        <time>2021-11-22T08:17:30.971Z</time>
      </trkpt>
      <trkpt lat="47.563758" lon="8.014030">
        <ele>395.256874</ele>
        <time>2021-11-22T08:17:34.539Z</time>
      </trkpt>
      <trkpt lat="47.563908" lon="8.014085">
        <ele>396.224803</ele>
        <time>2021-11-22T08:17:39.319Z</time>
      </trkpt>
      <trkpt lat="47.564241" lon="8.013975">
        <ele>397.908727</ele>
        <time>2021-11-22T08:17:50.164Z</time>
      </trkpt>
      <trkpt lat="47.564751" lon="8.013465">
        <ele>399.115708</ele>
        <time>2021-11-22T08:18:06.712Z</time>
      </trkpt>
      <trkpt lat="47.565338" lon="8.012662">
        <ele>400.682868</ele>
        <time>2021-11-22T08:18:21.602Z</time>
      </trkpt>
      <trkpt lat="47.565501" lon="8.012111">
        <ele>401.571949</ele>
        <time>2021-11-22T08:18:28.178Z</time>
      </trkpt>
      <trkpt lat="47.565472" lon="8.011708">
        <ele>402.308462</ele>
        <time>2021-11-22T08:18:33.126Z</time>
      </trkpt>
      <trkpt lat="47.565220" lon="8.011190">
        <ele>403.468968</ele>
        <time>2021-11-22T08:18:41.989Z</time>
      </trkpt>
      <trkpt lat="47.565079" lon="8.011063">
        <ele>403.913351</ele>
        <time>2021-11-22T08:18:45.863Z</time>
      </trkpt>
      <trkpt lat="47.564831" lon="8.010977">
        <ele>404.599321</ele>
        <time>2021-11-22T08:18:52.311Z</time>
      </trkpt>
      <trkpt lat="47.564410" lon="8.011026">
        <ele>405.736676</ele>
        <time>2021-11-22T08:19:05.277Z</time>
      </trkpt>
      <trkpt lat="47.564251" lon="8.010805">
        <ele>406.825250</ele>
        <time>2021-11-22T08:19:13.213Z</time>
      </trkpt>
      <trkpt lat="47.564285" lon="8.010543">
        <ele>408.286986</ele>
        <time>2021-11-22T08:19:20.481Z</time>
      </trkpt>
      <trkpt lat="47.564366" lon="8.010437">
        <ele>409.164374</ele>
        <time>2021-11-22T08:19:25.212Z</time>
      </trkpt>
      <trkpt lat="47.564876" lon="8.010157">
        <ele>413.580338</ele>
        <time>2021-11-22T08:19:51.159Z</time>
      </trkpt>
      <trkpt lat="47.565384" lon="8.009424">
        <ele>419.337100</ele>
        <time>2021-11-22T08:20:28.713Z</time>
      </trkpt>
      <trkpt lat="47.565625" lon="8.009299">
        <ele>421.448922</ele>
        <time>2021-11-22T08:20:42.450Z</time>
      </trkpt>
      <trkpt lat="47.566213" lon="8.009186">
        <ele>426.517568</ele>
        <time>2021-11-22T08:21:13.884Z</time>
      </trkpt>
      <trkpt lat="47.566636" lon="8.009033">
        <ele>430.239748</ele>
        <time>2021-11-22T08:21:36.042Z</time>
      </trkpt>
      <trkpt lat="47.567295" lon="8.008508">
        <ele>436.464387</ele>
        <time>2021-11-22T08:22:09.625Z</time>
      </trkpt>
      <trkpt lat="47.567593" lon="8.008428">
        <ele>438.290261</ele>
        <time>2021-11-22T08:22:22.718Z</time>
      </trkpt>
      <trkpt lat="47.568942" lon="8.008356">
        <ele>446.428637</ele>
        <time>2021-11-22T08:23:14.701Z</time>
      </trkpt>
      <trkpt lat="47.569032" lon="8.008394">
        <ele>446.939692</ele>
        <time>2021-11-22T08:23:18.213Z</time>
      </trkpt>
      <trkpt lat="47.569090" lon="8.008418">
        <ele>447.097555</ele>
        <time>2021-11-22T08:23:19.748Z</time>
      </trkpt>
      <trkpt lat="47.569232" lon="8.008468">
        <ele>447.480173</ele>
        <time>2021-11-22T08:23:25.329Z</time>
      </trkpt>
      <trkpt lat="47.569356" lon="8.008548">
        <ele>447.834703</ele>
        <time>2021-11-22T08:23:29.048Z</time>
      </trkpt>
      <trkpt lat="47.569733" lon="8.009325">
        <ele>449.527475</ele>
        <time>2021-11-22T08:23:46.653Z</time>
      </trkpt>
      <trkpt lat="47.569881" lon="8.009480">
        <ele>450.002546</ele>
        <time>2021-11-22T08:23:50.725Z</time>
      </trkpt>
      <trkpt lat="47.569985" lon="8.009558">
        <ele>450.308102</ele>
        <time>2021-11-22T08:23:53.844Z</time>
      </trkpt>
      <trkpt lat="47.570110" lon="8.009604">
        <ele>450.645742</ele>
        <time>2021-11-22T08:23:55.742Z</time>
      </trkpt>
      <trkpt lat="47.570537" lon="8.009765">
        <ele>451.644525</ele>
        <time>2021-11-22T08:24:03.428Z</time>
      </trkpt>
      <trkpt lat="47.570679" lon="8.009960">
        <ele>451.727463</ele>
        <time>2021-11-22T08:24:06.309Z</time>
      </trkpt>
      <trkpt lat="47.570901" lon="8.010376">
        <ele>451.880782</ele>
        <time>2021-11-22T08:24:11.400Z</time>
      </trkpt>
      <trkpt lat="47.571091" lon="8.010633">
        <ele>451.990988</ele>
        <time>2021-11-22T08:24:15.428Z</time>
      </trkpt>
      <trkpt lat="47.571221" lon="8.010706">
        <ele>452.050549</ele>
        <time>2021-11-22T08:24:17.089Z</time>
      </trkpt>
      <trkpt lat="47.571485" lon="8.010679">
        <ele>452.163927</ele>
        <time>2021-11-22T08:24:21.053Z</time>
      </trkpt>
      <trkpt lat="47.571642" lon="8.010477">
        <ele>452.253000</ele>
        <time>2021-11-22T08:24:23.994Z</time>
      </trkpt>
      <trkpt lat="47.571749" lon="8.009974">
        <ele>452.564937</ele>
        <time>2021-11-22T08:24:29.921Z</time>
      </trkpt>
      <trkpt lat="47.571538" lon="8.008187">
        <ele>457.103033</ele>
        <time>2021-11-22T08:25:03.203Z</time>
      </trkpt>
      <trkpt lat="47.571577" lon="8.007177">
        <ele>460.311196</ele>
        <time>2021-11-22T08:25:28.924Z</time>
      </trkpt>
      <trkpt lat="47.571832" lon="8.005893">
        <ele>467.569328</ele>
        <time>2021-11-22T08:26:11.166Z</time>
      </trkpt>
      <trkpt lat="47.571947" lon="8.005585">
        <ele>469.478223</ele>
        <time>2021-11-22T08:26:23.505Z</time>
      </trkpt>
      <trkpt lat="47.572250" lon="8.005072">
        <ele>473.175470</ele>
        <time>2021-11-22T08:26:47.017Z</time>
      </trkpt>
      <trkpt lat="47.572545" lon="8.004649">
        <ele>476.423988</ele>
        <time>2021-11-22T08:27:08.420Z</time>
      </trkpt>
      <trkpt lat="47.572581" lon="8.004598">
        <ele>476.817429</ele>
        <time>2021-11-22T08:27:11.445Z</time>
      </trkpt>
      <trkpt lat="47.572812" lon="8.004145">
        <ele>479.844162</ele>
        <time>2021-11-22T08:27:30.663Z</time>
      </trkpt>
      <trkpt lat="47.572894" lon="8.003925">
        <ele>481.183872</ele>
        <time>2021-11-22T08:27:38.197Z</time>
      </trkpt>
      <trkpt lat="47.572959" lon="8.003732">
        <ele>482.333661</ele>
        <time>2021-11-22T08:27:45.650Z</time>
      </trkpt>
      <trkpt lat="47.573083" lon="8.003074">
        <ele>485.975191</ele>
        <time>2021-11-22T08:28:05.364Z</time>
      </trkpt>
      <trkpt lat="47.573074" lon="8.002958">
        <ele>486.597569</ele>
        <time>2021-11-22T08:28:08.695Z</time>
      </trkpt>
      <trkpt lat="47.573211" lon="8.002587">
        <ele>488.362263</ele>
        <time>2021-11-22T08:28:19.523Z</time>
      </trkpt>
      <trkpt lat="47.573308" lon="8.002463">
        <ele>488.936196</ele>
        <time>2021-11-22T08:28:23.925Z</time>
      </trkpt>
      <trkpt lat="47.573400" lon="8.002344">
        <ele>489.483301</ele>
        <time>2021-11-22T08:28:29.401Z</time>
      </trkpt>
      <trkpt lat="47.573502" lon="8.002634">
        <ele>490.471909</ele>
        <time>2021-11-22T08:28:36.442Z</time>
      </trkpt>
      <trkpt lat="47.573643" lon="8.002920">
        <ele>491.542681</ele>
        <time>2021-11-22T08:28:45.133Z</time>
      </trkpt>
      <trkpt lat="47.573679" lon="8.003065">
        <ele>492.009731</ele>
        <time>2021-11-22T08:28:48.335Z</time>
      </trkpt>
      <trkpt lat="47.573718" lon="8.003157">
        <ele>492.338176</ele>
        <time>2021-11-22T08:28:50.713Z</time>
      </trkpt>
      <trkpt lat="47.573800" lon="8.003256">
        <ele>492.812043</ele>
        <time>2021-11-22T08:28:54.784Z</time>
      </trkpt>
      <trkpt lat="47.574217" lon="8.003704">
        <ele>495.119630</ele>
        <time>2021-11-22T08:29:08.920Z</time>
      </trkpt>
      <trkpt lat="47.574305" lon="8.003732">
        <ele>495.522909</ele>
        <time>2021-11-22T08:29:11.383Z</time>
      </trkpt>
      <trkpt lat="47.574392" lon="8.003728">
        <ele>495.794018</ele>
        <time>2021-11-22T08:29:14.595Z</time>
      </trkpt>
      <trkpt lat="47.574686" lon="8.003684">
        <ele>495.934930</ele>
        <time>2021-11-22T08:29:20.736Z</time>
      </trkpt>
      <trkpt lat="47.574764" lon="8.003762">
        <ele>495.979798</ele>
        <time>2021-11-22T08:29:23.226Z</time>
      </trkpt>
      <trkpt lat="47.575168" lon="8.004892">
        <ele>496.391219</ele>
        <time>2021-11-22T08:29:39.017Z</time>
      </trkpt>
      <trkpt lat="47.575411" lon="8.005256">
        <ele>496.555962</ele>
        <time>2021-11-22T08:29:43.695Z</time>
      </trkpt>
      <trkpt lat="47.575508" lon="8.005404">
        <ele>496.622343</ele>
        <time>2021-11-22T08:29:45.248Z</time>
      </trkpt>
      <trkpt lat="47.575531" lon="8.005431">
        <ele>496.636334</ele>
        <time>2021-11-22T08:29:45.542Z</time>
      </trkpt>
      <trkpt lat="47.575756" lon="8.005585">
        <ele>495.539665</ele>
        <time>2021-11-22T08:29:48.087Z</time>
      </trkpt>
      <trkpt lat="47.575892" lon="8.005591">
        <ele>494.930542</ele>
        <time>2021-11-22T08:29:49.441Z</time>
      </trkpt>
      <trkpt lat="47.576902" lon="8.005070">
        <ele>490.142950</ele>
        <time>2021-11-22T08:29:59.512Z</time>
      </trkpt>
      <trkpt lat="47.577375" lon="8.004938">
        <ele>488.094074</ele>
        <time>2021-11-22T08:30:03.920Z</time>
      </trkpt>
      <trkpt lat="47.577792" lon="8.005044">
        <ele>486.535847</ele>
        <time>2021-11-22T08:30:07.820Z</time>
      </trkpt>
      <trkpt lat="47.578086" lon="8.005441">
        <ele>485.071148</ele>
        <time>2021-11-22T08:30:11.611Z</time>
      </trkpt>
      <trkpt lat="47.578325" lon="8.005530">
        <ele>484.163563</ele>
        <time>2021-11-22T08:30:14.055Z</time>
      </trkpt>
      <trkpt lat="47.578736" lon="8.005500">
        <ele>482.648017</ele>
        <time>2021-11-22T08:30:18.433Z</time>
      </trkpt>
      <trkpt lat="47.579228" lon="8.005324">
        <ele>482.120657</ele>
        <time>2021-11-22T08:30:25.039Z</time>
      </trkpt>
      <trkpt lat="47.579909" lon="8.004868">
        <ele>482.494280</ele>
        <time>2021-11-22T08:30:39.937Z</time>
      </trkpt>
      <trkpt lat="47.580305" lon="8.004384">
        <ele>482.750897</ele>
        <time>2021-11-22T08:30:51.461Z</time>
      </trkpt>
      <trkpt lat="47.580693" lon="8.003731">
        <ele>481.528751</ele>
        <time>2021-11-22T08:31:01.049Z</time>
      </trkpt>
      <trkpt lat="47.581433" lon="8.002768">
        <ele>477.969961</ele>
        <time>2021-11-22T08:31:11.030Z</time>
      </trkpt>
      <trkpt lat="47.581538" lon="8.002492">
        <ele>477.197453</ele>
        <time>2021-11-22T08:31:12.957Z</time>
      </trkpt>
      <trkpt lat="47.581587" lon="8.002199">
        <ele>476.461513</ele>
        <time>2021-11-22T08:31:14.809Z</time>
      </trkpt>
      <trkpt lat="47.581843" lon="8.001622">
        <ele>473.038498</ele>
        <time>2021-11-22T08:31:18.825Z</time>
      </trkpt>
      <trkpt lat="47.582003" lon="8.001392">
        <ele>471.347255</ele>
        <time>2021-11-22T08:31:20.740Z</time>
      </trkpt>
      <trkpt lat="47.582718" lon="8.001131">
        <ele>465.759349</ele>
        <time>2021-11-22T08:31:27.140Z</time>
      </trkpt>
      <trkpt lat="47.582884" lon="8.001201">
        <ele>464.449674</ele>
        <time>2021-11-22T08:31:28.851Z</time>
      </trkpt>
      <trkpt lat="47.583038" lon="8.001422">
        <ele>462.823204</ele>
        <time>2021-11-22T08:31:30.733Z</time>
      </trkpt>
      <trkpt lat="47.583129" lon="8.001600">
        <ele>462.741383</ele>
        <time>2021-11-22T08:31:34.152Z</time>
      </trkpt>
      <trkpt lat="47.583138" lon="8.001749">
        <ele>462.764454</ele>
        <time>2021-11-22T08:31:35.056Z</time>
      </trkpt>
      <trkpt lat="47.582770" lon="8.002301">
        <ele>462.884153</ele>
        <time>2021-11-22T08:31:40.729Z</time>
      </trkpt>
      <trkpt lat="47.582722" lon="8.002476">
        <ele>462.913289</ele>
        <time>2021-11-22T08:31:44.034Z</time>
      </trkpt>
      <trkpt lat="47.582735" lon="8.002783">
        <ele>462.960730</ele>
        <time>2021-11-22T08:31:46.211Z</time>
      </trkpt>
      <trkpt lat="47.582779" lon="8.003036">
        <ele>463.001026</ele>
        <time>2021-11-22T08:31:51.659Z</time>
      </trkpt>
      <trkpt lat="47.582789" lon="8.003167">
        <ele>463.021359</ele>
        <time>2021-11-22T08:31:52.587Z</time>
      </trkpt>
      <trkpt lat="47.582781" lon="8.003305">
        <ele>463.042721</ele>
        <time>2021-11-22T08:31:54.611Z</time>
      </trkpt>
      <trkpt lat="47.582727" lon="8.003464">
        <ele>463.070176</ele>
        <time>2021-11-22T08:32:00.910Z</time>
      </trkpt>
      <trkpt lat="47.582604" lon="8.004164">
        <ele>464.992200</ele>
        <time>2021-11-22T08:32:18.617Z</time>
      </trkpt>
      <trkpt lat="47.582510" lon="8.004377">
        <ele>466.213116</ele>
        <time>2021-11-22T08:32:25.908Z</time>
      </trkpt>
      <trkpt lat="47.582188" lon="8.004718">
        <ele>469.027075</ele>
        <time>2021-11-22T08:32:43.474Z</time>
      </trkpt>
      <trkpt lat="47.581764" lon="8.005054">
        <ele>472.445889</ele>
        <time>2021-11-22T08:33:05.278Z</time>
      </trkpt>
      <trkpt lat="47.581321" lon="8.006142">
        <ele>479.100026</ele>
        <time>2021-11-22T08:33:45.225Z</time>
      </trkpt>
      <trkpt lat="47.581140" lon="8.006991">
        <ele>484.277617</ele>
        <time>2021-11-22T08:34:17.260Z</time>
      </trkpt>
      <trkpt lat="47.580912" lon="8.007336">
        <ele>487.086144</ele>
        <time>2021-11-22T08:34:34.486Z</time>
      </trkpt>
      <trkpt lat="47.579923" lon="8.008040">
        <ele>494.619788</ele>
        <time>2021-11-22T08:35:25.552Z</time>
      </trkpt>
      <trkpt lat="47.579619" lon="8.008172">
        <ele>496.325700</ele>
        <time>2021-11-22T08:35:37.704Z</time>
      </trkpt>
      <trkpt lat="47.578864" lon="8.008842">
        <ele>501.064439</ele>
        <time>2021-11-22T08:36:04.625Z</time>
      </trkpt>
      <trkpt lat="47.578362" lon="8.009201">
        <ele>501.814107</ele>
        <time>2021-11-22T08:36:17.125Z</time>
      </trkpt>
      <trkpt lat="47.578332" lon="8.009223">
        <ele>501.857347</ele>
        <time>2021-11-22T08:36:17.790Z</time>
      </trkpt>
      <trkpt lat="47.578269" lon="8.009376">
        <ele>502.013565</ele>
        <time>2021-11-22T08:36:20.229Z</time>
      </trkpt>
      <trkpt lat="47.578275" lon="8.009410">
        <ele>502.044193</ele>
        <time>2021-11-22T08:36:20.439Z</time>
      </trkpt>
      <trkpt lat="47.578339" lon="8.009582">
        <ele>502.215382</ele>
        <time>2021-11-22T08:36:23.436Z</time>
      </trkpt>
      <trkpt lat="47.578506" lon="8.009815">
        <ele>502.511661</ele>
        <time>2021-11-22T08:36:27.016Z</time>
      </trkpt>
      <trkpt lat="47.578802" lon="8.010247">
        <ele>503.048295</ele>
        <time>2021-11-22T08:36:34.373Z</time>
      </trkpt>
      <trkpt lat="47.578877" lon="8.010552">
        <ele>503.331209</ele>
        <time>2021-11-22T08:36:38.423Z</time>
      </trkpt>
      <trkpt lat="47.578994" lon="8.011565">
        <ele>503.713756</ele>
        <time>2021-11-22T08:36:49.647Z</time>
      </trkpt>
      <trkpt lat="47.579083" lon="8.012800">
        <ele>504.101734</ele>
        <time>2021-11-22T08:37:03.274Z</time>
      </trkpt>
      <trkpt lat="47.579303" lon="8.013994">
        <ele>504.395434</ele>
        <time>2021-11-22T08:37:18.017Z</time>
      </trkpt>
      <trkpt lat="47.579390" lon="8.014221">
        <ele>504.443802</ele>
        <time>2021-11-22T08:37:20.571Z</time>
      </trkpt>
      <trkpt lat="47.579476" lon="8.014445">
        <ele>504.491552</ele>
        <time>2021-11-22T08:37:24.118Z</time>
      </trkpt>
      <trkpt lat="47.579677" lon="8.015285">
        <ele>504.656672</ele>
        <time>2021-11-22T08:37:33.748Z</time>
      </trkpt>
      <trkpt lat="47.579693" lon="8.015395">
        <ele>504.677520</ele>
        <time>2021-11-22T08:37:35.411Z</time>
      </trkpt>
      <trkpt lat="47.579782" lon="8.016013">
        <ele>504.748082</ele>
        <time>2021-11-22T08:37:41.012Z</time>
      </trkpt>
      <trkpt lat="47.579807" lon="8.016479">
        <ele>504.735567</ele>
        <time>2021-11-22T08:37:44.815Z</time>
      </trkpt>
      <trkpt lat="47.579770" lon="8.017313">
        <ele>504.713190</ele>
        <time>2021-11-22T08:37:51.802Z</time>
      </trkpt>
      <trkpt lat="47.579800" lon="8.017631">
        <ele>504.704594</ele>
        <time>2021-11-22T08:37:56.503Z</time>
      </trkpt>
      <trkpt lat="47.579827" lon="8.017916">
        <ele>504.696889</ele>
        <time>2021-11-22T08:37:59.139Z</time>
      </trkpt>
      <trkpt lat="47.579890" lon="8.018812">
        <ele>504.989861</ele>
        <time>2021-11-22T08:38:10.847Z</time>
      </trkpt>
      <trkpt lat="47.579943" lon="8.018927">
        <ele>505.106803</ele>
        <time>2021-11-22T08:38:11.995Z</time>
      </trkpt>
      <trkpt lat="47.580093" lon="8.019071">
        <ele>505.329239</ele>
        <time>2021-11-22T08:38:15.981Z</time>
      </trkpt>
      <trkpt lat="47.580282" lon="8.019086">
        <ele>505.564827</ele>
        <time>2021-11-22T08:38:18.371Z</time>
      </trkpt>
      <trkpt lat="47.580628" lon="8.018939">
        <ele>506.012834</ele>
        <time>2021-11-22T08:38:24.663Z</time>
      </trkpt>
      <trkpt lat="47.580782" lon="8.018916">
        <ele>506.205490</ele>
        <time>2021-11-22T08:38:29.299Z</time>
      </trkpt>
      <trkpt lat="47.580830" lon="8.018918">
        <ele>506.265260</ele>
        <time>2021-11-22T08:38:30.801Z</time>
      </trkpt>
      <trkpt lat="47.580916" lon="8.019035">
        <ele>506.410549</ele>
        <time>2021-11-22T08:38:33.191Z</time>
      </trkpt>
      <trkpt lat="47.580948" lon="8.019213">
        <ele>506.565217</ele>
        <time>2021-11-22T08:38:37.135Z</time>
      </trkpt>
      <trkpt lat="47.580955" lon="8.019317">
        <ele>506.652971</ele>
        <time>2021-11-22T08:38:39.263Z</time>
      </trkpt>
      <trkpt lat="47.581039" lon="8.019934">
        <ele>507.302667</ele>
        <time>2021-11-22T08:38:59.464Z</time>
      </trkpt>
      <trkpt lat="47.581122" lon="8.020572">
        <ele>508.102439</ele>
        <time>2021-11-22T08:39:18.990Z</time>
      </trkpt>
      <trkpt lat="47.581460" lon="8.022287">
        <ele>510.352628</ele>
        <time>2021-11-22T08:40:10.858Z</time>
      </trkpt>
      <trkpt lat="47.581487" lon="8.022614">
        <ele>510.968638</ele>
        <time>2021-11-22T08:40:20.934Z</time>
      </trkpt>
      <trkpt lat="47.581513" lon="8.022860">
        <ele>511.434237</ele>
        <time>2021-11-22T08:40:26.014Z</time>
      </trkpt>
      <trkpt lat="47.581748" lon="8.024404">
        <ele>514.393885</ele>
        <time>2021-11-22T08:40:59.182Z</time>
      </trkpt>
      <trkpt lat="47.581899" lon="8.025089">
        <ele>516.104483</ele>
        <time>2021-11-22T08:41:16.471Z</time>
      </trkpt>
      <trkpt lat="47.582058" lon="8.025575">
        <ele>517.778794</ele>
        <time>2021-11-22T08:41:29.898Z</time>
      </trkpt>
      <trkpt lat="47.582102" lon="8.025700">
        <ele>518.215844</ele>
        <time>2021-11-22T08:41:34.296Z</time>
      </trkpt>
      <trkpt lat="47.582199" lon="8.025829">
        <ele>518.814663</ele>
        <time>2021-11-22T08:41:38.403Z</time>
      </trkpt>
      <trkpt lat="47.582289" lon="8.025933">
        <ele>519.339042</ele>
        <time>2021-11-22T08:41:42.052Z</time>
      </trkpt>
      <trkpt lat="47.582388" lon="8.025991">
        <ele>519.828218</ele>
        <time>2021-11-22T08:41:47.241Z</time>
      </trkpt>
      <trkpt lat="47.582723" lon="8.026030">
        <ele>521.372403</ele>
        <time>2021-11-22T08:42:00.124Z</time>
      </trkpt>
      <trkpt lat="47.582993" lon="8.025956">
        <ele>522.634175</ele>
        <time>2021-11-22T08:42:09.767Z</time>
      </trkpt>
      <trkpt lat="47.583073" lon="8.025933">
        <ele>523.008653</ele>
        <time>2021-11-22T08:42:13.749Z</time>
      </trkpt>
      <trkpt lat="47.583464" lon="8.025921">
        <ele>525.155342</ele>
        <time>2021-11-22T08:42:31.946Z</time>
      </trkpt>
      <trkpt lat="47.583871" lon="8.026235">
        <ele>527.809194</ele>
        <time>2021-11-22T08:42:53.048Z</time>
      </trkpt>
      <trkpt lat="47.583918" lon="8.026237">
        <ele>528.081164</ele>
        <time>2021-11-22T08:42:55.879Z</time>
      </trkpt>
      <trkpt lat="47.583982" lon="8.026498">
        <ele>529.164656</ele>
        <time>2021-11-22T08:43:04.213Z</time>
      </trkpt>
      <trkpt lat="47.584046" lon="8.026676">
        <ele>529.951627</ele>
        <time>2021-11-22T08:43:09.853Z</time>
      </trkpt>
      <trkpt lat="47.584080" lon="8.026751">
        <ele>530.304186</ele>
        <time>2021-11-22T08:43:13.020Z</time>
      </trkpt>
      <trkpt lat="47.584134" lon="8.026675">
        <ele>530.734860</ele>
        <time>2021-11-22T08:43:16.224Z</time>
      </trkpt>
      <trkpt lat="47.584228" lon="8.026533">
        <ele>531.511103</ele>
        <time>2021-11-22T08:43:21.805Z</time>
      </trkpt>
      <trkpt lat="47.584244" lon="8.026509">
        <ele>531.642757</ele>
        <time>2021-11-22T08:43:22.704Z</time>
      </trkpt>
      <trkpt lat="47.584323" lon="8.026391">
        <ele>532.291408</ele>
        <time>2021-11-22T08:43:27.908Z</time>
      </trkpt>
      <trkpt lat="47.584451" lon="8.026183">
        <ele>533.389907</ele>
        <time>2021-11-22T08:43:34.896Z</time>
      </trkpt>
      <trkpt lat="47.585609" lon="8.024292">
        <ele>541.393218</ele>
        <time>2021-11-22T08:44:41.844Z</time>
      </trkpt>
      <trkpt lat="47.586233" lon="8.023109">
        <ele>545.650868</ele>
        <time>2021-11-22T08:45:18.408Z</time>
      </trkpt>
      <trkpt lat="47.586478" lon="8.022754">
        <ele>547.066535</ele>
        <time>2021-11-22T08:45:31.132Z</time>
      </trkpt>
      <trkpt lat="47.586795" lon="8.022396">
        <ele>548.713269</ele>
        <time>2021-11-22T08:45:45.847Z</time>
      </trkpt>
      <trkpt lat="47.587072" lon="8.021950">
        <ele>550.417067</ele>
        <time>2021-11-22T08:46:00.905Z</time>
      </trkpt>
      <trkpt lat="47.587257" lon="8.021642">
        <ele>551.585303</ele>
        <time>2021-11-22T08:46:11.070Z</time>
      </trkpt>
      <trkpt lat="47.587557" lon="8.021107">
        <ele>553.556052</ele>
        <time>2021-11-22T08:46:27.933Z</time>
      </trkpt>
      <trkpt lat="47.587801" lon="8.021555">
        <ele>555.187114</ele>
        <time>2021-11-22T08:46:41.108Z</time>
      </trkpt>
      <trkpt lat="47.587981" lon="8.021848">
        <ele>556.309717</ele>
        <time>2021-11-22T08:46:49.971Z</time>
      </trkpt>
      <trkpt lat="47.588224" lon="8.022086">
        <ele>557.844484</ele>
        <time>2021-11-22T08:47:02.799Z</time>
      </trkpt>
      <trkpt lat="47.588772" lon="8.022285">
        <ele>561.920406</ele>
        <time>2021-11-22T08:47:27.820Z</time>
      </trkpt>
      <trkpt lat="47.588947" lon="8.022297">
        <ele>563.186009</ele>
        <time>2021-11-22T08:47:36.277Z</time>
      </trkpt>
      <trkpt lat="47.589256" lon="8.022150">
        <ele>565.530405</ele>
        <time>2021-11-22T08:47:51.862Z</time>
      </trkpt>
      <trkpt lat="47.589392" lon="8.022010">
        <ele>566.726488</ele>
        <time>2021-11-22T08:47:58.940Z</time>
      </trkpt>
      <trkpt lat="47.589430" lon="8.021956">
        <ele>567.106735</ele>
        <time>2021-11-22T08:48:02.413Z</time>
      </trkpt>
      <trkpt lat="47.589615" lon="8.021880">
        <ele>568.493579</ele>
        <time>2021-11-22T08:48:12.418Z</time>
      </trkpt>
      <trkpt lat="47.589748" lon="8.021891">
        <ele>569.455904</ele>
        <time>2021-11-22T08:48:21.388Z</time>
      </trkpt>
      <trkpt lat="47.590116" lon="8.022103">
        <ele>573.024773</ele>
        <time>2021-11-22T08:48:46.907Z</time>
      </trkpt>
      <trkpt lat="47.590395" lon="8.022117">
        <ele>575.694331</ele>
        <time>2021-11-22T08:49:02.746Z</time>
      </trkpt>
      <trkpt lat="47.590755" lon="8.022031">
        <ele>579.181346</ele>
        <time>2021-11-22T08:49:26.807Z</time>
      </trkpt>
      <trkpt lat="47.591072" lon="8.022076">
        <ele>582.226625</ele>
        <time>2021-11-22T08:49:46.115Z</time>
      </trkpt>
      <trkpt lat="47.591115" lon="8.022129">
        <ele>582.761344</ele>
        <time>2021-11-22T08:49:51.348Z</time>
      </trkpt>
      <trkpt lat="47.591140" lon="8.022229">
        <ele>583.449163</ele>
        <time>2021-11-22T08:49:56.539Z</time>
      </trkpt>
      <trkpt lat="47.591148" lon="8.022322">
        <ele>584.053810</ele>
        <time>2021-11-22T08:49:59.044Z</time>
      </trkpt>
      <trkpt lat="47.591210" lon="8.023119">
        <ele>588.334913</ele>
        <time>2021-11-22T08:50:23.195Z</time>
      </trkpt>
      <trkpt lat="47.591205" lon="8.023265">
        <ele>588.842334</ele>
        <time>2021-11-22T08:50:30.878Z</time>
      </trkpt>
      <trkpt lat="47.591738" lon="8.023957">
        <ele>592.488472</ele>
        <time>2021-11-22T08:51:01.130Z</time>
      </trkpt>
      <trkpt lat="47.592067" lon="8.024331">
        <ele>594.622085</ele>
        <time>2021-11-22T08:51:14.780Z</time>
      </trkpt>
      <trkpt lat="47.592360" lon="8.024239">
        <ele>596.163505</ele>
        <time>2021-11-22T08:51:24.990Z</time>
      </trkpt>
      <trkpt lat="47.592875" lon="8.023855">
        <ele>598.796534</ele>
        <time>2021-11-22T08:51:42.210Z</time>
      </trkpt>
      <trkpt lat="47.593000" lon="8.023757">
        <ele>599.430086</ele>
        <time>2021-11-22T08:51:48.090Z</time>
      </trkpt>
      <trkpt lat="47.594098" lon="8.023267">
        <ele>604.567842</ele>
        <time>2021-11-22T08:52:35.117Z</time>
      </trkpt>
      <trkpt lat="47.594377" lon="8.023068">
        <ele>605.722865</ele>
        <time>2021-11-22T08:52:48.638Z</time>
      </trkpt>
      <trkpt lat="47.594831" lon="8.022718">
        <ele>607.619725</ele>
        <time>2021-11-22T08:53:08.429Z</time>
      </trkpt>
      <trkpt lat="47.595091" lon="8.022990">
        <ele>608.799277</ele>
        <time>2021-11-22T08:53:17.510Z</time>
      </trkpt>
      <trkpt lat="47.595671" lon="8.023213">
        <ele>611.020464</ele>
        <time>2021-11-22T08:53:32.938Z</time>
      </trkpt>
      <trkpt lat="47.596051" lon="8.023223">
        <ele>611.604212</ele>
        <time>2021-11-22T08:53:41.480Z</time>
      </trkpt>
      <trkpt lat="47.596148" lon="8.023345">
        <ele>611.737818</ele>
        <time>2021-11-22T08:53:43.831Z</time>
      </trkpt>
      <trkpt lat="47.596208" lon="8.023630">
        <ele>611.949312</ele>
        <time>2021-11-22T08:53:47.115Z</time>
      </trkpt>
      <trkpt lat="47.596116" lon="8.024152">
        <ele>612.331498</ele>
        <time>2021-11-22T08:53:53.023Z</time>
      </trkpt>
      <trkpt lat="47.596100" lon="8.024844">
        <ele>612.821975</ele>
        <time>2021-11-22T08:54:00.700Z</time>
      </trkpt>
      <trkpt lat="47.596129" lon="8.025134">
        <ele>613.029648</ele>
        <time>2021-11-22T08:54:04.363Z</time>
      </trkpt>
      <trkpt lat="47.596247" lon="8.025584">
        <ele>613.761284</ele>
        <time>2021-11-22T08:54:10.167Z</time>
      </trkpt>
      <trkpt lat="47.596374" lon="8.025833">
        <ele>614.404074</ele>
        <time>2021-11-22T08:54:14.882Z</time>
      </trkpt>
      <trkpt lat="47.596403" lon="8.026009">
        <ele>614.777102</ele>
        <time>2021-11-22T08:54:16.931Z</time>
      </trkpt>
      <trkpt lat="47.596391" lon="8.026066">
        <ele>614.900045</ele>
        <time>2021-11-22T08:54:18.301Z</time>
      </trkpt>
      <trkpt lat="47.596371" lon="8.026127">
        <ele>615.039696</ele>
        <time>2021-11-22T08:54:20.135Z</time>
      </trkpt>
      <trkpt lat="47.596351" lon="8.026188">
        <ele>615.179347</ele>
        <time>2021-11-22T08:54:21.632Z</time>
      </trkpt>
      <trkpt lat="47.596275" lon="8.026313">
        <ele>615.525871</ele>
        <time>2021-11-22T08:54:25.426Z</time>
      </trkpt>
      <trkpt lat="47.596214" lon="8.026449">
        <ele>615.862164</ele>
        <time>2021-11-22T08:54:28.827Z</time>
      </trkpt>
      <trkpt lat="47.596280" lon="8.026505">
        <ele>616.094327</ele>
        <time>2021-11-22T08:54:31.378Z</time>
      </trkpt>
      <trkpt lat="47.596433" lon="8.026770">
        <ele>616.812593</ele>
        <time>2021-11-22T08:54:38.289Z</time>
      </trkpt>
      <trkpt lat="47.596560" lon="8.027658">
        <ele>618.703924</ele>
        <time>2021-11-22T08:54:57.172Z</time>
      </trkpt>
      <trkpt lat="47.596702" lon="8.027901">
        <ele>620.018469</ele>
        <time>2021-11-22T08:55:03.975Z</time>
      </trkpt>
      <trkpt lat="47.596826" lon="8.027986">
        <ele>620.846651</ele>
        <time>2021-11-22T08:55:09.571Z</time>
      </trkpt>
      <trkpt lat="47.596954" lon="8.028045">
        <ele>621.659274</ele>
        <time>2021-11-22T08:55:14.153Z</time>
      </trkpt>
      <trkpt lat="47.597162" lon="8.027954">
        <ele>622.974010</ele>
        <time>2021-11-22T08:55:23.789Z</time>
      </trkpt>
      <trkpt lat="47.597667" lon="8.027380">
        <ele>626.831439</ele>
        <time>2021-11-22T08:55:49.235Z</time>
      </trkpt>
      <trkpt lat="47.597801" lon="8.027317">
        <ele>627.683665</ele>
        <time>2021-11-22T08:55:56.029Z</time>
      </trkpt>
      <trkpt lat="47.597967" lon="8.027239">
        <ele>628.739351</ele>
        <time>2021-11-22T08:56:02.212Z</time>
      </trkpt>
      <trkpt lat="47.598069" lon="8.027222">
        <ele>629.361620</ele>
        <time>2021-11-22T08:56:07.804Z</time>
      </trkpt>
      <trkpt lat="47.598361" lon="8.027263">
        <ele>631.220642</ele>
        <time>2021-11-22T08:56:19.593Z</time>
      </trkpt>
      <trkpt lat="47.598472" lon="8.027302">
        <ele>631.947674</ele>
        <time>2021-11-22T08:56:24.886Z</time>
      </trkpt>
      <trkpt lat="47.598821" lon="8.027385">
        <ele>634.200412</ele>
        <time>2021-11-22T08:56:38.340Z</time>
      </trkpt>
      <trkpt lat="47.599102" lon="8.027378">
        <ele>635.991590</ele>
        <time>2021-11-22T08:56:48.523Z</time>
      </trkpt>
      <trkpt lat="47.599389" lon="8.027316">
        <ele>637.840062</ele>
        <time>2021-11-22T08:56:58.919Z</time>
      </trkpt>
      <trkpt lat="47.599613" lon="8.027185">
        <ele>639.374702</ele>
        <time>2021-11-22T08:57:11.367Z</time>
      </trkpt>
      <trkpt lat="47.599844" lon="8.026999">
        <ele>641.052384</ele>
        <time>2021-11-22T08:57:21.248Z</time>
      </trkpt>
      <trkpt lat="47.600101" lon="8.026650">
        <ele>643.503497</ele>
        <time>2021-11-22T08:57:35.333Z</time>
      </trkpt>
      <trkpt lat="47.600516" lon="8.025753">
        <ele>648.663108</ele>
        <time>2021-11-22T08:58:06.093Z</time>
      </trkpt>
      <trkpt lat="47.600550" lon="8.025678">
        <ele>649.091750</ele>
        <time>2021-11-22T08:58:09.722Z</time>
      </trkpt>
      <trkpt lat="47.600581" lon="8.025609">
        <ele>649.485004</ele>
        <time>2021-11-22T08:58:13.441Z</time>
      </trkpt>
      <trkpt lat="47.601301" lon="8.024297">
        <ele>656.762925</ele>
        <time>2021-11-22T08:59:01.854Z</time>
      </trkpt>
      <trkpt lat="47.601427" lon="8.024003">
        <ele>658.093663</ele>
        <time>2021-11-22T08:59:11.392Z</time>
      </trkpt>
      <trkpt lat="47.601526" lon="8.023755">
        <ele>659.194598</ele>
        <time>2021-11-22T08:59:19.791Z</time>
      </trkpt>
      <trkpt lat="47.601889" lon="8.022433">
        <ele>664.437365</ele>
        <time>2021-11-22T08:59:50.197Z</time>
      </trkpt>
      <trkpt lat="47.602034" lon="8.021886">
        <ele>666.077709</ele>
        <time>2021-11-22T09:00:02.721Z</time>
      </trkpt>
      <trkpt lat="47.602462" lon="8.021174">
        <ele>668.739815</ele>
        <time>2021-11-22T09:00:22.183Z</time>
      </trkpt>
      <trkpt lat="47.602662" lon="8.020843">
        <ele>669.980226</ele>
        <time>2021-11-22T09:00:31.898Z</time>
      </trkpt>
      <trkpt lat="47.603104" lon="8.020091">
        <ele>672.444334</ele>
        <time>2021-11-22T09:00:54.035Z</time>
      </trkpt>
      <trkpt lat="47.603225" lon="8.019699">
        <ele>673.382256</ele>
        <time>2021-11-22T09:01:02.903Z</time>
      </trkpt>
      <trkpt lat="47.603538" lon="8.018606">
        <ele>675.965667</ele>
        <time>2021-11-22T09:01:25.279Z</time>
      </trkpt>
      <trkpt lat="47.603564" lon="8.018549">
        <ele>676.115382</ele>
        <time>2021-11-22T09:01:26.504Z</time>
      </trkpt>
      <trkpt lat="47.603949" lon="8.017906">
        <ele>677.266484</ele>
        <time>2021-11-22T09:01:39.785Z</time>
      </trkpt>
      <trkpt lat="47.604386" lon="8.017343">
        <ele>677.589275</ele>
        <time>2021-11-22T09:01:48.428Z</time>
      </trkpt>
      <trkpt lat="47.604931" lon="8.016761">
        <ele>677.963772</ele>
        <time>2021-11-22T09:01:58.186Z</time>
      </trkpt>
      <trkpt lat="47.605303" lon="8.016420">
        <ele>678.315421</ele>
        <time>2021-11-22T09:02:04.738Z</time>
      </trkpt>
      <trkpt lat="47.605349" lon="8.016390">
        <ele>678.377559</ele>
        <time>2021-11-22T09:02:05.514Z</time>
      </trkpt>
      <trkpt lat="47.605617" lon="8.016217">
        <ele>678.738989</ele>
        <time>2021-11-22T09:02:10.523Z</time>
      </trkpt>
      <trkpt lat="47.605788" lon="8.016160">
        <ele>678.955718</ele>
        <time>2021-11-22T09:02:13.927Z</time>
      </trkpt>
      <trkpt lat="47.607499" lon="8.015932">
        <ele>680.771552</ele>
        <time>2021-11-22T09:02:51.424Z</time>
      </trkpt>
      <trkpt lat="47.607936" lon="8.015773">
        <ele>681.094998</ele>
        <time>2021-11-22T09:03:00.198Z</time>
      </trkpt>
      <trkpt lat="47.607997" lon="8.015736">
        <ele>681.142373</ele>
        <time>2021-11-22T09:03:01.868Z</time>
      </trkpt>
      <trkpt lat="47.608546" lon="8.015408">
        <ele>681.567828</ele>
        <time>2021-11-22T09:03:11.568Z</time>
      </trkpt>
      <trkpt lat="47.608990" lon="8.015226">
        <ele>680.101000</ele>
        <time>2021-11-22T09:03:16.915Z</time>
      </trkpt>
      <trkpt lat="47.609093" lon="8.015216">
        <ele>679.667473</ele>
        <time>2021-11-22T09:03:17.963Z</time>
      </trkpt>
      <trkpt lat="47.609541" lon="8.015211">
        <ele>677.785815</ele>
        <time>2021-11-22T09:03:22.280Z</time>
      </trkpt>
      <trkpt lat="47.609987" lon="8.015356">
        <ele>675.868143</ele>
        <time>2021-11-22T09:03:26.451Z</time>
      </trkpt>
      <trkpt lat="47.610061" lon="8.015390">
        <ele>675.542773</ele>
        <time>2021-11-22T09:03:27.134Z</time>
      </trkpt>
      <trkpt lat="47.610254" lon="8.015477">
        <ele>674.695566</ele>
        <time>2021-11-22T09:03:28.988Z</time>
      </trkpt>
      <trkpt lat="47.611129" lon="8.015861">
        <ele>672.381528</ele>
        <time>2021-11-22T09:03:37.510Z</time>
      </trkpt>
      <trkpt lat="47.611516" lon="8.016031">
        <ele>671.486036</ele>
        <time>2021-11-22T09:03:41.582Z</time>
      </trkpt>
      <trkpt lat="47.611716" lon="8.016114">
        <ele>671.025259</ele>
        <time>2021-11-22T09:03:43.836Z</time>
      </trkpt>
      <trkpt lat="47.613333" lon="8.016808">
        <ele>675.497562</ele>
        <time>2021-11-22T09:04:34.712Z</time>
      </trkpt>
      <trkpt lat="47.613550" lon="8.016884">
        <ele>676.452466</ele>
        <time>2021-11-22T09:04:44.032Z</time>
      </trkpt>
      <trkpt lat="47.613763" lon="8.016931">
        <ele>677.374724</ele>
        <time>2021-11-22T09:04:52.568Z</time>
      </trkpt>
      <trkpt lat="47.614276" lon="8.016874">
        <ele>679.440449</ele>
        <time>2021-11-22T09:05:11.448Z</time>
      </trkpt>
      <trkpt lat="47.614450" lon="8.016786">
        <ele>680.167080</ele>
        <time>2021-11-22T09:05:17.886Z</time>
      </trkpt>
      <trkpt lat="47.614507" lon="8.016749">
        <ele>680.413006</ele>
        <time>2021-11-22T09:05:20.220Z</time>
      </trkpt>
      <trkpt lat="47.614952" lon="8.016327">
        <ele>682.500623</ele>
        <time>2021-11-22T09:05:36.826Z</time>
      </trkpt>
      <trkpt lat="47.615823" lon="8.015017">
        <ele>685.874618</ele>
        <time>2021-11-22T09:06:06.256Z</time>
      </trkpt>
      <trkpt lat="47.616313" lon="8.014507">
        <ele>686.793613</ele>
        <time>2021-11-22T09:06:17.094Z</time>
      </trkpt>
      <trkpt lat="47.616676" lon="8.014297">
        <ele>687.391807</ele>
        <time>2021-11-22T09:06:24.867Z</time>
      </trkpt>
      <trkpt lat="47.617120" lon="8.014238">
        <ele>688.279549</ele>
        <time>2021-11-22T09:06:34.054Z</time>
      </trkpt>
      <trkpt lat="47.617298" lon="8.014271">
        <ele>688.691211</ele>
        <time>2021-11-22T09:06:37.341Z</time>
      </trkpt>
      <trkpt lat="47.617593" lon="8.014382">
        <ele>689.389630</ele>
        <time>2021-11-22T09:06:43.788Z</time>
      </trkpt>
      <trkpt lat="47.617609" lon="8.014390">
        <ele>689.428377</ele>
        <time>2021-11-22T09:06:44.073Z</time>
      </trkpt>
      <trkpt lat="47.617879" lon="8.014526">
        <ele>690.082731</ele>
        <time>2021-11-22T09:06:50.493Z</time>
      </trkpt>
      <trkpt lat="47.618468" lon="8.014944">
        <ele>691.581099</ele>
        <time>2021-11-22T09:07:08.057Z</time>
      </trkpt>
      <trkpt lat="47.619151" lon="8.015995">
        <ele>695.334876</ele>
        <time>2021-11-22T09:07:39.038Z</time>
      </trkpt>
      <trkpt lat="47.619261" lon="8.016064">
        <ele>695.809224</ele>
        <time>2021-11-22T09:07:43.042Z</time>
      </trkpt>
      <trkpt lat="47.619394" lon="8.016117">
        <ele>696.356201</ele>
        <time>2021-11-22T09:07:47.514Z</time>
      </trkpt>
      <trkpt lat="47.619688" lon="8.016135">
        <ele>697.524909</ele>
        <time>2021-11-22T09:07:56.547Z</time>
      </trkpt>
      <trkpt lat="47.620051" lon="8.015912">
        <ele>699.033650</ele>
        <time>2021-11-22T09:08:08.515Z</time>
      </trkpt>
      <trkpt lat="47.620186" lon="8.015747">
        <ele>699.486580</ele>
        <time>2021-11-22T09:08:13.703Z</time>
      </trkpt>
      <trkpt lat="47.620328" lon="8.015989">
        <ele>700.046598</ele>
        <time>2021-11-22T09:08:20.170Z</time>
      </trkpt>
      <trkpt lat="47.620455" lon="8.016265">
        <ele>700.629879</ele>
        <time>2021-11-22T09:08:26.460Z</time>
      </trkpt>
      <trkpt lat="47.620586" lon="8.016714">
        <ele>701.483830</ele>
        <time>2021-11-22T09:08:34.817Z</time>
      </trkpt>
      <trkpt lat="47.620751" lon="8.017244">
        <ele>702.502795</ele>
        <time>2021-11-22T09:08:43.213Z</time>
      </trkpt>
      <trkpt lat="47.621349" lon="8.019187">
        <ele>705.778935</ele>
        <time>2021-11-22T09:09:14.090Z</time>
      </trkpt>
      <trkpt lat="47.621390" lon="8.019390">
        <ele>706.085409</ele>
        <time>2021-11-22T09:09:17.534Z</time>
      </trkpt>
      <trkpt lat="47.621403" lon="8.019573">
        <ele>706.351529</ele>
        <time>2021-11-22T09:09:20.385Z</time>
      </trkpt>
      <trkpt lat="47.621413" lon="8.020151">
        <ele>707.187705</ele>
        <time>2021-11-22T09:09:29.540Z</time>
      </trkpt>
      <trkpt lat="47.621418" lon="8.020418">
        <ele>707.719742</ele>
        <time>2021-11-22T09:09:34.724Z</time>
      </trkpt>
      <trkpt lat="47.621415" lon="8.020855">
        <ele>709.115871</ele>
        <time>2021-11-22T09:09:43.087Z</time>
      </trkpt>
      <trkpt lat="47.621400" lon="8.021174">
        <ele>710.137437</ele>
        <time>2021-11-22T09:09:50.542Z</time>
      </trkpt>
      <trkpt lat="47.621339" lon="8.021559">
        <ele>711.400897</ele>
        <time>2021-11-22T09:09:59.737Z</time>
      </trkpt>
      <trkpt lat="47.621234" lon="8.022131">
        <ele>713.294789</ele>
        <time>2021-11-22T09:10:13.718Z</time>
      </trkpt>
      <trkpt lat="47.621178" lon="8.022415">
        <ele>714.240096</ele>
        <time>2021-11-22T09:10:20.255Z</time>
      </trkpt>
      <trkpt lat="47.621155" lon="8.022607">
        <ele>714.863081</ele>
        <time>2021-11-22T09:10:26.114Z</time>
      </trkpt>
      <trkpt lat="47.621131" lon="8.023509">
        <ele>718.580441</ele>
        <time>2021-11-22T09:10:48.864Z</time>
      </trkpt>
      <trkpt lat="47.621327" lon="8.024700">
        <ele>724.342948</ele>
        <time>2021-11-22T09:11:23.173Z</time>
      </trkpt>
      <trkpt lat="47.621268" lon="8.025053">
        <ele>726.052405</ele>
        <time>2021-11-22T09:11:32.815Z</time>
      </trkpt>
      <trkpt lat="47.621054" lon="8.025784">
        <ele>730.266257</ele>
        <time>2021-11-22T09:12:00.368Z</time>
      </trkpt>
      <trkpt lat="47.621015" lon="8.026497">
        <ele>734.860107</ele>
        <time>2021-11-22T09:12:25.735Z</time>
      </trkpt>
      <trkpt lat="47.621074" lon="8.027044">
        <ele>738.417566</ele>
        <time>2021-11-22T09:12:45.611Z</time>
      </trkpt>
      <trkpt lat="47.621153" lon="8.027276">
        <ele>740.086771</ele>
        <time>2021-11-22T09:12:53.819Z</time>
      </trkpt>
      <trkpt lat="47.621202" lon="8.027392">
        <ele>740.965906</ele>
        <time>2021-11-22T09:13:01.374Z</time>
      </trkpt>
      <trkpt lat="47.621486" lon="8.027887">
        <ele>745.140394</ele>
        <time>2021-11-22T09:13:24.714Z</time>
      </trkpt>
      <trkpt lat="47.621660" lon="8.028299">
        <ele>747.860559</ele>
        <time>2021-11-22T09:13:43.054Z</time>
      </trkpt>
      <trkpt lat="47.621701" lon="8.028543">
        <ele>749.226162</ele>
        <time>2021-11-22T09:13:50.782Z</time>
      </trkpt>
      <trkpt lat="47.621668" lon="8.028864">
        <ele>750.989519</ele>
        <time>2021-11-22T09:14:03.704Z</time>
      </trkpt>
      <trkpt lat="47.621427" lon="8.029472">
        <ele>754.819911</ele>
        <time>2021-11-22T09:14:28.624Z</time>
      </trkpt>
      <trkpt lat="47.621272" lon="8.030058">
        <ele>758.238481</ele>
        <time>2021-11-22T09:14:45.475Z</time>
      </trkpt>
      <trkpt lat="47.621181" lon="8.030963">
        <ele>761.044049</ele>
        <time>2021-11-22T09:15:06.200Z</time>
      </trkpt>
      <trkpt lat="47.621187" lon="8.031301">
        <ele>761.581284</ele>
        <time>2021-11-22T09:15:13.037Z</time>
      </trkpt>
      <trkpt lat="47.621208" lon="8.031497">
        <ele>761.896618</ele>
        <time>2021-11-22T09:15:16.172Z</time>
      </trkpt>
      <trkpt lat="47.621242" lon="8.031732">
        <ele>762.278514</ele>
        <time>2021-11-22T09:15:20.271Z</time>
      </trkpt>
      <trkpt lat="47.621283" lon="8.031958">
        <ele>762.650384</ele>
        <time>2021-11-22T09:15:23.512Z</time>
      </trkpt>
      <trkpt lat="47.621424" lon="8.032671">
        <ele>763.831019</ele>
        <time>2021-11-22T09:15:32.649Z</time>
      </trkpt>
      <trkpt lat="47.621459" lon="8.033020">
        <ele>764.390370</ele>
        <time>2021-11-22T09:15:36.081Z</time>
      </trkpt>
      <trkpt lat="47.621518" lon="8.033887">
        <ele>765.049186</ele>
        <time>2021-11-22T09:15:44.648Z</time>
      </trkpt>
      <trkpt lat="47.621602" lon="8.034723">
        <ele>765.688215</ele>
        <time>2021-11-22T09:15:55.525Z</time>
      </trkpt>
      <trkpt lat="47.621739" lon="8.035537">
        <ele>766.322522</ele>
        <time>2021-11-22T09:16:07.564Z</time>
      </trkpt>
      <trkpt lat="47.621800" lon="8.035504">
        <ele>766.395351</ele>
        <time>2021-11-22T09:16:09.362Z</time>
      </trkpt>
      <trkpt lat="47.621839" lon="8.035483">
        <ele>766.546130</ele>
        <time>2021-11-22T09:16:10.649Z</time>
      </trkpt>
      <trkpt lat="47.621895" lon="8.035427">
        <ele>766.846287</ele>
        <time>2021-11-22T09:16:11.901Z</time>
      </trkpt>
      <trkpt lat="47.621969" lon="8.035336">
        <ele>767.273478</ele>
        <time>2021-11-22T09:16:14.159Z</time>
      </trkpt>
      <trkpt lat="47.622096" lon="8.035332">
        <ele>767.838069</ele>
        <time>2021-11-22T09:16:17.817Z</time>
      </trkpt>
      <trkpt lat="47.622386" lon="8.035423">
        <ele>769.155515</ele>
        <time>2021-11-22T09:16:25.699Z</time>
      </trkpt>
      <trkpt lat="47.622869" lon="8.035745">
        <ele>771.509017</ele>
        <time>2021-11-22T09:16:43.619Z</time>
      </trkpt>
      <trkpt lat="47.623318" lon="8.036520">
        <ele>774.611167</ele>
        <time>2021-11-22T09:17:11.348Z</time>
      </trkpt>
      <trkpt lat="47.623403" lon="8.036595">
        <ele>775.156194</ele>
        <time>2021-11-22T09:17:14.699Z</time>
      </trkpt>
      <trkpt lat="47.623595" lon="8.036595">
        <ele>776.214334</ele>
        <time>2021-11-22T09:17:22.031Z</time>
      </trkpt>
      <trkpt lat="47.623756" lon="8.036342">
        <ele>777.506795</ele>
        <time>2021-11-22T09:17:30.434Z</time>
      </trkpt>
      <trkpt lat="47.623843" lon="8.036111">
        <ele>778.489717</ele>
        <time>2021-11-22T09:17:37.672Z</time>
      </trkpt>
      <trkpt lat="47.623966" lon="8.035861">
        <ele>779.639432</ele>
        <time>2021-11-22T09:17:44.950Z</time>
      </trkpt>
      <trkpt lat="47.624178" lon="8.035535">
        <ele>781.322106</ele>
        <time>2021-11-22T09:17:56.201Z</time>
      </trkpt>
      <trkpt lat="47.624637" lon="8.034880">
        <ele>784.696538</ele>
        <time>2021-11-22T09:18:19.577Z</time>
      </trkpt>
      <trkpt lat="47.625181" lon="8.033903">
        <ele>788.174946</ele>
        <time>2021-11-22T09:18:48.029Z</time>
      </trkpt>
      <trkpt lat="47.625662" lon="8.032528">
        <ele>792.235235</ele>
        <time>2021-11-22T09:19:17.124Z</time>
      </trkpt>
      <trkpt lat="47.625665" lon="8.032516">
        <ele>792.261820</ele>
        <time>2021-11-22T09:19:17.525Z</time>
      </trkpt>
      <trkpt lat="47.625752" lon="8.032184">
        <ele>793.001712</ele>
        <time>2021-11-22T09:19:23.684Z</time>
      </trkpt>
      <trkpt lat="47.625909" lon="8.031070">
        <ele>795.365656</ele>
        <time>2021-11-22T09:19:44.863Z</time>
      </trkpt>
      <trkpt lat="47.626015" lon="8.029714">
        <ele>798.102572</ele>
        <time>2021-11-22T09:20:09.096Z</time>
      </trkpt>
      <trkpt lat="47.626062" lon="8.029503">
        <ele>798.519549</ele>
        <time>2021-11-22T09:20:13.062Z</time>
      </trkpt>
      <trkpt lat="47.626144" lon="8.029180">
        <ele>799.167187</ele>
        <time>2021-11-22T09:20:19.248Z</time>
      </trkpt>
      <trkpt lat="47.626471" lon="8.028423">
        <ele>800.854302</ele>
        <time>2021-11-22T09:20:35.049Z</time>
      </trkpt>
      <trkpt lat="47.627024" lon="8.027948">
        <ele>802.514074</ele>
        <time>2021-11-22T09:20:51.385Z</time>
      </trkpt>
      <trkpt lat="47.627092" lon="8.027815">
        <ele>802.743231</ele>
        <time>2021-11-22T09:20:54.488Z</time>
      </trkpt>
      <trkpt lat="47.627459" lon="8.027072">
        <ele>804.007724</ele>
        <time>2021-11-22T09:21:08.467Z</time>
      </trkpt>
      <trkpt lat="47.627933" lon="8.026393">
        <ele>805.349644</ele>
        <time>2021-11-22T09:21:23.361Z</time>
      </trkpt>
      <trkpt lat="47.628621" lon="8.025193">
        <ele>807.489947</ele>
        <time>2021-11-22T09:21:45.818Z</time>
      </trkpt>
      <trkpt lat="47.629730" lon="8.023556">
        <ele>811.955418</ele>
        <time>2021-11-22T09:22:23.252Z</time>
      </trkpt>
      <trkpt lat="47.629855" lon="8.023421">
        <ele>812.618246</ele>
        <time>2021-11-22T09:22:28.129Z</time>
      </trkpt>
      <trkpt lat="47.630151" lon="8.023101">
        <ele>814.188364</ele>
        <time>2021-11-22T09:22:40.331Z</time>
      </trkpt>
      <trkpt lat="47.630575" lon="8.022696">
        <ele>816.350229</ele>
        <time>2021-11-22T09:22:58.344Z</time>
      </trkpt>
      <trkpt lat="47.630871" lon="8.022367">
        <ele>818.489584</ele>
        <time>2021-11-22T09:23:14.133Z</time>
      </trkpt>
      <trkpt lat="47.631045" lon="8.021856">
        <ele>821.352801</ele>
        <time>2021-11-22T09:23:29.498Z</time>
      </trkpt>
      <trkpt lat="47.631199" lon="8.021557">
        <ele>823.234817</ele>
        <time>2021-11-22T09:23:38.604Z</time>
      </trkpt>
      <trkpt lat="47.631791" lon="8.020888">
        <ele>828.756928</ele>
        <time>2021-11-22T09:24:15.665Z</time>
      </trkpt>
      <trkpt lat="47.631812" lon="8.020823">
        <ele>829.117415</ele>
        <time>2021-11-22T09:24:20.602Z</time>
      </trkpt>
      <trkpt lat="47.631911" lon="8.020538">
        <ele>830.732472</ele>
        <time>2021-11-22T09:24:26.699Z</time>
      </trkpt>
      <trkpt lat="47.632121" lon="8.020405">
        <ele>832.527482</ele>
        <time>2021-11-22T09:24:40.712Z</time>
      </trkpt>
      <trkpt lat="47.632672" lon="8.020161">
        <ele>837.047981</ele>
        <time>2021-11-22T09:25:06.871Z</time>
      </trkpt>
      <trkpt lat="47.632993" lon="8.020133">
        <ele>839.575907</ele>
        <time>2021-11-22T09:25:22.099Z</time>
      </trkpt>
      <trkpt lat="47.633881" lon="8.020216">
        <ele>845.544947</ele>
        <time>2021-11-22T09:26:03.223Z</time>
      </trkpt>
      <trkpt lat="47.634199" lon="8.020336">
        <ele>846.735220</ele>
        <time>2021-11-22T09:26:14.666Z</time>
      </trkpt>
      <trkpt lat="47.634527" lon="8.020460">
        <ele>847.963059</ele>
        <time>2021-11-22T09:26:24.931Z</time>
      </trkpt>
      <trkpt lat="47.635655" lon="8.020130">
        <ele>851.294168</ele>
        <time>2021-11-22T09:26:50.005Z</time>
      </trkpt>
      <trkpt lat="47.636612" lon="8.020110">
        <ele>851.675183</ele>
        <time>2021-11-22T09:27:02.613Z</time>
      </trkpt>
      <trkpt lat="47.636951" lon="8.020194">
        <ele>851.812005</ele>
        <time>2021-11-22T09:27:08.203Z</time>
      </trkpt>
      <trkpt lat="47.638017" lon="8.020680">
        <ele>853.390158</ele>
        <time>2021-11-22T09:27:29.918Z</time>
      </trkpt>
      <trkpt lat="47.638217" lon="8.020729">
        <ele>853.732933</ele>
        <time>2021-11-22T09:27:34.733Z</time>
      </trkpt>
      <trkpt lat="47.638589" lon="8.020822">
        <ele>854.370841</ele>
        <time>2021-11-22T09:27:43.530Z</time>
      </trkpt>
      <trkpt lat="47.638879" lon="8.020839">
        <ele>854.861609</ele>
        <time>2021-11-22T09:27:50.537Z</time>
      </trkpt>
      <trkpt lat="47.640449" lon="8.020635">
        <ele>858.791241</ele>
        <time>2021-11-22T09:28:30.535Z</time>
      </trkpt>
      <trkpt lat="47.640905" lon="8.020708">
        <ele>859.803269</ele>
        <time>2021-11-22T09:28:41.690Z</time>
      </trkpt>
      <trkpt lat="47.641659" lon="8.020956">
        <ele>861.148291</ele>
        <time>2021-11-22T09:28:59.550Z</time>
      </trkpt>
      <trkpt lat="47.642591" lon="8.021203">
        <ele>862.761239</ele>
        <time>2021-11-22T09:29:18.226Z</time>
      </trkpt>
      <trkpt lat="47.642776" lon="8.021243">
        <ele>863.023051</ele>
        <time>2021-11-22T09:29:22.071Z</time>
      </trkpt>
      <trkpt lat="47.642903" lon="8.021271">
        <ele>863.202855</ele>
        <time>2021-11-22T09:29:24.577Z</time>
      </trkpt>
      <trkpt lat="47.643038" lon="8.021286">
        <ele>863.392440</ele>
        <time>2021-11-22T09:29:27.122Z</time>
      </trkpt>
      <trkpt lat="47.643353" lon="8.021179">
        <ele>863.844976</ele>
        <time>2021-11-22T09:29:33.347Z</time>
      </trkpt>
      <trkpt lat="47.643502" lon="8.021159">
        <ele>864.054489</ele>
        <time>2021-11-22T09:29:36.442Z</time>
      </trkpt>
      <trkpt lat="47.643877" lon="8.021077">
        <ele>864.585313</ele>
        <time>2021-11-22T09:29:44.342Z</time>
      </trkpt>
      <trkpt lat="47.644076" lon="8.020964">
        <ele>864.883694</ele>
        <time>2021-11-22T09:29:48.806Z</time>
      </trkpt>
      <trkpt lat="47.644214" lon="8.020840">
        <ele>865.109606</ele>
        <time>2021-11-22T09:29:52.472Z</time>
      </trkpt>
      <trkpt lat="47.644608" lon="8.020567">
        <ele>866.044084</ele>
        <time>2021-11-22T09:30:01.724Z</time>
      </trkpt>
      <trkpt lat="47.644824" lon="8.020484">
        <ele>866.530205</ele>
        <time>2021-11-22T09:30:06.603Z</time>
      </trkpt>
      <trkpt lat="47.645147" lon="8.020353">
        <ele>867.259734</ele>
        <time>2021-11-22T09:30:14.686Z</time>
      </trkpt>
      <trkpt lat="47.645363" lon="8.020332">
        <ele>867.731349</ele>
        <time>2021-11-22T09:30:20.208Z</time>
      </trkpt>
      <trkpt lat="47.645511" lon="8.020296">
        <ele>868.058103</ele>
        <time>2021-11-22T09:30:23.982Z</time>
      </trkpt>
      <trkpt lat="47.646257" lon="8.020163">
        <ele>869.483002</ele>
        <time>2021-11-22T09:30:42.751Z</time>
      </trkpt>
      <trkpt lat="47.646357" lon="8.020178">
        <ele>869.629811</ele>
        <time>2021-11-22T09:30:45.236Z</time>
      </trkpt>
      <trkpt lat="47.646466" lon="8.020194">
        <ele>869.789799</ele>
        <time>2021-11-22T09:30:48.080Z</time>
      </trkpt>
      <trkpt lat="47.646754" lon="8.020291">
        <ele>870.221161</ele>
        <time>2021-11-22T09:30:54.735Z</time>
      </trkpt>
      <trkpt lat="47.646808" lon="8.020323">
        <ele>870.306090</ele>
        <time>2021-11-22T09:30:56.085Z</time>
      </trkpt>
      <trkpt lat="47.646911" lon="8.020350">
        <ele>870.458865</ele>
        <time>2021-11-22T09:30:58.331Z</time>
      </trkpt>
      <trkpt lat="47.647019" lon="8.020369">
        <ele>870.617720</ele>
        <time>2021-11-22T09:31:00.267Z</time>
      </trkpt>
      <trkpt lat="47.647184" lon="8.020369">
        <ele>870.858728</ele>
        <time>2021-11-22T09:31:03.540Z</time>
      </trkpt>
      <trkpt lat="47.647594" lon="8.020318">
        <ele>871.459695</ele>
        <time>2021-11-22T09:31:10.815Z</time>
      </trkpt>
      <trkpt lat="47.648534" lon="8.020126">
        <ele>871.390895</ele>
        <time>2021-11-22T09:31:24.900Z</time>
      </trkpt>
      <trkpt lat="47.648678" lon="8.020079">
        <ele>871.337775</ele>
        <time>2021-11-22T09:31:26.816Z</time>
      </trkpt>
      <trkpt lat="47.649206" lon="8.019996">
        <ele>871.146483</ele>
        <time>2021-11-22T09:31:33.244Z</time>
      </trkpt>
      <trkpt lat="47.650715" lon="8.019808">
        <ele>871.256592</ele>
        <time>2021-11-22T09:31:52.757Z</time>
      </trkpt>
      <trkpt lat="47.651019" lon="8.019926">
        <ele>871.316089</ele>
        <time>2021-11-22T09:31:59.030Z</time>
      </trkpt>
      <trkpt lat="47.651288" lon="8.020213">
        <ele>871.521012</ele>
        <time>2021-11-22T09:32:06.111Z</time>
      </trkpt>
      <trkpt lat="47.651545" lon="8.020562">
        <ele>872.831232</ele>
        <time>2021-11-22T09:32:14.568Z</time>
      </trkpt>
      <trkpt lat="47.651675" lon="8.020757">
        <ele>873.526424</ele>
        <time>2021-11-22T09:32:19.402Z</time>
      </trkpt>
      <trkpt lat="47.651765" lon="8.020917">
        <ele>874.054621</ele>
        <time>2021-11-22T09:32:23.520Z</time>
      </trkpt>
      <trkpt lat="47.652110" lon="8.021933">
        <ele>876.937716</ele>
        <time>2021-11-22T09:32:47.839Z</time>
      </trkpt>
      <trkpt lat="47.652334" lon="8.023061">
        <ele>880.591479</ele>
        <time>2021-11-22T09:33:17.090Z</time>
      </trkpt>
      <trkpt lat="47.652441" lon="8.024016">
        <ele>883.973071</ele>
        <time>2021-11-22T09:33:43.019Z</time>
      </trkpt>
      <trkpt lat="47.652695" lon="8.024582">
        <ele>886.348611</ele>
        <time>2021-11-22T09:33:58.950Z</time>
      </trkpt>
      <trkpt lat="47.652821" lon="8.024724">
        <ele>887.168899</ele>
        <time>2021-11-22T09:34:04.096Z</time>
      </trkpt>
      <trkpt lat="47.652952" lon="8.024870">
        <ele>887.634052</ele>
        <time>2021-11-22T09:34:08.434Z</time>
      </trkpt>
      <trkpt lat="47.653010" lon="8.024936">
        <ele>887.750501</ele>
        <time>2021-11-22T09:34:11.148Z</time>
      </trkpt>
      <trkpt lat="47.653377" lon="8.025238">
        <ele>888.419136</ele>
        <time>2021-11-22T09:34:22.630Z</time>
      </trkpt>
      <trkpt lat="47.653481" lon="8.025311">
        <ele>888.602447</ele>
        <time>2021-11-22T09:34:24.213Z</time>
      </trkpt>
      <trkpt lat="47.653690" lon="8.025488">
        <ele>888.985861</ele>
        <time>2021-11-22T09:34:30.539Z</time>
      </trkpt>
      <trkpt lat="47.653783" lon="8.025584">
        <ele>889.166357</ele>
        <time>2021-11-22T09:34:31.884Z</time>
      </trkpt>
      <trkpt lat="47.654246" lon="8.026125">
        <ele>890.105246</ele>
        <time>2021-11-22T09:34:42.855Z</time>
      </trkpt>
      <trkpt lat="47.654931" lon="8.026743">
        <ele>889.719078</ele>
        <time>2021-11-22T09:34:52.118Z</time>
      </trkpt>
      <trkpt lat="47.655366" lon="8.027144">
        <ele>889.245909</ele>
        <time>2021-11-22T09:34:58.146Z</time>
      </trkpt>
      <trkpt lat="47.655466" lon="8.027240">
        <ele>889.135864</ele>
        <time>2021-11-22T09:34:59.648Z</time>
      </trkpt>
      <trkpt lat="47.656028" lon="8.027930">
        <ele>888.632223</ele>
        <time>2021-11-22T09:35:08.926Z</time>
      </trkpt>
      <trkpt lat="47.656335" lon="8.028180">
        <ele>888.576621</ele>
        <time>2021-11-22T09:35:13.674Z</time>
      </trkpt>
      <trkpt lat="47.656561" lon="8.028271">
        <ele>888.539437</ele>
        <time>2021-11-22T09:35:16.925Z</time>
      </trkpt>
      <trkpt lat="47.656841" lon="8.028346">
        <ele>888.494256</ele>
        <time>2021-11-22T09:35:21.138Z</time>
      </trkpt>
      <trkpt lat="47.656917" lon="8.028363">
        <ele>888.482051</ele>
        <time>2021-11-22T09:35:22.219Z</time>
      </trkpt>
      <trkpt lat="47.657505" lon="8.028419">
        <ele>888.388488</ele>
        <time>2021-11-22T09:35:31.285Z</time>
      </trkpt>
      <trkpt lat="47.658704" lon="8.028784">
        <ele>888.879369</ele>
        <time>2021-11-22T09:35:51.461Z</time>
      </trkpt>
      <trkpt lat="47.658895" lon="8.028930">
        <ele>888.969722</ele>
        <time>2021-11-22T09:35:54.649Z</time>
      </trkpt>
      <trkpt lat="47.658952" lon="8.028997">
        <ele>889.000299</ele>
        <time>2021-11-22T09:35:56.844Z</time>
      </trkpt>
      <trkpt lat="47.659262" lon="8.028895">
        <ele>889.133843</ele>
        <time>2021-11-22T09:36:01.816Z</time>
      </trkpt>
      <trkpt lat="47.659385" lon="8.028852">
        <ele>889.081325</ele>
        <time>2021-11-22T09:36:04.363Z</time>
      </trkpt>
      <trkpt lat="47.659698" lon="8.028730">
        <ele>888.921334</ele>
        <time>2021-11-22T09:36:09.751Z</time>
      </trkpt>
      <trkpt lat="47.660275" lon="8.028464">
        <ele>888.622630</ele>
        <time>2021-11-22T09:36:17.594Z</time>
      </trkpt>
      <trkpt lat="47.660281" lon="8.028754">
        <ele>888.526017</ele>
        <time>2021-11-22T09:36:20.225Z</time>
      </trkpt>
      <trkpt lat="47.660363" lon="8.029257">
        <ele>888.353686</ele>
        <time>2021-11-22T09:36:24.435Z</time>
      </trkpt>
      <trkpt lat="47.660555" lon="8.029987">
        <ele>887.896794</ele>
        <time>2021-11-22T09:36:30.703Z</time>
      </trkpt>
      <trkpt lat="47.660640" lon="8.030360">
        <ele>887.601453</ele>
        <time>2021-11-22T09:36:33.590Z</time>
      </trkpt>
      <trkpt lat="47.660771" lon="8.031434">
        <ele>886.782819</ele>
        <time>2021-11-22T09:36:41.797Z</time>
      </trkpt>
      <trkpt lat="47.660779" lon="8.031884">
        <ele>886.445189</ele>
        <time>2021-11-22T09:36:45.802Z</time>
      </trkpt>
      <trkpt lat="47.660722" lon="8.032994">
        <ele>887.039502</ele>
        <time>2021-11-22T09:36:57.839Z</time>
      </trkpt>
      <trkpt lat="47.660712" lon="8.033348">
        <ele>887.370985</ele>
        <time>2021-11-22T09:37:02.930Z</time>
      </trkpt>
      <trkpt lat="47.660704" lon="8.033736">
        <ele>887.734157</ele>
        <time>2021-11-22T09:37:08.769Z</time>
      </trkpt>
      <trkpt lat="47.660720" lon="8.034012">
        <ele>887.993330</ele>
        <time>2021-11-22T09:37:13.384Z</time>
      </trkpt>
      <trkpt lat="47.660815" lon="8.035030">
        <ele>888.802420</ele>
        <time>2021-11-22T09:37:30.839Z</time>
      </trkpt>
      <trkpt lat="47.660862" lon="8.035538">
        <ele>888.934245</ele>
        <time>2021-11-22T09:37:38.317Z</time>
      </trkpt>
      <trkpt lat="47.660914" lon="8.035843">
        <ele>889.015129</ele>
        <time>2021-11-22T09:37:41.941Z</time>
      </trkpt>
      <trkpt lat="47.660975" lon="8.036110">
        <ele>889.087612</ele>
        <time>2021-11-22T09:37:45.718Z</time>
      </trkpt>
      <trkpt lat="47.661241" lon="8.036936">
        <ele>889.322988</ele>
        <time>2021-11-22T09:37:54.195Z</time>
      </trkpt>
      <trkpt lat="47.661341" lon="8.037223">
        <ele>889.406060</ele>
        <time>2021-11-22T09:37:56.750Z</time>
      </trkpt>
      <trkpt lat="47.661582" lon="8.037913">
        <ele>888.452005</ele>
        <time>2021-11-22T09:38:02.601Z</time>
      </trkpt>
      <trkpt lat="47.661689" lon="8.038216">
        <ele>887.958916</ele>
        <time>2021-11-22T09:38:04.953Z</time>
      </trkpt>
      <trkpt lat="47.661789" lon="8.038453">
        <ele>887.555842</ele>
        <time>2021-11-22T09:38:06.944Z</time>
      </trkpt>
      <trkpt lat="47.661891" lon="8.038641">
        <ele>887.207905</ele>
        <time>2021-11-22T09:38:08.578Z</time>
      </trkpt>
      <trkpt lat="47.662271" lon="8.039086">
        <ele>886.172247</ele>
        <time>2021-11-22T09:38:13.615Z</time>
      </trkpt>
      <trkpt lat="47.662539" lon="8.039274">
        <ele>885.558314</ele>
        <time>2021-11-22T09:38:16.924Z</time>
      </trkpt>
      <trkpt lat="47.662607" lon="8.039318">
        <ele>885.472541</ele>
        <time>2021-11-22T09:38:17.789Z</time>
      </trkpt>
      <trkpt lat="47.662994" lon="8.039590">
        <ele>884.977435</ele>
        <time>2021-11-22T09:38:23.097Z</time>
      </trkpt>
      <trkpt lat="47.663165" lon="8.039787">
        <ele>884.727163</ele>
        <time>2021-11-22T09:38:25.631Z</time>
      </trkpt>
      <trkpt lat="47.663346" lon="8.040076">
        <ele>884.419819</ele>
        <time>2021-11-22T09:38:29.012Z</time>
      </trkpt>
      <trkpt lat="47.663389" lon="8.040182">
        <ele>884.323451</ele>
        <time>2021-11-22T09:38:30.037Z</time>
      </trkpt>
      <trkpt lat="47.663465" lon="8.040394">
        <ele>884.136418</ele>
        <time>2021-11-22T09:38:32.153Z</time>
      </trkpt>
      <trkpt lat="47.663604" lon="8.040960">
        <ele>883.667242</ele>
        <time>2021-11-22T09:38:37.321Z</time>
      </trkpt>
      <trkpt lat="47.663626" lon="8.041348">
        <ele>883.177006</ele>
        <time>2021-11-22T09:38:40.675Z</time>
      </trkpt>
      <trkpt lat="47.663632" lon="8.041681">
        <ele>882.567046</ele>
        <time>2021-11-22T09:38:43.144Z</time>
      </trkpt>
      <trkpt lat="47.663654" lon="8.042301">
        <ele>881.430216</ele>
        <time>2021-11-22T09:38:47.794Z</time>
      </trkpt>
      <trkpt lat="47.663729" lon="8.042678">
        <ele>880.710422</ele>
        <time>2021-11-22T09:38:50.592Z</time>
      </trkpt>
      <trkpt lat="47.663905" lon="8.043336">
        <ele>879.414047</ele>
        <time>2021-11-22T09:38:55.429Z</time>
      </trkpt>
      <trkpt lat="47.663981" lon="8.043746">
        <ele>878.635401</ele>
        <time>2021-11-22T09:38:58.137Z</time>
      </trkpt>
      <trkpt lat="47.664042" lon="8.044519">
        <ele>876.633157</ele>
        <time>2021-11-22T09:39:03.091Z</time>
      </trkpt>
      <trkpt lat="47.664016" lon="8.045043">
        <ele>875.275020</ele>
        <time>2021-11-22T09:39:06.438Z</time>
      </trkpt>
      <trkpt lat="47.663939" lon="8.046061">
        <ele>872.627087</ele>
        <time>2021-11-22T09:39:13.127Z</time>
      </trkpt>
      <trkpt lat="47.663895" lon="8.046633">
        <ele>871.868644</ele>
        <time>2021-11-22T09:39:17.448Z</time>
      </trkpt>
      <trkpt lat="47.663810" lon="8.047427">
        <ele>872.450959</ele>
        <time>2021-11-22T09:39:25.031Z</time>
      </trkpt>
      <trkpt lat="47.663756" lon="8.047691">
        <ele>872.650799</ele>
        <time>2021-11-22T09:39:27.610Z</time>
      </trkpt>
      <trkpt lat="47.663806" lon="8.047709">
        <ele>872.706130</ele>
        <time>2021-11-22T09:39:28.837Z</time>
      </trkpt>
      <trkpt lat="47.663946" lon="8.047621">
        <ele>872.869630</ele>
        <time>2021-11-22T09:39:32.187Z</time>
      </trkpt>
      <trkpt lat="47.664000" lon="8.047530">
        <ele>872.957477</ele>
        <time>2021-11-22T09:39:33.900Z</time>
      </trkpt>
      <trkpt lat="47.664224" lon="8.047131">
        <ele>873.333711</ele>
        <time>2021-11-22T09:39:43.319Z</time>
      </trkpt>
      <trkpt lat="47.664354" lon="8.046968">
        <ele>873.516700</ele>
        <time>2021-11-22T09:39:48.171Z</time>
      </trkpt>
      <trkpt lat="47.664403" lon="8.046911">
        <ele>873.583644</ele>
        <time>2021-11-22T09:39:50.452Z</time>
      </trkpt>
      <trkpt lat="47.664966" lon="8.046372">
        <ele>876.673219</ele>
        <time>2021-11-22T09:40:11.559Z</time>
      </trkpt>
      <trkpt lat="47.665093" lon="8.046323">
        <ele>877.320308</ele>
        <time>2021-11-22T09:40:16.616Z</time>
      </trkpt>
      <trkpt lat="47.665181" lon="8.046289">
        <ele>877.768724</ele>
        <time>2021-11-22T09:40:19.428Z</time>
      </trkpt>
      <trkpt lat="47.665211" lon="8.046289">
        <ele>877.916667</ele>
        <time>2021-11-22T09:40:20.426Z</time>
      </trkpt>
      <trkpt lat="47.665840" lon="8.046282">
        <ele>881.018623</ele>
        <time>2021-11-22T09:40:43.865Z</time>
      </trkpt>
      <trkpt lat="47.665959" lon="8.046286">
        <ele>881.605613</ele>
        <time>2021-11-22T09:40:47.731Z</time>
      </trkpt>
      <trkpt lat="47.666325" lon="8.046285">
        <ele>883.708686</ele>
        <time>2021-11-22T09:41:01.209Z</time>
      </trkpt>
      <trkpt lat="47.666524" lon="8.046284">
        <ele>885.016130</ele>
        <time>2021-11-22T09:41:08.794Z</time>
      </trkpt>
      <trkpt lat="47.666524" lon="8.046284">
        <ele>885.016130</ele>
        <time>2021-11-22T09:41:08.882Z</time>
      </trkpt>
      <trkpt lat="47.666795" lon="8.046220">
        <ele>886.818987</ele>
        <time>2021-11-22T09:41:19.602Z</time>
      </trkpt>
      <trkpt lat="47.666861" lon="8.046204">
        <ele>887.258350</ele>
        <time>2021-11-22T09:41:22.614Z</time>
      </trkpt>
      <trkpt lat="47.667152" lon="8.046097">
        <ele>889.227973</ele>
        <time>2021-11-22T09:41:34.539Z</time>
      </trkpt>
      <trkpt lat="47.667301" lon="8.046004">
        <ele>890.289871</ele>
        <time>2021-11-22T09:41:41.810Z</time>
      </trkpt>
      <trkpt lat="47.667550" lon="8.045756">
        <ele>892.259719</ele>
        <time>2021-11-22T09:41:54.629Z</time>
      </trkpt>
      <trkpt lat="47.667881" lon="8.045298">
        <ele>895.273022</ele>
        <time>2021-11-22T09:42:14.429Z</time>
      </trkpt>
      <trkpt lat="47.667928" lon="8.045198">
        <ele>895.837001</ele>
        <time>2021-11-22T09:42:18.794Z</time>
      </trkpt>
      <trkpt lat="47.668040" lon="8.044989">
        <ele>897.072274</ele>
        <time>2021-11-22T09:42:26.403Z</time>
      </trkpt>
      <trkpt lat="47.668196" lon="8.044756">
        <ele>898.591792</ele>
        <time>2021-11-22T09:42:36.356Z</time>
      </trkpt>
      <trkpt lat="47.668328" lon="8.044616">
        <ele>899.705789</ele>
        <time>2021-11-22T09:42:43.135Z</time>
      </trkpt>
      <trkpt lat="47.668534" lon="8.044400">
        <ele>901.437644</ele>
        <time>2021-11-22T09:42:53.948Z</time>
      </trkpt>
      <trkpt lat="47.668659" lon="8.044268">
        <ele>902.491018</ele>
        <time>2021-11-22T09:42:59.515Z</time>
      </trkpt>
      <trkpt lat="47.668781" lon="8.044146">
        <ele>903.501128</ele>
        <time>2021-11-22T09:43:06.496Z</time>
      </trkpt>
      <trkpt lat="47.668845" lon="8.044086">
        <ele>904.020914</ele>
        <time>2021-11-22T09:43:09.301Z</time>
      </trkpt>
      <trkpt lat="47.669158" lon="8.043809">
        <ele>906.523238</ele>
        <time>2021-11-22T09:43:24.908Z</time>
      </trkpt>
      <trkpt lat="47.669745" lon="8.043311">
        <ele>910.655994</ele>
        <time>2021-11-22T09:43:50.770Z</time>
      </trkpt>
      <trkpt lat="47.670120" lon="8.042976">
        <ele>913.319529</ele>
        <time>2021-11-22T09:44:06.959Z</time>
      </trkpt>
      <trkpt lat="47.670141" lon="8.042962">
        <ele>913.459631</ele>
        <time>2021-11-22T09:44:08.457Z</time>
      </trkpt>
      <trkpt lat="47.670804" lon="8.042503">
        <ele>917.982183</ele>
        <time>2021-11-22T09:44:35.673Z</time>
      </trkpt>
      <trkpt lat="47.671899" lon="8.041989">
        <ele>926.714862</ele>
        <time>2021-11-22T09:45:27.383Z</time>
      </trkpt>
      <trkpt lat="47.672242" lon="8.041923">
        <ele>929.344910</ele>
        <time>2021-11-22T09:45:43.608Z</time>
      </trkpt>
      <trkpt lat="47.672781" lon="8.041828">
        <ele>933.520543</ele>
        <time>2021-11-22T09:46:10.565Z</time>
      </trkpt>
      <trkpt lat="47.672995" lon="8.041769">
        <ele>935.212491</ele>
        <time>2021-11-22T09:46:21.429Z</time>
      </trkpt>
      <trkpt lat="47.673985" lon="8.041192">
        <ele>943.479656</ele>
        <time>2021-11-22T09:47:13.412Z</time>
      </trkpt>
      <trkpt lat="47.674373" lon="8.040874">
        <ele>945.843963</ele>
        <time>2021-11-22T09:47:30.244Z</time>
      </trkpt>
      <trkpt lat="47.674565" lon="8.040822">
        <ele>946.358882</ele>
        <time>2021-11-22T09:47:37.163Z</time>
      </trkpt>
      <trkpt lat="47.677340" lon="8.039284">
        <ele>949.997141</ele>
        <time>2021-11-22T09:48:36.546Z</time>
      </trkpt>
      <trkpt lat="47.677464" lon="8.039192">
        <ele>949.993864</ele>
        <time>2021-11-22T09:48:37.866Z</time>
      </trkpt>
      <trkpt lat="47.677793" lon="8.039036">
        <ele>948.490805</ele>
        <time>2021-11-22T09:48:41.082Z</time>
      </trkpt>
      <trkpt lat="47.678069" lon="8.038823">
        <ele>946.654433</ele>
        <time>2021-11-22T09:48:43.940Z</time>
      </trkpt>
      <trkpt lat="47.678601" lon="8.038461">
        <ele>943.199530</ele>
        <time>2021-11-22T09:48:49.269Z</time>
      </trkpt>
      <trkpt lat="47.678867" lon="8.038371">
        <ele>941.588817</ele>
        <time>2021-11-22T09:48:51.690Z</time>
      </trkpt>
      <trkpt lat="47.679059" lon="8.038388">
        <ele>940.453226</ele>
        <time>2021-11-22T09:48:53.405Z</time>
      </trkpt>
      <trkpt lat="47.679772" lon="8.038786">
        <ele>936.190014</ele>
        <time>2021-11-22T09:49:00.286Z</time>
      </trkpt>
      <trkpt lat="47.679904" lon="8.038789">
        <ele>935.463943</ele>
        <time>2021-11-22T09:49:01.495Z</time>
      </trkpt>
      <trkpt lat="47.680077" lon="8.038763">
        <ele>934.507603</ele>
        <time>2021-11-22T09:49:03.091Z</time>
      </trkpt>
      <trkpt lat="47.680480" lon="8.038450">
        <ele>932.006406</ele>
        <time>2021-11-22T09:49:07.369Z</time>
      </trkpt>
      <trkpt lat="47.680738" lon="8.037885">
        <ele>929.478909</ele>
        <time>2021-11-22T09:49:11.905Z</time>
      </trkpt>
      <trkpt lat="47.680802" lon="8.037531">
        <ele>928.496652</ele>
        <time>2021-11-22T09:49:14.304Z</time>
      </trkpt>
      <trkpt lat="47.680848" lon="8.037279">
        <ele>927.796961</ele>
        <time>2021-11-22T09:49:16.030Z</time>
      </trkpt>
      <trkpt lat="47.681185" lon="8.035417">
        <ele>922.630041</ele>
        <time>2021-11-22T09:49:28.637Z</time>
      </trkpt>
      <trkpt lat="47.681242" lon="8.034582">
        <ele>920.696797</ele>
        <time>2021-11-22T09:49:34.378Z</time>
      </trkpt>
      <trkpt lat="47.681229" lon="8.033817">
        <ele>918.979993</ele>
        <time>2021-11-22T09:49:39.521Z</time>
      </trkpt>
      <trkpt lat="47.681221" lon="8.033480">
        <ele>918.223473</ele>
        <time>2021-11-22T09:49:41.790Z</time>
      </trkpt>
      <trkpt lat="47.681197" lon="8.032505">
        <ele>916.218032</ele>
        <time>2021-11-22T09:49:48.449Z</time>
      </trkpt>
      <trkpt lat="47.681203" lon="8.032236">
        <ele>915.992622</ele>
        <time>2021-11-22T09:49:50.313Z</time>
      </trkpt>
      <trkpt lat="47.681217" lon="8.031973">
        <ele>915.771673</ele>
        <time>2021-11-22T09:49:52.222Z</time>
      </trkpt>
      <trkpt lat="47.681251" lon="8.031637">
        <ele>915.487113</ele>
        <time>2021-11-22T09:49:54.679Z</time>
      </trkpt>
      <trkpt lat="47.681415" lon="8.030695">
        <ele>914.672243</ele>
        <time>2021-11-22T09:50:02.516Z</time>
      </trkpt>
      <trkpt lat="47.681649" lon="8.029887">
        <ele>914.472939</ele>
        <time>2021-11-22T09:50:11.366Z</time>
      </trkpt>
      <trkpt lat="47.682253" lon="8.029326">
        <ele>916.673571</ele>
        <time>2021-11-22T09:50:27.695Z</time>
      </trkpt>
      <trkpt lat="47.682284" lon="8.029302">
        <ele>916.781563</ele>
        <time>2021-11-22T09:50:29.329Z</time>
      </trkpt>
      <trkpt lat="47.682777" lon="8.028844">
        <ele>918.577876</ele>
        <time>2021-11-22T09:50:46.539Z</time>
      </trkpt>
      <trkpt lat="47.683078" lon="8.028586">
        <ele>919.656957</ele>
        <time>2021-11-22T09:50:58.559Z</time>
      </trkpt>
      <trkpt lat="47.683244" lon="8.028477">
        <ele>920.809599</ele>
        <time>2021-11-22T09:51:05.818Z</time>
      </trkpt>
      <trkpt lat="47.683359" lon="8.028418">
        <ele>921.582274</ele>
        <time>2021-11-22T09:51:10.000Z</time>
      </trkpt>
      <trkpt lat="47.684704" lon="8.027745">
        <ele>930.595674</ele>
        <time>2021-11-22T09:52:08.197Z</time>
      </trkpt>
      <trkpt lat="47.685120" lon="8.027549">
        <ele>934.093409</ele>
        <time>2021-11-22T09:52:27.551Z</time>
      </trkpt>
      <trkpt lat="47.685388" lon="8.027534">
        <ele>936.334711</ele>
        <time>2021-11-22T09:52:40.425Z</time>
      </trkpt>
      <trkpt lat="47.686440" lon="8.027867">
        <ele>945.323810</ele>
        <time>2021-11-22T09:53:32.585Z</time>
      </trkpt>
      <trkpt lat="47.686897" lon="8.028014">
        <ele>949.783192</ele>
        <time>2021-11-22T09:53:59.128Z</time>
      </trkpt>
      <trkpt lat="47.687310" lon="8.028230">
        <ele>954.087062</ele>
        <time>2021-11-22T09:54:23.320Z</time>
      </trkpt>
      <trkpt lat="47.687428" lon="8.028421">
        <ele>955.802481</ele>
        <time>2021-11-22T09:54:30.943Z</time>
      </trkpt>
      <trkpt lat="47.687566" lon="8.028910">
        <ele>959.311027</ele>
        <time>2021-11-22T09:54:50.667Z</time>
      </trkpt>
      <trkpt lat="47.687575" lon="8.029140">
        <ele>960.835506</ele>
        <time>2021-11-22T09:55:01.447Z</time>
      </trkpt>
      <trkpt lat="47.687587" lon="8.029347">
        <ele>962.210293</ele>
        <time>2021-11-22T09:55:09.398Z</time>
      </trkpt>
      <trkpt lat="47.687597" lon="8.029545">
        <ele>963.524141</ele>
        <time>2021-11-22T09:55:15.982Z</time>
      </trkpt>
      <trkpt lat="47.687633" lon="8.029655">
        <ele>964.272852</ele>
        <time>2021-11-22T09:55:21.581Z</time>
      </trkpt>
      <trkpt lat="47.687678" lon="8.029737">
        <ele>964.896178</ele>
        <time>2021-11-22T09:55:25.656Z</time>
      </trkpt>
      <trkpt lat="47.687832" lon="8.029919">
        <ele>966.618550</ele>
        <time>2021-11-22T09:55:34.268Z</time>
      </trkpt>
      <trkpt lat="47.687967" lon="8.029945">
        <ele>967.810003</ele>
        <time>2021-11-22T09:55:42.693Z</time>
      </trkpt>
      <trkpt lat="47.688096" lon="8.029901">
        <ele>968.968431</ele>
        <time>2021-11-22T09:55:48.564Z</time>
      </trkpt>
      <trkpt lat="47.688163" lon="8.029878">
        <ele>969.570291</ele>
        <time>2021-11-22T09:55:51.354Z</time>
      </trkpt>
      <trkpt lat="47.688255" lon="8.029813">
        <ele>970.461936</ele>
        <time>2021-11-22T09:55:57.640Z</time>
      </trkpt>
      <trkpt lat="47.688541" lon="8.029534">
        <ele>973.456579</ele>
        <time>2021-11-22T09:56:14.448Z</time>
      </trkpt>
      <trkpt lat="47.688693" lon="8.029402">
        <ele>974.997574</ele>
        <time>2021-11-22T09:56:23.832Z</time>
      </trkpt>
      <trkpt lat="47.688941" lon="8.029106">
        <ele>977.781945</ele>
        <time>2021-11-22T09:56:38.128Z</time>
      </trkpt>
      <trkpt lat="47.689084" lon="8.028821">
        <ele>979.787200</ele>
        <time>2021-11-22T09:56:48.365Z</time>
      </trkpt>
      <trkpt lat="47.689741" lon="8.028056">
        <ele>985.254062</ele>
        <time>2021-11-22T09:57:25.349Z</time>
      </trkpt>
      <trkpt lat="47.689946" lon="8.027870">
        <ele>986.827200</ele>
        <time>2021-11-22T09:57:34.890Z</time>
      </trkpt>
      <trkpt lat="47.690398" lon="8.027448">
        <ele>990.323382</ele>
        <time>2021-11-22T09:57:54.522Z</time>
      </trkpt>
      <trkpt lat="47.690589" lon="8.027275">
        <ele>991.693069</ele>
        <time>2021-11-22T09:58:02.996Z</time>
      </trkpt>
      <trkpt lat="47.690721" lon="8.027126">
        <ele>992.566009</ele>
        <time>2021-11-22T09:58:09.379Z</time>
      </trkpt>
      <trkpt lat="47.690924" lon="8.026889">
        <ele>993.925508</ele>
        <time>2021-11-22T09:58:19.209Z</time>
      </trkpt>
      <trkpt lat="47.691288" lon="8.026502">
        <ele>996.282455</ele>
        <time>2021-11-22T09:58:35.247Z</time>
      </trkpt>
      <trkpt lat="47.691662" lon="8.026240">
        <ele>998.459757</ele>
        <time>2021-11-22T09:58:49.901Z</time>
      </trkpt>
      <trkpt lat="47.691875" lon="8.026015">
        <ele>999.835951</ele>
        <time>2021-11-22T09:58:58.689Z</time>
      </trkpt>
      <trkpt lat="47.692022" lon="8.025872">
        <ele>1000.761173</ele>
        <time>2021-11-22T09:59:05.438Z</time>
      </trkpt>
      <trkpt lat="47.692484" lon="8.025672">
        <ele>1002.892835</ele>
        <time>2021-11-22T09:59:21.227Z</time>
      </trkpt>
      <trkpt lat="47.692716" lon="8.025640">
        <ele>1003.924054</ele>
        <time>2021-11-22T09:59:29.094Z</time>
      </trkpt>
      <trkpt lat="47.692935" lon="8.025620">
        <ele>1004.895150</ele>
        <time>2021-11-22T09:59:35.672Z</time>
      </trkpt>
      <trkpt lat="47.692982" lon="8.025617">
        <ele>1005.103358</ele>
        <time>2021-11-22T09:59:38.275Z</time>
      </trkpt>
      <trkpt lat="47.693981" lon="8.025556">
        <ele>1009.239218</ele>
        <time>2021-11-22T10:00:09.164Z</time>
      </trkpt>
      <trkpt lat="47.694490" lon="8.025057">
        <ele>1010.956094</ele>
        <time>2021-11-22T10:00:27.563Z</time>
      </trkpt>
      <trkpt lat="47.695067" lon="8.024641">
        <ele>1012.761716</ele>
        <time>2021-11-22T10:00:42.606Z</time>
      </trkpt>
      <trkpt lat="47.695167" lon="8.024552">
        <ele>1013.089899</ele>
        <time>2021-11-22T10:00:45.514Z</time>
      </trkpt>
      <trkpt lat="47.695582" lon="8.024186">
        <ele>1014.101182</ele>
        <time>2021-11-22T10:00:55.601Z</time>
      </trkpt>
      <trkpt lat="47.695949" lon="8.023902">
        <ele>1014.644766</ele>
        <time>2021-11-22T10:01:04.098Z</time>
      </trkpt>
      <trkpt lat="47.696121" lon="8.023737">
        <ele>1014.913719</ele>
        <time>2021-11-22T10:01:08.408Z</time>
      </trkpt>
      <trkpt lat="47.696662" lon="8.022922">
        <ele>1015.925810</ele>
        <time>2021-11-22T10:01:23.146Z</time>
      </trkpt>
      <trkpt lat="47.697090" lon="8.022559">
        <ele>1016.186917</ele>
        <time>2021-11-22T10:01:32.495Z</time>
      </trkpt>
      <trkpt lat="47.697392" lon="8.022307">
        <ele>1016.216507</ele>
        <time>2021-11-22T10:01:38.769Z</time>
      </trkpt>
      <trkpt lat="47.697640" lon="8.022045">
        <ele>1016.242502</ele>
        <time>2021-11-22T10:01:44.101Z</time>
      </trkpt>
      <trkpt lat="47.698454" lon="8.020607">
        <ele>1015.148817</ele>
        <time>2021-11-22T10:02:00.218Z</time>
      </trkpt>
      <trkpt lat="47.698769" lon="8.019792">
        <ele>1013.439897</ele>
        <time>2021-11-22T10:02:07.025Z</time>
      </trkpt>
      <trkpt lat="47.698870" lon="8.019452">
        <ele>1012.764126</ele>
        <time>2021-11-22T10:02:09.625Z</time>
      </trkpt>
      <trkpt lat="47.698886" lon="8.019389">
        <ele>1012.641687</ele>
        <time>2021-11-22T10:02:10.085Z</time>
      </trkpt>
      <trkpt lat="47.698950" lon="8.019245">
        <ele>1012.327909</ele>
        <time>2021-11-22T10:02:11.208Z</time>
      </trkpt>
      <trkpt lat="47.698987" lon="8.019194">
        <ele>1012.191556</ele>
        <time>2021-11-22T10:02:11.680Z</time>
      </trkpt>
      <trkpt lat="47.699120" lon="8.019010">
        <ele>1011.700585</ele>
        <time>2021-11-22T10:02:13.373Z</time>
      </trkpt>
      <trkpt lat="47.699204" lon="8.018887">
        <ele>1011.361028</ele>
        <time>2021-11-22T10:02:14.443Z</time>
      </trkpt>
      <trkpt lat="47.699463" lon="8.018583">
        <ele>1010.211310</ele>
        <time>2021-11-22T10:02:17.552Z</time>
      </trkpt>
      <trkpt lat="47.699697" lon="8.018173">
        <ele>1008.951049</ele>
        <time>2021-11-22T10:02:21.015Z</time>
      </trkpt>
      <trkpt lat="47.699839" lon="8.017859">
        <ele>1008.064180</ele>
        <time>2021-11-22T10:02:23.630Z</time>
      </trkpt>
      <trkpt lat="47.699835" lon="8.017801">
        <ele>1007.927496</ele>
        <time>2021-11-22T10:02:23.975Z</time>
      </trkpt>
      <trkpt lat="47.699826" lon="8.017362">
        <ele>1006.897857</ele>
        <time>2021-11-22T10:02:27.210Z</time>
      </trkpt>
      <trkpt lat="47.699813" lon="8.017213">
        <ele>1006.545628</ele>
        <time>2021-11-22T10:02:28.116Z</time>
      </trkpt>
      <trkpt lat="47.699597" lon="8.017288">
        <ele>1005.772957</ele>
        <time>2021-11-22T10:02:31.504Z</time>
      </trkpt>
      <trkpt lat="47.698902" lon="8.017665">
        <ele>1004.138018</ele>
        <time>2021-11-22T10:02:39.583Z</time>
      </trkpt>
      <trkpt lat="47.698528" lon="8.017844">
        <ele>1003.416339</ele>
        <time>2021-11-22T10:02:43.783Z</time>
      </trkpt>
      <trkpt lat="47.698267" lon="8.017921">
        <ele>1002.927606</ele>
        <time>2021-11-22T10:02:47.160Z</time>
      </trkpt>
      <trkpt lat="47.698194" lon="8.017933">
        <ele>1002.792709</ele>
        <time>2021-11-22T10:02:48.560Z</time>
      </trkpt>
      <trkpt lat="47.697983" lon="8.017968">
        <ele>1002.402761</ele>
        <time>2021-11-22T10:02:51.748Z</time>
      </trkpt>
      <trkpt lat="47.697781" lon="8.017936">
        <ele>1002.029647</ele>
        <time>2021-11-22T10:02:54.043Z</time>
      </trkpt>
      <trkpt lat="47.697010" lon="8.017759">
        <ele>998.796767</ele>
        <time>2021-11-22T10:03:01.876Z</time>
      </trkpt>
      <trkpt lat="47.696473" lon="8.017726">
        <ele>996.430861</ele>
        <time>2021-11-22T10:03:06.891Z</time>
      </trkpt>
      <trkpt lat="47.696352" lon="8.017751">
        <ele>995.893090</ele>
        <time>2021-11-22T10:03:07.997Z</time>
      </trkpt>
      <trkpt lat="47.696152" lon="8.017833">
        <ele>994.979779</ele>
        <time>2021-11-22T10:03:09.935Z</time>
      </trkpt>
      <trkpt lat="47.695840" lon="8.018011">
        <ele>993.529305</ele>
        <time>2021-11-22T10:03:13.034Z</time>
      </trkpt>
      <trkpt lat="47.695674" lon="8.018175">
        <ele>992.691376</ele>
        <time>2021-11-22T10:03:14.872Z</time>
      </trkpt>
      <trkpt lat="47.695579" lon="8.018269">
        <ele>992.211612</ele>
        <time>2021-11-22T10:03:15.914Z</time>
      </trkpt>
      <trkpt lat="47.695350" lon="8.018583">
        <ele>990.901775</ele>
        <time>2021-11-22T10:03:18.838Z</time>
      </trkpt>
      <trkpt lat="47.694743" lon="8.019647">
        <ele>986.955760</ele>
        <time>2021-11-22T10:03:28.154Z</time>
      </trkpt>
      <trkpt lat="47.694578" lon="8.019835">
        <ele>986.065696</ele>
        <time>2021-11-22T10:03:30.351Z</time>
      </trkpt>
      <trkpt lat="47.694391" lon="8.019962">
        <ele>985.158884</ele>
        <time>2021-11-22T10:03:32.691Z</time>
      </trkpt>
      <trkpt lat="47.694216" lon="8.020019">
        <ele>984.368748</ele>
        <time>2021-11-22T10:03:34.599Z</time>
      </trkpt>
      <trkpt lat="47.694060" lon="8.020049">
        <ele>983.674999</ele>
        <time>2021-11-22T10:03:36.255Z</time>
      </trkpt>
      <trkpt lat="47.693895" lon="8.020047">
        <ele>982.947272</ele>
        <time>2021-11-22T10:03:37.873Z</time>
      </trkpt>
      <trkpt lat="47.693801" lon="8.020011">
        <ele>982.519150</ele>
        <time>2021-11-22T10:03:38.991Z</time>
      </trkpt>
      <trkpt lat="47.693543" lon="8.019913">
        <ele>981.344687</ele>
        <time>2021-11-22T10:03:41.512Z</time>
      </trkpt>
      <trkpt lat="47.693342" lon="8.019760">
        <ele>980.348632</ele>
        <time>2021-11-22T10:03:43.676Z</time>
      </trkpt>
      <trkpt lat="47.693162" lon="8.019540">
        <ele>979.320657</ele>
        <time>2021-11-22T10:03:45.902Z</time>
      </trkpt>
      <trkpt lat="47.693037" lon="8.019317">
        <ele>978.442545</ele>
        <time>2021-11-22T10:03:47.648Z</time>
      </trkpt>
      <trkpt lat="47.692707" lon="8.018208">
        <ele>971.060142</ele>
        <time>2021-11-22T10:03:54.766Z</time>
      </trkpt>
      <trkpt lat="47.692537" lon="8.017846">
        <ele>968.372731</ele>
        <time>2021-11-22T10:03:57.297Z</time>
      </trkpt>
      <trkpt lat="47.692350" lon="8.017552">
        <ele>965.909975</ele>
        <time>2021-11-22T10:03:59.609Z</time>
      </trkpt>
      <trkpt lat="47.691974" lon="8.017174">
        <ele>961.966547</ele>
        <time>2021-11-22T10:04:03.560Z</time>
      </trkpt>
      <trkpt lat="47.691820" lon="8.017076">
        <ele>961.065452</ele>
        <time>2021-11-22T10:04:04.989Z</time>
      </trkpt>
      <trkpt lat="47.691689" lon="8.017007">
        <ele>960.317882</ele>
        <time>2021-11-22T10:04:06.273Z</time>
      </trkpt>
      <trkpt lat="47.691665" lon="8.016994">
        <ele>960.180483</ele>
        <time>2021-11-22T10:04:06.514Z</time>
      </trkpt>
      <trkpt lat="47.691435" lon="8.016911">
        <ele>958.907433</ele>
        <time>2021-11-22T10:04:08.646Z</time>
      </trkpt>
      <trkpt lat="47.690652" lon="8.016926">
        <ele>954.695642</ele>
        <time>2021-11-22T10:04:16.085Z</time>
      </trkpt>
      <trkpt lat="47.690220" lon="8.016934">
        <ele>952.422866</ele>
        <time>2021-11-22T10:04:20.405Z</time>
      </trkpt>
      <trkpt lat="47.690082" lon="8.016904">
        <ele>951.912058</ele>
        <time>2021-11-22T10:04:22.901Z</time>
      </trkpt>
      <trkpt lat="47.690058" lon="8.016898">
        <ele>951.822922</ele>
        <time>2021-11-22T10:04:23.248Z</time>
      </trkpt>
      <trkpt lat="47.689914" lon="8.016822">
        <ele>951.263227</ele>
        <time>2021-11-22T10:04:25.017Z</time>
      </trkpt>
      <trkpt lat="47.689713" lon="8.016686">
        <ele>950.454304</ele>
        <time>2021-11-22T10:04:28.084Z</time>
      </trkpt>
      <trkpt lat="47.688439" lon="8.015818">
        <ele>944.686111</ele>
        <time>2021-11-22T10:04:41.715Z</time>
      </trkpt>
      <trkpt lat="47.688100" lon="8.015587">
        <ele>941.928524</ele>
        <time>2021-11-22T10:04:45.011Z</time>
      </trkpt>
      <trkpt lat="47.687490" lon="8.015190">
        <ele>937.004494</ele>
        <time>2021-11-22T10:04:50.858Z</time>
      </trkpt>
      <trkpt lat="47.686930" lon="8.015043">
        <ele>932.799860</ele>
        <time>2021-11-22T10:04:55.896Z</time>
      </trkpt>
      <trkpt lat="47.686756" lon="8.015038">
        <ele>931.497526</ele>
        <time>2021-11-22T10:04:57.412Z</time>
      </trkpt>
      <trkpt lat="47.686668" lon="8.015036">
        <ele>930.837846</ele>
        <time>2021-11-22T10:04:58.205Z</time>
      </trkpt>
      <trkpt lat="47.686492" lon="8.015040">
        <ele>929.518484</ele>
        <time>2021-11-22T10:04:59.800Z</time>
      </trkpt>
      <trkpt lat="47.686307" lon="8.015044">
        <ele>928.131671</ele>
        <time>2021-11-22T10:05:01.417Z</time>
      </trkpt>
      <trkpt lat="47.685997" lon="8.015101">
        <ele>925.790335</ele>
        <time>2021-11-22T10:05:04.216Z</time>
      </trkpt>
      <trkpt lat="47.685071" lon="8.015391">
        <ele>918.622999</ele>
        <time>2021-11-22T10:05:12.743Z</time>
      </trkpt>
      <trkpt lat="47.685055" lon="8.015288">
        <ele>918.005121</ele>
        <time>2021-11-22T10:05:13.612Z</time>
      </trkpt>
      <trkpt lat="47.684995" lon="8.015181">
        <ele>917.191135</ele>
        <time>2021-11-22T10:05:14.758Z</time>
      </trkpt>
      <trkpt lat="47.684659" lon="8.015251">
        <ele>914.245205</ele>
        <time>2021-11-22T10:05:19.038Z</time>
      </trkpt>
      <trkpt lat="47.684265" lon="8.015017">
        <ele>910.560926</ele>
        <time>2021-11-22T10:05:24.277Z</time>
      </trkpt>
      <trkpt lat="47.684056" lon="8.014835">
        <ele>908.457398</ele>
        <time>2021-11-22T10:05:27.322Z</time>
      </trkpt>
      <trkpt lat="47.684174" lon="8.014751">
        <ele>907.321264</ele>
        <time>2021-11-22T10:05:28.891Z</time>
      </trkpt>
      <trkpt lat="47.684412" lon="8.014496">
        <ele>904.773310</ele>
        <time>2021-11-22T10:05:32.473Z</time>
      </trkpt>
      <trkpt lat="47.684729" lon="8.013793">
        <ele>901.082936</ele>
        <time>2021-11-22T10:05:39.503Z</time>
      </trkpt>
      <trkpt lat="47.684700" lon="8.013551">
        <ele>900.131158</ele>
        <time>2021-11-22T10:05:41.685Z</time>
      </trkpt>
      <trkpt lat="47.684365" lon="8.013166">
        <ele>897.694971</ele>
        <time>2021-11-22T10:05:47.061Z</time>
      </trkpt>
      <trkpt lat="47.684309" lon="8.013023">
        <ele>897.054389</ele>
        <time>2021-11-22T10:05:48.443Z</time>
      </trkpt>
      <trkpt lat="47.684282" lon="8.012870">
        <ele>896.441938</ele>
        <time>2021-11-22T10:05:50.691Z</time>
      </trkpt>
      <trkpt lat="47.684291" lon="8.012371">
        <ele>894.509051</ele>
        <time>2021-11-22T10:05:55.583Z</time>
      </trkpt>
      <trkpt lat="47.684454" lon="8.011879">
        <ele>893.029086</ele>
        <time>2021-11-22T10:06:01.620Z</time>
      </trkpt>
      <trkpt lat="47.684458" lon="8.011679">
        <ele>892.865388</ele>
        <time>2021-11-22T10:06:04.779Z</time>
      </trkpt>
      <trkpt lat="47.684267" lon="8.010535">
        <ele>891.901095</ele>
        <time>2021-11-22T10:06:18.782Z</time>
      </trkpt>
      <trkpt lat="47.684218" lon="8.010245">
        <ele>891.656478</ele>
        <time>2021-11-22T10:06:22.250Z</time>
      </trkpt>
      <trkpt lat="47.684121" lon="8.009664">
        <ele>891.166744</ele>
        <time>2021-11-22T10:06:29.079Z</time>
      </trkpt>
      <trkpt lat="47.684087" lon="8.009503">
        <ele>891.028696</ele>
        <time>2021-11-22T10:06:31.518Z</time>
      </trkpt>
      <trkpt lat="47.684063" lon="8.009475">
        <ele>890.981750</ele>
        <time>2021-11-22T10:06:32.027Z</time>
      </trkpt>
      <trkpt lat="47.684011" lon="8.009417">
        <ele>890.870255</ele>
        <time>2021-11-22T10:06:33.030Z</time>
      </trkpt>
      <trkpt lat="47.683855" lon="8.009337">
        <ele>890.587290</ele>
        <time>2021-11-22T10:06:35.521Z</time>
      </trkpt>
      <trkpt lat="47.683675" lon="8.009326">
        <ele>890.278406</ele>
        <time>2021-11-22T10:06:37.703Z</time>
      </trkpt>
      <trkpt lat="47.683573" lon="8.009307">
        <ele>890.102150</ele>
        <time>2021-11-22T10:06:38.760Z</time>
      </trkpt>
      <trkpt lat="47.683523" lon="8.009238">
        <ele>889.985133</ele>
        <time>2021-11-22T10:06:39.410Z</time>
      </trkpt>
      <trkpt lat="47.683340" lon="8.008943">
        <ele>889.522098</ele>
        <time>2021-11-22T10:06:42.538Z</time>
      </trkpt>
      <trkpt lat="47.682426" lon="8.008412">
        <ele>887.955796</ele>
        <time>2021-11-22T10:06:53.332Z</time>
      </trkpt>
      <trkpt lat="47.682230" lon="8.008312">
        <ele>888.048528</ele>
        <time>2021-11-22T10:06:55.681Z</time>
      </trkpt>
      <trkpt lat="47.681736" lon="8.007910">
        <ele>888.300573</ele>
        <time>2021-11-22T10:07:04.782Z</time>
      </trkpt>
      <trkpt lat="47.681500" lon="8.007683">
        <ele>888.426381</ele>
        <time>2021-11-22T10:07:09.764Z</time>
      </trkpt>
      <trkpt lat="47.681188" lon="8.007224">
        <ele>888.622876</ele>
        <time>2021-11-22T10:07:18.378Z</time>
      </trkpt>
      <trkpt lat="47.681138" lon="8.007153">
        <ele>888.653829</ele>
        <time>2021-11-22T10:07:20.226Z</time>
      </trkpt>
      <trkpt lat="47.680982" lon="8.006933">
        <ele>888.814873</ele>
        <time>2021-11-22T10:07:24.468Z</time>
      </trkpt>
      <trkpt lat="47.680882" lon="8.006893">
        <ele>889.082582</ele>
        <time>2021-11-22T10:07:27.773Z</time>
      </trkpt>
      <trkpt lat="47.680803" lon="8.006859">
        <ele>889.295197</ele>
        <time>2021-11-22T10:07:30.372Z</time>
      </trkpt>
      <trkpt lat="47.680693" lon="8.006814">
        <ele>889.590134</ele>
        <time>2021-11-22T10:07:33.331Z</time>
      </trkpt>
      <trkpt lat="47.680652" lon="8.006809">
        <ele>889.696475</ele>
        <time>2021-11-22T10:07:34.364Z</time>
      </trkpt>
      <trkpt lat="47.680648" lon="8.006658">
        <ele>889.959476</ele>
        <time>2021-11-22T10:07:36.928Z</time>
      </trkpt>
      <trkpt lat="47.680615" lon="8.006508">
        <ele>890.234117</ele>
        <time>2021-11-22T10:07:39.741Z</time>
      </trkpt>
      <trkpt lat="47.680502" lon="8.006372">
        <ele>890.610080</ele>
        <time>2021-11-22T10:07:42.601Z</time>
      </trkpt>
      <trkpt lat="47.680030" lon="8.006118">
        <ele>891.907809</ele>
        <time>2021-11-22T10:07:54.961Z</time>
      </trkpt>
      <trkpt lat="47.678968" lon="8.005160">
        <ele>896.435183</ele>
        <time>2021-11-22T10:08:31.001Z</time>
      </trkpt>
      <trkpt lat="47.678382" lon="8.004891">
        <ele>899.223683</ele>
        <time>2021-11-22T10:08:53.195Z</time>
      </trkpt>
      <trkpt lat="47.677950" lon="8.004730">
        <ele>901.248592</ele>
        <time>2021-11-22T10:09:09.202Z</time>
      </trkpt>
      <trkpt lat="47.677356" lon="8.004495">
        <ele>903.553351</ele>
        <time>2021-11-22T10:09:30.323Z</time>
      </trkpt>
      <trkpt lat="47.676834" lon="8.004390">
        <ele>905.475101</ele>
        <time>2021-11-22T10:09:47.593Z</time>
      </trkpt>
      <trkpt lat="47.675284" lon="8.004574">
        <ele>909.752734</ele>
        <time>2021-11-22T10:10:22.988Z</time>
      </trkpt>
      <trkpt lat="47.675149" lon="8.004551">
        <ele>910.019672</ele>
        <time>2021-11-22T10:10:25.341Z</time>
      </trkpt>
      <trkpt lat="47.674992" lon="8.004437">
        <ele>910.362976</ele>
        <time>2021-11-22T10:10:28.998Z</time>
      </trkpt>
      <trkpt lat="47.674127" lon="8.003573">
        <ele>912.998774</ele>
        <time>2021-11-22T10:10:53.360Z</time>
      </trkpt>
      <trkpt lat="47.673327" lon="8.002483">
        <ele>916.798253</ele>
        <time>2021-11-22T10:11:27.182Z</time>
      </trkpt>
      <trkpt lat="47.673161" lon="8.002175">
        <ele>917.727925</ele>
        <time>2021-11-22T10:11:34.555Z</time>
      </trkpt>
      <trkpt lat="47.673136" lon="8.002102">
        <ele>917.920922</ele>
        <time>2021-11-22T10:11:37.704Z</time>
      </trkpt>
      <trkpt lat="47.673101" lon="8.002002">
        <ele>918.046912</ele>
        <time>2021-11-22T10:11:39.868Z</time>
      </trkpt>
      <trkpt lat="47.673035" lon="8.001808">
        <ele>918.252901</ele>
        <time>2021-11-22T10:11:43.912Z</time>
      </trkpt>
      <trkpt lat="47.672841" lon="8.001235">
        <ele>918.860719</ele>
        <time>2021-11-22T10:11:55.675Z</time>
      </trkpt>
      <trkpt lat="47.672618" lon="8.000438">
        <ele>919.678660</ele>
        <time>2021-11-22T10:12:10.515Z</time>
      </trkpt>
      <trkpt lat="47.672451" lon="7.999830">
        <ele>920.300967</ele>
        <time>2021-11-22T10:12:18.099Z</time>
      </trkpt>
      <trkpt lat="47.672397" lon="7.999575">
        <ele>920.229898</ele>
        <time>2021-11-22T10:12:19.796Z</time>
      </trkpt>
      <trkpt lat="47.672112" lon="7.998110">
        <ele>914.961122</ele>
        <time>2021-11-22T10:12:29.508Z</time>
      </trkpt>
      <trkpt lat="47.672045" lon="7.997989">
        <ele>914.419853</ele>
        <time>2021-11-22T10:12:30.459Z</time>
      </trkpt>
      <trkpt lat="47.671926" lon="7.997854">
        <ele>913.651475</ele>
        <time>2021-11-22T10:12:31.878Z</time>
      </trkpt>
      <trkpt lat="47.671816" lon="7.997769">
        <ele>913.015217</ele>
        <time>2021-11-22T10:12:32.947Z</time>
      </trkpt>
      <trkpt lat="47.671538" lon="7.997730">
        <ele>911.582421</ele>
        <time>2021-11-22T10:12:35.479Z</time>
      </trkpt>
      <trkpt lat="47.671306" lon="7.997806">
        <ele>910.192370</ele>
        <time>2021-11-22T10:12:37.591Z</time>
      </trkpt>
      <trkpt lat="47.669847" lon="7.998499">
        <ele>900.825682</ele>
        <time>2021-11-22T10:12:51.567Z</time>
      </trkpt>
      <trkpt lat="47.669641" lon="7.998743">
        <ele>899.394947</ele>
        <time>2021-11-22T10:12:54.136Z</time>
      </trkpt>
      <trkpt lat="47.669544" lon="7.998925">
        <ele>898.604668</ele>
        <time>2021-11-22T10:12:55.614Z</time>
      </trkpt>
      <trkpt lat="47.669420" lon="7.999156">
        <ele>897.598838</ele>
        <time>2021-11-22T10:12:57.543Z</time>
      </trkpt>
      <trkpt lat="47.669290" lon="7.999340">
        <ele>896.690798</ele>
        <time>2021-11-22T10:12:59.238Z</time>
      </trkpt>
      <trkpt lat="47.669087" lon="7.999573">
        <ele>895.393543</ele>
        <time>2021-11-22T10:13:01.722Z</time>
      </trkpt>
      <trkpt lat="47.668624" lon="7.999953">
        <ele>892.718785</ele>
        <time>2021-11-22T10:13:06.792Z</time>
      </trkpt>
      <trkpt lat="47.668085" lon="8.000349">
        <ele>889.057507</ele>
        <time>2021-11-22T10:13:12.319Z</time>
      </trkpt>
      <trkpt lat="47.667435" lon="8.000710">
        <ele>884.081791</ele>
        <time>2021-11-22T10:13:18.503Z</time>
      </trkpt>
      <trkpt lat="47.667175" lon="8.000840">
        <ele>882.114781</ele>
        <time>2021-11-22T10:13:20.921Z</time>
      </trkpt>
      <trkpt lat="47.667061" lon="8.000864">
        <ele>881.289241</ele>
        <time>2021-11-22T10:13:21.917Z</time>
      </trkpt>
      <trkpt lat="47.666912" lon="8.000877">
        <ele>880.219087</ele>
        <time>2021-11-22T10:13:23.251Z</time>
      </trkpt>
      <trkpt lat="47.666792" lon="8.000879">
        <ele>879.358648</ele>
        <time>2021-11-22T10:13:24.348Z</time>
      </trkpt>
      <trkpt lat="47.666633" lon="8.000913">
        <ele>878.221418</ele>
        <time>2021-11-22T10:13:25.725Z</time>
      </trkpt>
      <trkpt lat="47.666395" lon="8.001047">
        <ele>876.838498</ele>
        <time>2021-11-22T10:13:28.083Z</time>
      </trkpt>
      <trkpt lat="47.666254" lon="8.001206">
        <ele>875.876559</ele>
        <time>2021-11-22T10:13:29.646Z</time>
      </trkpt>
      <trkpt lat="47.666161" lon="8.001366">
        <ele>875.103229</ele>
        <time>2021-11-22T10:13:31.000Z</time>
      </trkpt>
      <trkpt lat="47.666070" lon="8.001527">
        <ele>874.334154</ele>
        <time>2021-11-22T10:13:32.222Z</time>
      </trkpt>
      <trkpt lat="47.665936" lon="8.001647">
        <ele>873.483959</ele>
        <time>2021-11-22T10:13:33.755Z</time>
      </trkpt>
      <trkpt lat="47.665462" lon="8.001836">
        <ele>870.817414</ele>
        <time>2021-11-22T10:13:38.456Z</time>
      </trkpt>
      <trkpt lat="47.665403" lon="8.001876">
        <ele>870.465026</ele>
        <time>2021-11-22T10:13:39.016Z</time>
      </trkpt>
      <trkpt lat="47.665261" lon="8.001970">
        <ele>869.620324</ele>
        <time>2021-11-22T10:13:40.773Z</time>
      </trkpt>
      <trkpt lat="47.665117" lon="8.002107">
        <ele>868.691134</ele>
        <time>2021-11-22T10:13:42.515Z</time>
      </trkpt>
      <trkpt lat="47.664985" lon="8.002314">
        <ele>867.735070</ele>
        <time>2021-11-22T10:13:44.394Z</time>
      </trkpt>
      <trkpt lat="47.664797" lon="8.002579">
        <ele>866.471460</ele>
        <time>2021-11-22T10:13:46.990Z</time>
      </trkpt>
      <trkpt lat="47.664594" lon="8.002791">
        <ele>865.261661</ele>
        <time>2021-11-22T10:13:49.533Z</time>
      </trkpt>
      <trkpt lat="47.664409" lon="8.002922">
        <ele>864.262550</ele>
        <time>2021-11-22T10:13:51.476Z</time>
      </trkpt>
      <trkpt lat="47.664238" lon="8.003002">
        <ele>863.388586</ele>
        <time>2021-11-22T10:13:53.188Z</time>
      </trkpt>
      <trkpt lat="47.664077" lon="8.003034">
        <ele>862.596765</ele>
        <time>2021-11-22T10:13:54.695Z</time>
      </trkpt>
      <trkpt lat="47.663918" lon="8.003042">
        <ele>861.821248</ele>
        <time>2021-11-22T10:13:56.197Z</time>
      </trkpt>
      <trkpt lat="47.663654" lon="8.002978">
        <ele>860.517297</ele>
        <time>2021-11-22T10:13:58.651Z</time>
      </trkpt>
      <trkpt lat="47.663453" lon="8.002889">
        <ele>859.314271</ele>
        <time>2021-11-22T10:14:00.581Z</time>
      </trkpt>
      <trkpt lat="47.663064" lon="8.002715">
        <ele>855.792255</ele>
        <time>2021-11-22T10:14:04.231Z</time>
      </trkpt>
      <trkpt lat="47.662355" lon="8.002366">
        <ele>849.316832</ele>
        <time>2021-11-22T10:14:10.698Z</time>
      </trkpt>
      <trkpt lat="47.661952" lon="8.002284">
        <ele>845.790495</ele>
        <time>2021-11-22T10:14:14.191Z</time>
      </trkpt>
      <trkpt lat="47.661623" lon="8.002299">
        <ele>843.035634</ele>
        <time>2021-11-22T10:14:17.044Z</time>
      </trkpt>
      <trkpt lat="47.661294" lon="8.002339">
        <ele>840.409754</ele>
        <time>2021-11-22T10:14:19.944Z</time>
      </trkpt>
      <trkpt lat="47.661253" lon="8.002344">
        <ele>840.082510</ele>
        <time>2021-11-22T10:14:20.280Z</time>
      </trkpt>
      <trkpt lat="47.660510" lon="8.002253">
        <ele>834.152036</ele>
        <time>2021-11-22T10:14:26.879Z</time>
      </trkpt>
      <trkpt lat="47.660199" lon="8.002305">
        <ele>831.662463</ele>
        <time>2021-11-22T10:14:29.687Z</time>
      </trkpt>
      <trkpt lat="47.659359" lon="8.003076">
        <ele>826.952967</ele>
        <time>2021-11-22T10:14:38.710Z</time>
      </trkpt>
      <trkpt lat="47.658675" lon="8.003837">
        <ele>823.707521</ele>
        <time>2021-11-22T10:14:47.245Z</time>
      </trkpt>
      <trkpt lat="47.658610" lon="8.003919">
        <ele>823.383651</ele>
        <time>2021-11-22T10:14:48.217Z</time>
      </trkpt>
      <trkpt lat="47.658436" lon="8.004140">
        <ele>823.694131</ele>
        <time>2021-11-22T10:14:52.223Z</time>
      </trkpt>
      <trkpt lat="47.658316" lon="8.004309">
        <ele>824.601610</ele>
        <time>2021-11-22T10:14:56.223Z</time>
      </trkpt>
      <trkpt lat="47.658212" lon="8.004456">
        <ele>825.389450</ele>
        <time>2021-11-22T10:15:00.258Z</time>
      </trkpt>
      <trkpt lat="47.657938" lon="8.004946">
        <ele>827.742945</ele>
        <time>2021-11-22T10:15:12.829Z</time>
      </trkpt>
      <trkpt lat="47.657834" lon="8.004898">
        <ele>828.340484</ele>
        <time>2021-11-22T10:15:15.911Z</time>
      </trkpt>
      <trkpt lat="47.657834" lon="8.004898">
        <ele>828.340484</ele>
        <time>2021-11-22T10:15:15.994Z</time>
      </trkpt>
      <trkpt lat="47.657420" lon="8.004739">
        <ele>830.686691</ele>
        <time>2021-11-22T10:15:34.602Z</time>
      </trkpt>
      <trkpt lat="47.657324" lon="8.004684">
        <ele>831.251258</ele>
        <time>2021-11-22T10:15:41.210Z</time>
      </trkpt>
      <trkpt lat="47.657247" lon="8.004590">
        <ele>831.798206</ele>
        <time>2021-11-22T10:15:45.628Z</time>
      </trkpt>
      <trkpt lat="47.657132" lon="8.004275">
        <ele>833.426954</ele>
        <time>2021-11-22T10:16:01.544Z</time>
      </trkpt>
      <trkpt lat="47.656969" lon="8.003741">
        <ele>838.160541</ele>
        <time>2021-11-22T10:16:25.695Z</time>
      </trkpt>
      <trkpt lat="47.656953" lon="8.003197">
        <ele>842.556995</ele>
        <time>2021-11-22T10:16:50.556Z</time>
      </trkpt>
      <trkpt lat="47.656935" lon="8.002898">
        <ele>844.980753</ele>
        <time>2021-11-22T10:17:03.011Z</time>
      </trkpt>
      <trkpt lat="47.656897" lon="8.002752">
        <ele>846.244506</ele>
        <time>2021-11-22T10:17:11.987Z</time>
      </trkpt>
      <trkpt lat="47.656674" lon="8.001968">
        <ele>853.115825</ele>
        <time>2021-11-22T10:17:47.032Z</time>
      </trkpt>
      <trkpt lat="47.656351" lon="8.000403">
        <ele>863.858823</ele>
        <time>2021-11-22T10:18:53.683Z</time>
      </trkpt>
      <trkpt lat="47.656187" lon="8.000024">
        <ele>866.740558</ele>
        <time>2021-11-22T10:19:07.954Z</time>
      </trkpt>
      <trkpt lat="47.656041" lon="7.999637">
        <ele>869.578146</ele>
        <time>2021-11-22T10:19:21.171Z</time>
      </trkpt>
      <trkpt lat="47.655852" lon="7.999176">
        <ele>872.290144</ele>
        <time>2021-11-22T10:19:36.152Z</time>
      </trkpt>
      <trkpt lat="47.655398" lon="7.998167">
        <ele>876.278272</ele>
        <time>2021-11-22T10:20:06.127Z</time>
      </trkpt>
      <trkpt lat="47.655114" lon="7.997327">
        <ele>879.367391</ele>
        <time>2021-11-22T10:20:25.380Z</time>
      </trkpt>
      <trkpt lat="47.654874" lon="7.996741">
        <ele>880.579752</ele>
        <time>2021-11-22T10:20:38.891Z</time>
      </trkpt>
      <trkpt lat="47.654743" lon="7.996535">
        <ele>880.785582</ele>
        <time>2021-11-22T10:20:44.211Z</time>
      </trkpt>
      <trkpt lat="47.654647" lon="7.996410">
        <ele>880.923314</ele>
        <time>2021-11-22T10:20:47.030Z</time>
      </trkpt>
      <trkpt lat="47.654449" lon="7.996225">
        <ele>881.175657</ele>
        <time>2021-11-22T10:20:51.623Z</time>
      </trkpt>
      <trkpt lat="47.654263" lon="7.996129">
        <ele>881.388059</ele>
        <time>2021-11-22T10:20:55.278Z</time>
      </trkpt>
      <trkpt lat="47.654183" lon="7.996088">
        <ele>881.479345</ele>
        <time>2021-11-22T10:20:57.387Z</time>
      </trkpt>
      <trkpt lat="47.653925" lon="7.996027">
        <ele>881.761135</ele>
        <time>2021-11-22T10:21:00.910Z</time>
      </trkpt>
      <trkpt lat="47.653643" lon="7.996009">
        <ele>882.065586</ele>
        <time>2021-11-22T10:21:04.795Z</time>
      </trkpt>
      <trkpt lat="47.653510" lon="7.996035">
        <ele>882.210280</ele>
        <time>2021-11-22T10:21:06.610Z</time>
      </trkpt>
      <trkpt lat="47.653330" lon="7.996073">
        <ele>881.501027</ele>
        <time>2021-11-22T10:21:08.541Z</time>
      </trkpt>
      <trkpt lat="47.653098" lon="7.996155">
        <ele>880.480207</ele>
        <time>2021-11-22T10:21:11.386Z</time>
      </trkpt>
      <trkpt lat="47.653036" lon="7.996181">
        <ele>880.204434</ele>
        <time>2021-11-22T10:21:11.976Z</time>
      </trkpt>
      <trkpt lat="47.652710" lon="7.996359">
        <ele>878.717618</ele>
        <time>2021-11-22T10:21:15.479Z</time>
      </trkpt>
      <trkpt lat="47.652354" lon="7.996461">
        <ele>877.165659</ele>
        <time>2021-11-22T10:21:18.882Z</time>
      </trkpt>
      <trkpt lat="47.652053" lon="7.996547">
        <ele>875.853601</ele>
        <time>2021-11-22T10:21:21.728Z</time>
      </trkpt>
      <trkpt lat="47.651969" lon="7.996551">
        <ele>875.493859</ele>
        <time>2021-11-22T10:21:22.460Z</time>
      </trkpt>
      <trkpt lat="47.651930" lon="7.996553">
        <ele>875.326823</ele>
        <time>2021-11-22T10:21:22.812Z</time>
      </trkpt>
      <trkpt lat="47.651743" lon="7.996494">
        <ele>874.496530</ele>
        <time>2021-11-22T10:21:24.587Z</time>
      </trkpt>
      <trkpt lat="47.651491" lon="7.996362">
        <ele>872.531723</ele>
        <time>2021-11-22T10:21:26.959Z</time>
      </trkpt>
      <trkpt lat="47.651192" lon="7.996204">
        <ele>870.198177</ele>
        <time>2021-11-22T10:21:29.803Z</time>
      </trkpt>
      <trkpt lat="47.651064" lon="7.996154">
        <ele>869.225012</ele>
        <time>2021-11-22T10:21:30.984Z</time>
      </trkpt>
      <trkpt lat="47.650943" lon="7.996107">
        <ele>868.305401</ele>
        <time>2021-11-22T10:21:32.087Z</time>
      </trkpt>
      <trkpt lat="47.650884" lon="7.996084">
        <ele>867.856892</ele>
        <time>2021-11-22T10:21:32.630Z</time>
      </trkpt>
      <trkpt lat="47.650180" lon="7.995826">
        <ele>862.525288</ele>
        <time>2021-11-22T10:21:39.094Z</time>
      </trkpt>
      <trkpt lat="47.650100" lon="7.995767">
        <ele>861.868490</ele>
        <time>2021-11-22T10:21:39.876Z</time>
      </trkpt>
      <trkpt lat="47.649880" lon="7.995727">
        <ele>860.227076</ele>
        <time>2021-11-22T10:21:41.843Z</time>
      </trkpt>
      <trkpt lat="47.649633" lon="7.995910">
        <ele>858.174869</ele>
        <time>2021-11-22T10:21:44.284Z</time>
      </trkpt>
      <trkpt lat="47.649501" lon="7.996119">
        <ele>856.740133</ele>
        <time>2021-11-22T10:21:46.008Z</time>
      </trkpt>
      <trkpt lat="47.649446" lon="7.996217">
        <ele>856.101347</ele>
        <time>2021-11-22T10:21:46.767Z</time>
      </trkpt>
      <trkpt lat="47.649267" lon="7.996359">
        <ele>854.592553</ele>
        <time>2021-11-22T10:21:48.605Z</time>
      </trkpt>
      <trkpt lat="47.649036" lon="7.996383">
        <ele>852.871093</ele>
        <time>2021-11-22T10:21:50.675Z</time>
      </trkpt>
      <trkpt lat="47.649000" lon="7.996557">
        <ele>851.959516</ele>
        <time>2021-11-22T10:21:51.788Z</time>
      </trkpt>
      <trkpt lat="47.648943" lon="7.996727">
        <ele>851.008521</ele>
        <time>2021-11-22T10:21:52.924Z</time>
      </trkpt>
      <trkpt lat="47.648740" lon="7.996562">
        <ele>849.287988</ele>
        <time>2021-11-22T10:21:55.799Z</time>
      </trkpt>
      <trkpt lat="47.648519" lon="7.996541">
        <ele>847.710451</ele>
        <time>2021-11-22T10:21:58.631Z</time>
      </trkpt>
      <trkpt lat="47.648000" lon="7.996491">
        <ele>844.767909</ele>
        <time>2021-11-22T10:22:05.250Z</time>
      </trkpt>
      <trkpt lat="47.647514" lon="7.996025">
        <ele>841.494465</ele>
        <time>2021-11-22T10:22:12.913Z</time>
      </trkpt>
      <trkpt lat="47.647380" lon="7.995955">
        <ele>840.690750</ele>
        <time>2021-11-22T10:22:14.709Z</time>
      </trkpt>
      <trkpt lat="47.647323" lon="7.995930">
        <ele>840.354475</ele>
        <time>2021-11-22T10:22:15.465Z</time>
      </trkpt>
      <trkpt lat="47.647101" lon="7.995779">
        <ele>838.972869</ele>
        <time>2021-11-22T10:22:18.936Z</time>
      </trkpt>
      <trkpt lat="47.647045" lon="7.995675">
        <ele>838.465404</ele>
        <time>2021-11-22T10:22:20.126Z</time>
      </trkpt>
      <trkpt lat="47.647053" lon="7.995177">
        <ele>837.930768</ele>
        <time>2021-11-22T10:22:24.970Z</time>
      </trkpt>
      <trkpt lat="47.647038" lon="7.995032">
        <ele>838.014468</ele>
        <time>2021-11-22T10:22:27.082Z</time>
      </trkpt>
      <trkpt lat="47.646980" lon="7.994940">
        <ele>838.086357</ele>
        <time>2021-11-22T10:22:29.233Z</time>
      </trkpt>
      <trkpt lat="47.646888" lon="7.994902">
        <ele>838.167232</ele>
        <time>2021-11-22T10:22:30.599Z</time>
      </trkpt>
      <trkpt lat="47.646605" lon="7.994992">
        <ele>838.412343</ele>
        <time>2021-11-22T10:22:36.462Z</time>
      </trkpt>
      <trkpt lat="47.646196" lon="7.995247">
        <ele>838.788040</ele>
        <time>2021-11-22T10:22:46.217Z</time>
      </trkpt>
      <trkpt lat="47.645787" lon="7.995224">
        <ele>839.134670</ele>
        <time>2021-11-22T10:23:00.995Z</time>
      </trkpt>
      <trkpt lat="47.645698" lon="7.995252">
        <ele>839.211718</ele>
        <time>2021-11-22T10:23:05.289Z</time>
      </trkpt>
      <trkpt lat="47.645653" lon="7.995348">
        <ele>839.287671</ele>
        <time>2021-11-22T10:23:08.835Z</time>
      </trkpt>
      <trkpt lat="47.645591" lon="7.995851">
        <ele>840.916870</ele>
        <time>2021-11-22T10:23:23.175Z</time>
      </trkpt>
      <trkpt lat="47.645309" lon="7.996241">
        <ele>842.739647</ele>
        <time>2021-11-22T10:23:39.300Z</time>
      </trkpt>
      <trkpt lat="47.645055" lon="7.996521">
        <ele>844.235887</ele>
        <time>2021-11-22T10:23:52.595Z</time>
      </trkpt>
      <trkpt lat="47.644740" lon="7.996888">
        <ele>846.129668</ele>
        <time>2021-11-22T10:24:07.194Z</time>
      </trkpt>
      <trkpt lat="47.644596" lon="7.997035">
        <ele>846.956176</ele>
        <time>2021-11-22T10:24:12.330Z</time>
      </trkpt>
      <trkpt lat="47.644438" lon="7.997158">
        <ele>847.789241</ele>
        <time>2021-11-22T10:24:17.314Z</time>
      </trkpt>
      <trkpt lat="47.643844" lon="7.997483">
        <ele>848.954350</ele>
        <time>2021-11-22T10:24:34.362Z</time>
      </trkpt>
      <trkpt lat="47.642552" lon="7.998017">
        <ele>851.504080</ele>
        <time>2021-11-22T10:24:58.574Z</time>
      </trkpt>
      <trkpt lat="47.641770" lon="7.998048">
        <ele>853.299218</ele>
        <time>2021-11-22T10:25:15.777Z</time>
      </trkpt>
      <trkpt lat="47.641036" lon="7.997873">
        <ele>855.005162</ele>
        <time>2021-11-22T10:25:35.654Z</time>
      </trkpt>
      <trkpt lat="47.640815" lon="7.997823">
        <ele>855.628839</ele>
        <time>2021-11-22T10:25:41.991Z</time>
      </trkpt>
      <trkpt lat="47.640625" lon="7.997779">
        <ele>856.233984</ele>
        <time>2021-11-22T10:25:48.182Z</time>
      </trkpt>
      <trkpt lat="47.640155" lon="7.997748">
        <ele>857.714487</ele>
        <time>2021-11-22T10:26:02.885Z</time>
      </trkpt>
      <trkpt lat="47.639647" lon="7.997807">
        <ele>859.317999</ele>
        <time>2021-11-22T10:26:17.881Z</time>
      </trkpt>
      <trkpt lat="47.638986" lon="7.997647">
        <ele>860.601180</ele>
        <time>2021-11-22T10:26:34.775Z</time>
      </trkpt>
      <trkpt lat="47.638786" lon="7.997622">
        <ele>860.277933</ele>
        <time>2021-11-22T10:26:38.766Z</time>
      </trkpt>
      <trkpt lat="47.638668" lon="7.997624">
        <ele>860.087877</ele>
        <time>2021-11-22T10:26:40.108Z</time>
      </trkpt>
      <trkpt lat="47.637663" lon="7.997243">
        <ele>858.417318</ele>
        <time>2021-11-22T10:26:51.237Z</time>
      </trkpt>
      <trkpt lat="47.637224" lon="7.997041">
        <ele>856.997675</ele>
        <time>2021-11-22T10:26:55.659Z</time>
      </trkpt>
      <trkpt lat="47.637201" lon="7.997016">
        <ele>856.849948</ele>
        <time>2021-11-22T10:26:55.927Z</time>
      </trkpt>
      <trkpt lat="47.636864" lon="7.996812">
        <ele>854.964019</ele>
        <time>2021-11-22T10:26:59.358Z</time>
      </trkpt>
      <trkpt lat="47.636310" lon="7.996180">
        <ele>851.343193</ele>
        <time>2021-11-22T10:27:05.871Z</time>
      </trkpt>
      <trkpt lat="47.636073" lon="7.995739">
        <ele>849.373626</ele>
        <time>2021-11-22T10:27:09.389Z</time>
      </trkpt>
      <trkpt lat="47.635961" lon="7.995376">
        <ele>847.764130</ele>
        <time>2021-11-22T10:27:11.881Z</time>
      </trkpt>
      <trkpt lat="47.635644" lon="7.993534">
        <ele>839.034200</ele>
        <time>2021-11-22T10:27:23.493Z</time>
      </trkpt>
      <trkpt lat="47.635496" lon="7.992462">
        <ele>833.452346</ele>
        <time>2021-11-22T10:27:30.004Z</time>
      </trkpt>
      <trkpt lat="47.635416" lon="7.991898">
        <ele>830.190704</ele>
        <time>2021-11-22T10:27:33.375Z</time>
      </trkpt>
      <trkpt lat="47.635223" lon="7.991120">
        <ele>825.499090</ele>
        <time>2021-11-22T10:27:38.259Z</time>
      </trkpt>
      <trkpt lat="47.635172" lon="7.990723">
        <ele>823.211980</ele>
        <time>2021-11-22T10:27:40.638Z</time>
      </trkpt>
      <trkpt lat="47.635190" lon="7.990009">
        <ele>819.484405</ele>
        <time>2021-11-22T10:27:44.898Z</time>
      </trkpt>
      <trkpt lat="47.635202" lon="7.989852">
        <ele>818.722663</ele>
        <time>2021-11-22T10:27:45.816Z</time>
      </trkpt>
      <trkpt lat="47.635201" lon="7.989572">
        <ele>817.372781</ele>
        <time>2021-11-22T10:27:47.579Z</time>
      </trkpt>
      <trkpt lat="47.635279" lon="7.988526">
        <ele>812.299295</ele>
        <time>2021-11-22T10:27:54.002Z</time>
      </trkpt>
      <trkpt lat="47.635335" lon="7.988011">
        <ele>809.784397</ele>
        <time>2021-11-22T10:27:57.141Z</time>
      </trkpt>
      <trkpt lat="47.635440" lon="7.987355">
        <ele>806.382776</ele>
        <time>2021-11-22T10:28:02.937Z</time>
      </trkpt>
      <trkpt lat="47.635457" lon="7.987129">
        <ele>805.199254</ele>
        <time>2021-11-22T10:28:04.847Z</time>
      </trkpt>
      <trkpt lat="47.635422" lon="7.986299">
        <ele>800.871070</ele>
        <time>2021-11-22T10:28:12.188Z</time>
      </trkpt>
      <trkpt lat="47.635370" lon="7.985930">
        <ele>798.909062</ele>
        <time>2021-11-22T10:28:15.325Z</time>
      </trkpt>
      <trkpt lat="47.635166" lon="7.986036">
        <ele>797.239662</ele>
        <time>2021-11-22T10:28:17.190Z</time>
      </trkpt>
      <trkpt lat="47.634870" lon="7.986311">
        <ele>794.542425</ele>
        <time>2021-11-22T10:28:20.241Z</time>
      </trkpt>
      <trkpt lat="47.634415" lon="7.986884">
        <ele>790.750231</ele>
        <time>2021-11-22T10:28:25.521Z</time>
      </trkpt>
      <trkpt lat="47.634339" lon="7.986935">
        <ele>790.220225</ele>
        <time>2021-11-22T10:28:26.236Z</time>
      </trkpt>
      <trkpt lat="47.634251" lon="7.986971">
        <ele>789.640189</ele>
        <time>2021-11-22T10:28:27.044Z</time>
      </trkpt>
      <trkpt lat="47.634102" lon="7.987026">
        <ele>788.664549</ele>
        <time>2021-11-22T10:28:28.446Z</time>
      </trkpt>
      <trkpt lat="47.633835" lon="7.987140">
        <ele>786.899125</ele>
        <time>2021-11-22T10:28:30.983Z</time>
      </trkpt>
      <trkpt lat="47.633562" lon="7.987139">
        <ele>785.164398</ele>
        <time>2021-11-22T10:28:33.558Z</time>
      </trkpt>
      <trkpt lat="47.633095" lon="7.986989">
        <ele>783.048646</ele>
        <time>2021-11-22T10:28:38.322Z</time>
      </trkpt>
      <trkpt lat="47.633007" lon="7.986924">
        <ele>783.008493</ele>
        <time>2021-11-22T10:28:39.248Z</time>
      </trkpt>
      <trkpt lat="47.633442" lon="7.986219">
        <ele>782.745378</ele>
        <time>2021-11-22T10:28:46.640Z</time>
      </trkpt>
      <trkpt lat="47.633741" lon="7.985722">
        <ele>782.561990</ele>
        <time>2021-11-22T10:28:55.966Z</time>
      </trkpt>
      <trkpt lat="47.634382" lon="7.984814">
        <ele>782.736098</ele>
        <time>2021-11-22T10:29:16.493Z</time>
      </trkpt>
      <trkpt lat="47.634468" lon="7.984733">
        <ele>782.820389</ele>
        <time>2021-11-22T10:29:19.846Z</time>
      </trkpt>
      <trkpt lat="47.634506" lon="7.984696">
        <ele>782.858000</ele>
        <time>2021-11-22T10:29:20.359Z</time>
      </trkpt>
      <trkpt lat="47.634638" lon="7.984601">
        <ele>782.979402</ele>
        <time>2021-11-22T10:29:22.741Z</time>
      </trkpt>
      <trkpt lat="47.634817" lon="7.984495">
        <ele>783.138887</ele>
        <time>2021-11-22T10:29:27.339Z</time>
      </trkpt>
      <trkpt lat="47.635138" lon="7.984322">
        <ele>783.421498</ele>
        <time>2021-11-22T10:29:33.399Z</time>
      </trkpt>
      <trkpt lat="47.635100" lon="7.984285">
        <ele>783.459109</ele>
        <time>2021-11-22T10:29:37.756Z</time>
      </trkpt>
      <trkpt lat="47.634615" lon="7.984545">
        <ele>783.839887</ele>
        <time>2021-11-22T10:30:34.423Z</time>
      </trkpt>
      <trkpt lat="47.634230" lon="7.984918">
        <ele>783.356159</ele>
        <time>2021-11-22T10:31:24.129Z</time>
      </trkpt>
      <trkpt lat="47.633188" lon="7.986562">
        <ele>782.217433</ele>
        <time>2021-11-22T10:34:04.679Z</time>
      </trkpt>
      <trkpt lat="47.634230" lon="7.984918">
        <ele>784.015759</ele>
        <time>2021-11-22T10:37:04.372Z</time>
      </trkpt>
      <trkpt lat="47.634615" lon="7.984545">
        <ele>784.628068</ele>
        <time>2021-11-22T10:37:59.752Z</time>
      </trkpt>
      <trkpt lat="47.635100" lon="7.984285">
        <ele>785.328940</ele>
        <time>2021-11-22T10:39:00.602Z</time>
      </trkpt>
      <trkpt lat="47.635138" lon="7.984322">
        <ele>785.390711</ele>
        <time>2021-11-22T10:39:06.941Z</time>
      </trkpt>
      <trkpt lat="47.635311" lon="7.984184">
        <ele>785.657657</ele>
        <time>2021-11-22T10:39:10.116Z</time>
      </trkpt>
      <trkpt lat="47.635363" lon="7.984125">
        <ele>785.746622</ele>
        <time>2021-11-22T10:39:11.357Z</time>
      </trkpt>
      <trkpt lat="47.635550" lon="7.983913">
        <ele>786.066456</ele>
        <time>2021-11-22T10:39:15.875Z</time>
      </trkpt>
      <trkpt lat="47.636167" lon="7.983425">
        <ele>786.645161</ele>
        <time>2021-11-22T10:39:27.377Z</time>
      </trkpt>
      <trkpt lat="47.636362" lon="7.983140">
        <ele>786.724359</ele>
        <time>2021-11-22T10:39:31.516Z</time>
      </trkpt>
      <trkpt lat="47.636470" lon="7.982623">
        <ele>786.829901</ele>
        <time>2021-11-22T10:39:35.722Z</time>
      </trkpt>
      <trkpt lat="47.636685" lon="7.980585">
        <ele>788.606493</ele>
        <time>2021-11-22T10:40:01.151Z</time>
      </trkpt>
      <trkpt lat="47.636717" lon="7.980417">
        <ele>788.920700</ele>
        <time>2021-11-22T10:40:03.979Z</time>
      </trkpt>
      <trkpt lat="47.636749" lon="7.980255">
        <ele>789.224531</ele>
        <time>2021-11-22T10:40:07.407Z</time>
      </trkpt>
      <trkpt lat="47.636898" lon="7.979438">
        <ele>790.747836</ele>
        <time>2021-11-22T10:40:22.731Z</time>
      </trkpt>
      <trkpt lat="47.636860" lon="7.978383">
        <ele>793.181909</ele>
        <time>2021-11-22T10:40:45.489Z</time>
      </trkpt>
      <trkpt lat="47.637178" lon="7.977129">
        <ele>797.239800</ele>
        <time>2021-11-22T10:41:16.736Z</time>
      </trkpt>
      <trkpt lat="47.637166" lon="7.976669">
        <ele>798.633988</ele>
        <time>2021-11-22T10:41:26.808Z</time>
      </trkpt>
      <trkpt lat="47.637104" lon="7.976387">
        <ele>799.532360</ele>
        <time>2021-11-22T10:41:33.034Z</time>
      </trkpt>
      <trkpt lat="47.636964" lon="7.975901">
        <ele>801.103542</ele>
        <time>2021-11-22T10:41:44.145Z</time>
      </trkpt>
      <trkpt lat="47.636945" lon="7.975599">
        <ele>801.999126</ele>
        <time>2021-11-22T10:41:50.532Z</time>
      </trkpt>
      <trkpt lat="47.637015" lon="7.975296">
        <ele>802.944907</ele>
        <time>2021-11-22T10:41:57.264Z</time>
      </trkpt>
      <trkpt lat="47.637233" lon="7.974898">
        <ele>804.459346</ele>
        <time>2021-11-22T10:42:08.528Z</time>
      </trkpt>
      <trkpt lat="47.638035" lon="7.974142">
        <ele>808.571896</ele>
        <time>2021-11-22T10:42:40.691Z</time>
      </trkpt>
      <trkpt lat="47.638252" lon="7.973962">
        <ele>809.591031</ele>
        <time>2021-11-22T10:42:48.134Z</time>
      </trkpt>
      <trkpt lat="47.638636" lon="7.973699">
        <ele>811.324821</ele>
        <time>2021-11-22T10:43:00.826Z</time>
      </trkpt>
      <trkpt lat="47.638659" lon="7.973682">
        <ele>811.430158</ele>
        <time>2021-11-22T10:43:01.963Z</time>
      </trkpt>
      <trkpt lat="47.638981" lon="7.973418">
        <ele>812.938263</ele>
        <time>2021-11-22T10:43:13.182Z</time>
      </trkpt>
      <trkpt lat="47.639090" lon="7.973306">
        <ele>813.481764</ele>
        <time>2021-11-22T10:43:17.208Z</time>
      </trkpt>
      <trkpt lat="47.639276" lon="7.972938">
        <ele>814.752496</ele>
        <time>2021-11-22T10:43:26.844Z</time>
      </trkpt>
      <trkpt lat="47.639406" lon="7.972397">
        <ele>816.282902</ele>
        <time>2021-11-22T10:43:38.925Z</time>
      </trkpt>
      <trkpt lat="47.639559" lon="7.972018">
        <ele>817.442674</ele>
        <time>2021-11-22T10:43:47.739Z</time>
      </trkpt>
      <trkpt lat="47.640091" lon="7.971291">
        <ele>820.260028</ele>
        <time>2021-11-22T10:44:07.580Z</time>
      </trkpt>
      <trkpt lat="47.640810" lon="7.969935">
        <ele>825.815068</ele>
        <time>2021-11-22T10:44:46.866Z</time>
      </trkpt>
      <trkpt lat="47.640891" lon="7.969731">
        <ele>826.684316</ele>
        <time>2021-11-22T10:44:53.359Z</time>
      </trkpt>
      <trkpt lat="47.640944" lon="7.969376">
        <ele>828.019130</ele>
        <time>2021-11-22T10:45:01.513Z</time>
      </trkpt>
      <trkpt lat="47.640935" lon="7.969224">
        <ele>828.579272</ele>
        <time>2021-11-22T10:45:06.357Z</time>
      </trkpt>
      <trkpt lat="47.640883" lon="7.969015">
        <ele>829.397150</ele>
        <time>2021-11-22T10:45:11.641Z</time>
      </trkpt>
      <trkpt lat="47.640375" lon="7.968035">
        <ele>834.300500</ele>
        <time>2021-11-22T10:45:44.395Z</time>
      </trkpt>
      <trkpt lat="47.640078" lon="7.967066">
        <ele>838.949684</ele>
        <time>2021-11-22T10:46:14.772Z</time>
      </trkpt>
      <trkpt lat="47.639789" lon="7.965749">
        <ele>844.461202</ele>
        <time>2021-11-22T10:46:53.351Z</time>
      </trkpt>
      <trkpt lat="47.639729" lon="7.964910">
        <ele>846.650754</ele>
        <time>2021-11-22T10:47:14.337Z</time>
      </trkpt>
      <trkpt lat="47.639730" lon="7.964417">
        <ele>847.930164</ele>
        <time>2021-11-22T10:47:24.417Z</time>
      </trkpt>
      <trkpt lat="47.639767" lon="7.964127">
        <ele>848.696129</ele>
        <time>2021-11-22T10:47:29.536Z</time>
      </trkpt>
      <trkpt lat="47.639823" lon="7.963883">
        <ele>849.365069</ele>
        <time>2021-11-22T10:47:33.979Z</time>
      </trkpt>
      <trkpt lat="47.639917" lon="7.963604">
        <ele>850.174584</ele>
        <time>2021-11-22T10:47:38.627Z</time>
      </trkpt>
      <trkpt lat="47.640083" lon="7.963229">
        <ele>850.203998</ele>
        <time>2021-11-22T10:47:43.862Z</time>
      </trkpt>
      <trkpt lat="47.640149" lon="7.963092">
        <ele>849.968370</ele>
        <time>2021-11-22T10:47:45.955Z</time>
      </trkpt>
      <trkpt lat="47.640333" lon="7.962705">
        <ele>849.305695</ele>
        <time>2021-11-22T10:47:49.905Z</time>
      </trkpt>
      <trkpt lat="47.640559" lon="7.962232">
        <ele>848.494430</ele>
        <time>2021-11-22T10:47:54.066Z</time>
      </trkpt>
      <trkpt lat="47.640650" lon="7.961953">
        <ele>848.060758</ele>
        <time>2021-11-22T10:47:56.176Z</time>
      </trkpt>
      <trkpt lat="47.640752" lon="7.961642">
        <ele>847.576838</ele>
        <time>2021-11-22T10:47:58.479Z</time>
      </trkpt>
      <trkpt lat="47.640767" lon="7.961523">
        <ele>847.407460</ele>
        <time>2021-11-22T10:47:59.257Z</time>
      </trkpt>
      <trkpt lat="47.640787" lon="7.961359">
        <ele>847.174285</ele>
        <time>2021-11-22T10:48:00.279Z</time>
      </trkpt>
      <trkpt lat="47.640808" lon="7.961104">
        <ele>846.764139</ele>
        <time>2021-11-22T10:48:02.050Z</time>
      </trkpt>
      <trkpt lat="47.640798" lon="7.960852">
        <ele>846.065707</ele>
        <time>2021-11-22T10:48:03.609Z</time>
      </trkpt>
      <trkpt lat="47.640720" lon="7.960375">
        <ele>844.707650</ele>
        <time>2021-11-22T10:48:06.866Z</time>
      </trkpt>
      <trkpt lat="47.640711" lon="7.960295">
        <ele>844.483244</ele>
        <time>2021-11-22T10:48:07.341Z</time>
      </trkpt>
      <trkpt lat="47.640685" lon="7.960045">
        <ele>843.783361</ele>
        <time>2021-11-22T10:48:09.216Z</time>
      </trkpt>
      <trkpt lat="47.640685" lon="7.959821">
        <ele>843.163605</ele>
        <time>2021-11-22T10:48:10.625Z</time>
      </trkpt>
      <trkpt lat="47.640685" lon="7.959768">
        <ele>843.016967</ele>
        <time>2021-11-22T10:48:10.936Z</time>
      </trkpt>
      <trkpt lat="47.640717" lon="7.959400">
        <ele>841.990352</ele>
        <time>2021-11-22T10:48:13.531Z</time>
      </trkpt>
      <trkpt lat="47.640762" lon="7.959173">
        <ele>841.335677</ele>
        <time>2021-11-22T10:48:15.020Z</time>
      </trkpt>
      <trkpt lat="47.640856" lon="7.958970">
        <ele>840.654174</ele>
        <time>2021-11-22T10:48:16.791Z</time>
      </trkpt>
      <trkpt lat="47.640871" lon="7.958934">
        <ele>840.537064</ele>
        <time>2021-11-22T10:48:17.053Z</time>
      </trkpt>
      <trkpt lat="47.640964" lon="7.958802">
        <ele>840.008651</ele>
        <time>2021-11-22T10:48:18.202Z</time>
      </trkpt>
      <trkpt lat="47.641188" lon="7.958634">
        <ele>839.109542</ele>
        <time>2021-11-22T10:48:20.825Z</time>
      </trkpt>
      <trkpt lat="47.641294" lon="7.958578">
        <ele>838.768326</ele>
        <time>2021-11-22T10:48:21.842Z</time>
      </trkpt>
      <trkpt lat="47.641418" lon="7.958516">
        <ele>838.371516</ele>
        <time>2021-11-22T10:48:23.381Z</time>
      </trkpt>
      <trkpt lat="47.641574" lon="7.958423">
        <ele>837.861691</ele>
        <time>2021-11-22T10:48:25.019Z</time>
      </trkpt>
      <trkpt lat="47.641589" lon="7.958407">
        <ele>837.805672</ele>
        <time>2021-11-22T10:48:25.187Z</time>
      </trkpt>
      <trkpt lat="47.641842" lon="7.958150">
        <ele>836.875926</ele>
        <time>2021-11-22T10:48:28.364Z</time>
      </trkpt>
      <trkpt lat="47.641947" lon="7.957833">
        <ele>836.154173</ele>
        <time>2021-11-22T10:48:30.863Z</time>
      </trkpt>
      <trkpt lat="47.641955" lon="7.957683">
        <ele>835.846725</ele>
        <time>2021-11-22T10:48:31.869Z</time>
      </trkpt>
      <trkpt lat="47.641947" lon="7.957536">
        <ele>835.545387</ele>
        <time>2021-11-22T10:48:32.806Z</time>
      </trkpt>
      <trkpt lat="47.641798" lon="7.957096">
        <ele>834.539185</ele>
        <time>2021-11-22T10:48:36.351Z</time>
      </trkpt>
      <trkpt lat="47.641550" lon="7.956851">
        <ele>834.024497</ele>
        <time>2021-11-22T10:48:39.667Z</time>
      </trkpt>
      <trkpt lat="47.641084" lon="7.956545">
        <ele>834.017334</ele>
        <time>2021-11-22T10:48:45.332Z</time>
      </trkpt>
      <trkpt lat="47.640991" lon="7.956380">
        <ele>834.015296</ele>
        <time>2021-11-22T10:48:47.432Z</time>
      </trkpt>
      <trkpt lat="47.640998" lon="7.956247">
        <ele>834.014033</ele>
        <time>2021-11-22T10:48:48.499Z</time>
      </trkpt>
      <trkpt lat="47.641056" lon="7.956097">
        <ele>834.012395</ele>
        <time>2021-11-22T10:48:49.837Z</time>
      </trkpt>
      <trkpt lat="47.640501" lon="7.955695">
        <ele>834.003714</ele>
        <time>2021-11-22T10:49:03.434Z</time>
      </trkpt>
      <trkpt lat="47.640167" lon="7.955381">
        <ele>834.616239</ele>
        <time>2021-11-22T10:49:12.615Z</time>
      </trkpt>
      <trkpt lat="47.639795" lon="7.954985">
        <ele>835.996756</ele>
        <time>2021-11-22T10:49:23.888Z</time>
      </trkpt>
      <trkpt lat="47.639696" lon="7.954882">
        <ele>836.361346</ele>
        <time>2021-11-22T10:49:27.488Z</time>
      </trkpt>
      <trkpt lat="47.639497" lon="7.954714">
        <ele>837.051739</ele>
        <time>2021-11-22T10:49:33.748Z</time>
      </trkpt>
      <trkpt lat="47.639207" lon="7.954547">
        <ele>837.989780</ele>
        <time>2021-11-22T10:49:42.680Z</time>
      </trkpt>
      <trkpt lat="47.638760" lon="7.954525">
        <ele>839.338483</ele>
        <time>2021-11-22T10:49:55.654Z</time>
      </trkpt>
      <trkpt lat="47.637932" lon="7.954791">
        <ele>842.663510</ele>
        <time>2021-11-22T10:50:20.734Z</time>
      </trkpt>
      <trkpt lat="47.637714" lon="7.954725">
        <ele>843.543834</ele>
        <time>2021-11-22T10:50:27.015Z</time>
      </trkpt>
      <trkpt lat="47.637492" lon="7.954483">
        <ele>844.633713</ele>
        <time>2021-11-22T10:50:34.873Z</time>
      </trkpt>
      <trkpt lat="47.637400" lon="7.954079">
        <ele>845.770665</ele>
        <time>2021-11-22T10:50:43.624Z</time>
      </trkpt>
      <trkpt lat="47.637300" lon="7.951504">
        <ele>854.760508</ele>
        <time>2021-11-22T10:51:48.017Z</time>
      </trkpt>
      <trkpt lat="47.637306" lon="7.951326">
        <ele>855.400127</ele>
        <time>2021-11-22T10:51:53.299Z</time>
      </trkpt>
      <trkpt lat="47.637337" lon="7.951149">
        <ele>856.056466</ele>
        <time>2021-11-22T10:51:57.438Z</time>
      </trkpt>
      <trkpt lat="47.637383" lon="7.950993">
        <ele>856.462031</ele>
        <time>2021-11-22T10:52:00.721Z</time>
      </trkpt>
      <trkpt lat="47.637451" lon="7.950859">
        <ele>856.837448</ele>
        <time>2021-11-22T10:52:05.410Z</time>
      </trkpt>
      <trkpt lat="47.637598" lon="7.950642">
        <ele>857.526073</ele>
        <time>2021-11-22T10:52:11.695Z</time>
      </trkpt>
      <trkpt lat="47.637813" lon="7.950431">
        <ele>858.382155</ele>
        <time>2021-11-22T10:52:20.368Z</time>
      </trkpt>
      <trkpt lat="47.638433" lon="7.949786">
        <ele>860.896876</ele>
        <time>2021-11-22T10:52:41.705Z</time>
      </trkpt>
      <trkpt lat="47.638845" lon="7.949151">
        <ele>861.983876</ele>
        <time>2021-11-22T10:52:53.392Z</time>
      </trkpt>
      <trkpt lat="47.639038" lon="7.948758">
        <ele>861.827294</ele>
        <time>2021-11-22T10:52:58.286Z</time>
      </trkpt>
      <trkpt lat="47.639170" lon="7.948455">
        <ele>861.711119</ele>
        <time>2021-11-22T10:53:01.550Z</time>
      </trkpt>
      <trkpt lat="47.639254" lon="7.948202">
        <ele>861.620305</ele>
        <time>2021-11-22T10:53:04.099Z</time>
      </trkpt>
      <trkpt lat="47.639305" lon="7.947792">
        <ele>861.486063</ele>
        <time>2021-11-22T10:53:07.422Z</time>
      </trkpt>
      <trkpt lat="47.639245" lon="7.947417">
        <ele>861.361963</ele>
        <time>2021-11-22T10:53:10.376Z</time>
      </trkpt>
      <trkpt lat="47.639171" lon="7.947230">
        <ele>861.292136</ele>
        <time>2021-11-22T10:53:12.224Z</time>
      </trkpt>
      <trkpt lat="47.639079" lon="7.947097">
        <ele>861.221039</ele>
        <time>2021-11-22T10:53:13.485Z</time>
      </trkpt>
      <trkpt lat="47.638801" lon="7.946735">
        <ele>860.702440</ele>
        <time>2021-11-22T10:53:17.578Z</time>
      </trkpt>
      <trkpt lat="47.638633" lon="7.946522">
        <ele>860.392605</ele>
        <time>2021-11-22T10:53:20.325Z</time>
      </trkpt>
      <trkpt lat="47.638601" lon="7.946470">
        <ele>860.326067</ele>
        <time>2021-11-22T10:53:20.879Z</time>
      </trkpt>
      <trkpt lat="47.638490" lon="7.946296">
        <ele>860.099672</ele>
        <time>2021-11-22T10:53:22.546Z</time>
      </trkpt>
      <trkpt lat="47.638187" lon="7.945494">
        <ele>859.230923</ele>
        <time>2021-11-22T10:53:30.055Z</time>
      </trkpt>
      <trkpt lat="47.638180" lon="7.945471">
        <ele>859.207078</ele>
        <time>2021-11-22T10:53:30.197Z</time>
      </trkpt>
      <trkpt lat="47.638087" lon="7.945165">
        <ele>858.889906</ele>
        <time>2021-11-22T10:53:33.154Z</time>
      </trkpt>
      <trkpt lat="47.637977" lon="7.944887">
        <ele>858.707111</ele>
        <time>2021-11-22T10:53:35.621Z</time>
      </trkpt>
      <trkpt lat="47.637846" lon="7.944700">
        <ele>858.694104</ele>
        <time>2021-11-22T10:53:38.330Z</time>
      </trkpt>
      <trkpt lat="47.637690" lon="7.944520">
        <ele>858.679964</ele>
        <time>2021-11-22T10:53:40.865Z</time>
      </trkpt>
      <trkpt lat="47.637583" lon="7.944404">
        <ele>858.670481</ele>
        <time>2021-11-22T10:53:43.048Z</time>
      </trkpt>
      <trkpt lat="47.637442" lon="7.944256">
        <ele>858.658123</ele>
        <time>2021-11-22T10:53:45.607Z</time>
      </trkpt>
      <trkpt lat="47.637316" lon="7.944402">
        <ele>858.646683</ele>
        <time>2021-11-22T10:53:48.447Z</time>
      </trkpt>
      <trkpt lat="47.636926" lon="7.944520">
        <ele>858.618200</ele>
        <time>2021-11-22T10:53:54.747Z</time>
      </trkpt>
      <trkpt lat="47.636517" lon="7.944381">
        <ele>858.588175</ele>
        <time>2021-11-22T10:54:01.550Z</time>
      </trkpt>
      <trkpt lat="47.636440" lon="7.944352">
        <ele>858.576486</ele>
        <time>2021-11-22T10:54:03.003Z</time>
      </trkpt>
      <trkpt lat="47.636341" lon="7.944314">
        <ele>858.551311</ele>
        <time>2021-11-22T10:54:04.754Z</time>
      </trkpt>
      <trkpt lat="47.636224" lon="7.944307">
        <ele>858.522484</ele>
        <time>2021-11-22T10:54:06.241Z</time>
      </trkpt>
      <trkpt lat="47.636029" lon="7.944437">
        <ele>858.469857</ele>
        <time>2021-11-22T10:54:09.476Z</time>
      </trkpt>
      <trkpt lat="47.635520" lon="7.945990">
        <ele>858.183372</ele>
        <time>2021-11-22T10:54:25.085Z</time>
      </trkpt>
      <trkpt lat="47.635305" lon="7.946397">
        <ele>858.424954</ele>
        <time>2021-11-22T10:54:29.594Z</time>
      </trkpt>
      <trkpt lat="47.634967" lon="7.946762">
        <ele>859.077919</ele>
        <time>2021-11-22T10:54:35.252Z</time>
      </trkpt>
      <trkpt lat="47.634741" lon="7.946805">
        <ele>859.433834</ele>
        <time>2021-11-22T10:54:39.987Z</time>
      </trkpt>
      <trkpt lat="47.634598" lon="7.946753">
        <ele>859.663816</ele>
        <time>2021-11-22T10:54:43.179Z</time>
      </trkpt>
      <trkpt lat="47.634437" lon="7.946594">
        <ele>859.965906</ele>
        <time>2021-11-22T10:54:48.237Z</time>
      </trkpt>
      <trkpt lat="47.634304" lon="7.946352">
        <ele>860.294615</ele>
        <time>2021-11-22T10:54:53.349Z</time>
      </trkpt>
      <trkpt lat="47.633987" lon="7.945419">
        <ele>861.903011</ele>
        <time>2021-11-22T10:55:13.362Z</time>
      </trkpt>
      <trkpt lat="47.633902" lon="7.945296">
        <ele>862.301474</ele>
        <time>2021-11-22T10:55:16.419Z</time>
      </trkpt>
      <trkpt lat="47.633818" lon="7.945221">
        <ele>862.630495</ele>
        <time>2021-11-22T10:55:20.771Z</time>
      </trkpt>
      <trkpt lat="47.633720" lon="7.945173">
        <ele>862.976861</ele>
        <time>2021-11-22T10:55:23.155Z</time>
      </trkpt>
      <trkpt lat="47.633664" lon="7.945157">
        <ele>863.168263</ele>
        <time>2021-11-22T10:55:24.324Z</time>
      </trkpt>
      <trkpt lat="47.633591" lon="7.945179">
        <ele>863.418272</ele>
        <time>2021-11-22T10:55:26.098Z</time>
      </trkpt>
      <trkpt lat="47.633591" lon="7.945179">
        <ele>863.418272</ele>
        <time>2021-11-22T10:55:26.141Z</time>
      </trkpt>
      <trkpt lat="47.633498" lon="7.945219">
        <ele>863.743250</ele>
        <time>2021-11-22T10:55:30.180Z</time>
      </trkpt>
      <trkpt lat="47.632250" lon="7.946421">
        <ele>867.208435</ele>
        <time>2021-11-22T10:56:11.408Z</time>
      </trkpt>
      <trkpt lat="47.632015" lon="7.946574">
        <ele>867.316811</ele>
        <time>2021-11-22T10:56:15.192Z</time>
      </trkpt>
      <trkpt lat="47.631252" lon="7.946953">
        <ele>867.656611</ele>
        <time>2021-11-22T10:56:25.634Z</time>
      </trkpt>
      <trkpt lat="47.630971" lon="7.947084">
        <ele>867.506702</ele>
        <time>2021-11-22T10:56:29.071Z</time>
      </trkpt>
      <trkpt lat="47.630672" lon="7.947236">
        <ele>866.529351</ele>
        <time>2021-11-22T10:56:32.605Z</time>
      </trkpt>
      <trkpt lat="47.629991" lon="7.947744">
        <ele>864.172373</ele>
        <time>2021-11-22T10:56:40.297Z</time>
      </trkpt>
      <trkpt lat="47.629363" lon="7.948362">
        <ele>861.692682</ele>
        <time>2021-11-22T10:56:47.657Z</time>
      </trkpt>
      <trkpt lat="47.629285" lon="7.948439">
        <ele>861.277072</ele>
        <time>2021-11-22T10:56:48.531Z</time>
      </trkpt>
      <trkpt lat="47.629252" lon="7.948471">
        <ele>861.102186</ele>
        <time>2021-11-22T10:56:48.917Z</time>
      </trkpt>
      <trkpt lat="47.629112" lon="7.948574">
        <ele>860.408957</ele>
        <time>2021-11-22T10:56:50.457Z</time>
      </trkpt>
      <trkpt lat="47.629018" lon="7.948689">
        <ele>859.868487</ele>
        <time>2021-11-22T10:56:51.622Z</time>
      </trkpt>
      <trkpt lat="47.628909" lon="7.948921">
        <ele>859.022952</ele>
        <time>2021-11-22T10:56:53.449Z</time>
      </trkpt>
      <trkpt lat="47.628855" lon="7.948997">
        <ele>858.692774</ele>
        <time>2021-11-22T10:56:54.138Z</time>
      </trkpt>
      <trkpt lat="47.628255" lon="7.949609">
        <ele>855.462774</ele>
        <time>2021-11-22T10:57:00.971Z</time>
      </trkpt>
      <trkpt lat="47.628154" lon="7.949804">
        <ele>854.727480</ele>
        <time>2021-11-22T10:57:02.577Z</time>
      </trkpt>
      <trkpt lat="47.628018" lon="7.949775">
        <ele>854.138064</ele>
        <time>2021-11-22T10:57:03.968Z</time>
      </trkpt>
      <trkpt lat="47.627819" lon="7.949787">
        <ele>853.454484</ele>
        <time>2021-11-22T10:57:05.935Z</time>
      </trkpt>
      <trkpt lat="47.627702" lon="7.949801">
        <ele>853.051608</ele>
        <time>2021-11-22T10:57:07.238Z</time>
      </trkpt>
      <trkpt lat="47.627472" lon="7.949828">
        <ele>852.259726</ele>
        <time>2021-11-22T10:57:09.532Z</time>
      </trkpt>
      <trkpt lat="47.627309" lon="7.949824">
        <ele>851.700195</ele>
        <time>2021-11-22T10:57:11.344Z</time>
      </trkpt>
      <trkpt lat="47.627208" lon="7.949813">
        <ele>851.352606</ele>
        <time>2021-11-22T10:57:12.321Z</time>
      </trkpt>
      <trkpt lat="47.627110" lon="7.949777">
        <ele>851.006091</ele>
        <time>2021-11-22T10:57:13.496Z</time>
      </trkpt>
      <trkpt lat="47.626859" lon="7.949688">
        <ele>850.120341</ele>
        <time>2021-11-22T10:57:16.157Z</time>
      </trkpt>
      <trkpt lat="47.626859" lon="7.949688">
        <ele>850.120341</ele>
        <time>2021-11-22T10:57:16.168Z</time>
      </trkpt>
      <trkpt lat="47.626752" lon="7.949657">
        <ele>849.746156</ele>
        <time>2021-11-22T10:57:17.347Z</time>
      </trkpt>
      <trkpt lat="47.626683" lon="7.949637">
        <ele>849.504855</ele>
        <time>2021-11-22T10:57:18.013Z</time>
      </trkpt>
      <trkpt lat="47.626401" lon="7.949689">
        <ele>848.529518</ele>
        <time>2021-11-22T10:57:20.788Z</time>
      </trkpt>
      <trkpt lat="47.626137" lon="7.949956">
        <ele>847.207994</ele>
        <time>2021-11-22T10:57:23.866Z</time>
      </trkpt>
      <trkpt lat="47.626078" lon="7.950083">
        <ele>846.717534</ele>
        <time>2021-11-22T10:57:24.958Z</time>
      </trkpt>
      <trkpt lat="47.626026" lon="7.950244">
        <ele>846.149857</ele>
        <time>2021-11-22T10:57:26.062Z</time>
      </trkpt>
      <trkpt lat="47.625896" lon="7.950889">
        <ele>844.009213</ele>
        <time>2021-11-22T10:57:30.587Z</time>
      </trkpt>
      <trkpt lat="47.625850" lon="7.951040">
        <ele>843.482309</ele>
        <time>2021-11-22T10:57:31.600Z</time>
      </trkpt>
      <trkpt lat="47.625812" lon="7.951163">
        <ele>843.052074</ele>
        <time>2021-11-22T10:57:32.422Z</time>
      </trkpt>
      <trkpt lat="47.625460" lon="7.951852">
        <ele>840.302969</ele>
        <time>2021-11-22T10:57:37.840Z</time>
      </trkpt>
      <trkpt lat="47.625338" lon="7.952002">
        <ele>839.555452</ele>
        <time>2021-11-22T10:57:39.345Z</time>
      </trkpt>
      <trkpt lat="47.625089" lon="7.952131">
        <ele>838.837049</ele>
        <time>2021-11-22T10:57:41.821Z</time>
      </trkpt>
      <trkpt lat="47.624864" lon="7.952108">
        <ele>838.225545</ele>
        <time>2021-11-22T10:57:44.098Z</time>
      </trkpt>
      <trkpt lat="47.624794" lon="7.952070">
        <ele>838.023445</ele>
        <time>2021-11-22T10:57:44.730Z</time>
      </trkpt>
      <trkpt lat="47.624692" lon="7.951963">
        <ele>837.684744</ele>
        <time>2021-11-22T10:57:45.948Z</time>
      </trkpt>
      <trkpt lat="47.624014" lon="7.951018">
        <ele>835.162519</ele>
        <time>2021-11-22T10:57:56.128Z</time>
      </trkpt>
      <trkpt lat="47.623553" lon="7.950603">
        <ele>835.599661</ele>
        <time>2021-11-22T10:58:04.468Z</time>
      </trkpt>
      <trkpt lat="47.623105" lon="7.950303">
        <ele>836.875122</ele>
        <time>2021-11-22T10:58:17.331Z</time>
      </trkpt>
      <trkpt lat="47.622946" lon="7.950255">
        <ele>837.296174</ele>
        <time>2021-11-22T10:58:22.379Z</time>
      </trkpt>
      <trkpt lat="47.622642" lon="7.950331">
        <ele>838.096159</ele>
        <time>2021-11-22T10:58:31.074Z</time>
      </trkpt>
      <trkpt lat="47.622427" lon="7.950567">
        <ele>838.790167</ele>
        <time>2021-11-22T10:58:39.208Z</time>
      </trkpt>
      <trkpt lat="47.622278" lon="7.951027">
        <ele>840.019090</ele>
        <time>2021-11-22T10:58:49.665Z</time>
      </trkpt>
      <trkpt lat="47.622272" lon="7.951112">
        <ele>840.314484</ele>
        <time>2021-11-22T10:58:51.829Z</time>
      </trkpt>
      <trkpt lat="47.622265" lon="7.951206">
        <ele>840.641355</ele>
        <time>2021-11-22T10:58:53.413Z</time>
      </trkpt>
      <trkpt lat="47.622185" lon="7.951242">
        <ele>841.070047</ele>
        <time>2021-11-22T10:58:56.938Z</time>
      </trkpt>
      <trkpt lat="47.622076" lon="7.951302">
        <ele>841.666225</ele>
        <time>2021-11-22T10:58:59.995Z</time>
      </trkpt>
      <trkpt lat="47.621546" lon="7.951345">
        <ele>844.388104</ele>
        <time>2021-11-22T10:59:19.500Z</time>
      </trkpt>
      <trkpt lat="47.621172" lon="7.951487">
        <ele>846.367766</ele>
        <time>2021-11-22T10:59:34.439Z</time>
      </trkpt>
      <trkpt lat="47.620663" lon="7.951396">
        <ele>848.892759</ele>
        <time>2021-11-22T10:59:53.850Z</time>
      </trkpt>
      <trkpt lat="47.620471" lon="7.951390">
        <ele>849.642118</ele>
        <time>2021-11-22T11:00:00.979Z</time>
      </trkpt>
      <trkpt lat="47.620223" lon="7.951437">
        <ele>850.617687</ele>
        <time>2021-11-22T11:00:08.818Z</time>
      </trkpt>
      <trkpt lat="47.620184" lon="7.951444">
        <ele>850.770977</ele>
        <time>2021-11-22T11:00:10.789Z</time>
      </trkpt>
      <trkpt lat="47.618671" lon="7.951343">
        <ele>855.190862</ele>
        <time>2021-11-22T11:00:54.477Z</time>
      </trkpt>
      <trkpt lat="47.618483" lon="7.951366">
        <ele>854.930598</ele>
        <time>2021-11-22T11:00:57.525Z</time>
      </trkpt>
      <trkpt lat="47.618278" lon="7.951491">
        <ele>854.624802</ele>
        <time>2021-11-22T11:01:00.122Z</time>
      </trkpt>
      <trkpt lat="47.618199" lon="7.951419">
        <ele>854.496881</ele>
        <time>2021-11-22T11:01:01.363Z</time>
      </trkpt>
      <trkpt lat="47.617993" lon="7.951246">
        <ele>854.170283</ele>
        <time>2021-11-22T11:01:03.900Z</time>
      </trkpt>
      <trkpt lat="47.617931" lon="7.951183">
        <ele>854.066600</ele>
        <time>2021-11-22T11:01:04.875Z</time>
      </trkpt>
      <trkpt lat="47.617570" lon="7.950854">
        <ele>853.482053</ele>
        <time>2021-11-22T11:01:09.209Z</time>
      </trkpt>
      <trkpt lat="47.616863" lon="7.950415">
        <ele>850.125062</ele>
        <time>2021-11-22T11:01:16.428Z</time>
      </trkpt>
      <trkpt lat="47.616253" lon="7.949690">
        <ele>845.366563</ele>
        <time>2021-11-22T11:01:23.460Z</time>
      </trkpt>
      <trkpt lat="47.615966" lon="7.949509">
        <ele>843.467989</ele>
        <time>2021-11-22T11:01:26.267Z</time>
      </trkpt>
      <trkpt lat="47.615810" lon="7.949499">
        <ele>842.517385</ele>
        <time>2021-11-22T11:01:27.708Z</time>
      </trkpt>
      <trkpt lat="47.615702" lon="7.949521">
        <ele>841.855749</ele>
        <time>2021-11-22T11:01:28.677Z</time>
      </trkpt>
      <trkpt lat="47.614682" lon="7.949596">
        <ele>835.681267</ele>
        <time>2021-11-22T11:01:42.152Z</time>
      </trkpt>
      <trkpt lat="47.614487" lon="7.949642">
        <ele>834.487485</ele>
        <time>2021-11-22T11:01:44.713Z</time>
      </trkpt>
      <trkpt lat="47.613749" lon="7.950023">
        <ele>829.803135</ele>
        <time>2021-11-22T11:01:54.965Z</time>
      </trkpt>
      <trkpt lat="47.613296" lon="7.950348">
        <ele>826.841508</ele>
        <time>2021-11-22T11:02:01.600Z</time>
      </trkpt>
      <trkpt lat="47.612472" lon="7.951053">
        <ele>821.242914</ele>
        <time>2021-11-22T11:02:14.112Z</time>
      </trkpt>
      <trkpt lat="47.610709" lon="7.952777">
        <ele>810.004493</ele>
        <time>2021-11-22T11:02:42.053Z</time>
      </trkpt>
      <trkpt lat="47.610490" lon="7.952871">
        <ele>809.335741</ele>
        <time>2021-11-22T11:02:45.271Z</time>
      </trkpt>
      <trkpt lat="47.609926" lon="7.952845">
        <ele>807.680551</ele>
        <time>2021-11-22T11:02:53.637Z</time>
      </trkpt>
      <trkpt lat="47.609848" lon="7.952864">
        <ele>807.448688</ele>
        <time>2021-11-22T11:02:54.784Z</time>
      </trkpt>
      <trkpt lat="47.609390" lon="7.951204">
        <ele>804.861620</ele>
        <time>2021-11-22T11:03:08.777Z</time>
      </trkpt>
      <trkpt lat="47.609119" lon="7.950532">
        <ele>804.325537</ele>
        <time>2021-11-22T11:03:16.009Z</time>
      </trkpt>
      <trkpt lat="47.608916" lon="7.950126">
        <ele>803.979484</ele>
        <time>2021-11-22T11:03:20.506Z</time>
      </trkpt>
      <trkpt lat="47.608814" lon="7.949946">
        <ele>803.818505</ele>
        <time>2021-11-22T11:03:22.617Z</time>
      </trkpt>
      <trkpt lat="47.608598" lon="7.949608">
        <ele>803.420264</ele>
        <time>2021-11-22T11:03:26.359Z</time>
      </trkpt>
      <trkpt lat="47.608258" lon="7.949098">
        <ele>802.038617</ele>
        <time>2021-11-22T11:03:31.657Z</time>
      </trkpt>
      <trkpt lat="47.607428" lon="7.947861">
        <ele>798.676694</ele>
        <time>2021-11-22T11:03:43.555Z</time>
      </trkpt>
      <trkpt lat="47.607177" lon="7.947456">
        <ele>797.398797</ele>
        <time>2021-11-22T11:03:47.152Z</time>
      </trkpt>
      <trkpt lat="47.607053" lon="7.947037">
        <ele>796.273025</ele>
        <time>2021-11-22T11:03:50.126Z</time>
      </trkpt>
      <trkpt lat="47.607026" lon="7.946800">
        <ele>795.681684</ele>
        <time>2021-11-22T11:03:51.694Z</time>
      </trkpt>
      <trkpt lat="47.607053" lon="7.946387">
        <ele>794.660842</ele>
        <time>2021-11-22T11:03:54.417Z</time>
      </trkpt>
      <trkpt lat="47.607219" lon="7.945696">
        <ele>792.856129</ele>
        <time>2021-11-22T11:03:59.294Z</time>
      </trkpt>
      <trkpt lat="47.607532" lon="7.944721">
        <ele>790.078200</ele>
        <time>2021-11-22T11:04:06.929Z</time>
      </trkpt>
      <trkpt lat="47.607673" lon="7.944452">
        <ele>789.178046</ele>
        <time>2021-11-22T11:04:09.462Z</time>
      </trkpt>
      <trkpt lat="47.607934" lon="7.944298">
        <ele>788.077387</ele>
        <time>2021-11-22T11:04:12.634Z</time>
      </trkpt>
      <trkpt lat="47.608484" lon="7.944152">
        <ele>785.888011</ele>
        <time>2021-11-22T11:04:17.975Z</time>
      </trkpt>
      <trkpt lat="47.609294" lon="7.943637">
        <ele>778.917053</ele>
        <time>2021-11-22T11:04:25.933Z</time>
      </trkpt>
      <trkpt lat="47.609350" lon="7.943593">
        <ele>778.298330</ele>
        <time>2021-11-22T11:04:26.470Z</time>
      </trkpt>
      <trkpt lat="47.609814" lon="7.943160">
        <ele>772.946121</ele>
        <time>2021-11-22T11:04:31.162Z</time>
      </trkpt>
      <trkpt lat="47.610014" lon="7.942918">
        <ele>770.426140</ele>
        <time>2021-11-22T11:04:33.330Z</time>
      </trkpt>
      <trkpt lat="47.610065" lon="7.942722">
        <ele>769.043266</ele>
        <time>2021-11-22T11:04:34.523Z</time>
      </trkpt>
      <trkpt lat="47.610075" lon="7.942547">
        <ele>767.887247</ele>
        <time>2021-11-22T11:04:35.505Z</time>
      </trkpt>
      <trkpt lat="47.609950" lon="7.942351">
        <ele>766.189276</ele>
        <time>2021-11-22T11:04:37.097Z</time>
      </trkpt>
      <trkpt lat="47.609824" lon="7.942206">
        <ele>764.740527</ele>
        <time>2021-11-22T11:04:38.417Z</time>
      </trkpt>
      <trkpt lat="47.609660" lon="7.942072">
        <ele>763.039579</ele>
        <time>2021-11-22T11:04:40.041Z</time>
      </trkpt>
      <trkpt lat="47.609328" lon="7.941802">
        <ele>759.599935</ele>
        <time>2021-11-22T11:04:43.300Z</time>
      </trkpt>
      <trkpt lat="47.609231" lon="7.941717">
        <ele>758.576447</ele>
        <time>2021-11-22T11:04:44.251Z</time>
      </trkpt>
      <trkpt lat="47.608985" lon="7.941282">
        <ele>755.099038</ele>
        <time>2021-11-22T11:04:47.637Z</time>
      </trkpt>
      <trkpt lat="47.608976" lon="7.941180">
        <ele>754.468995</ele>
        <time>2021-11-22T11:04:48.224Z</time>
      </trkpt>
      <trkpt lat="47.608986" lon="7.941047">
        <ele>753.649365</ele>
        <time>2021-11-22T11:04:49.639Z</time>
      </trkpt>
      <trkpt lat="47.609156" lon="7.940638">
        <ele>750.800291</ele>
        <time>2021-11-22T11:04:52.513Z</time>
      </trkpt>
      <trkpt lat="47.609697" lon="7.940207">
        <ele>748.035852</ele>
        <time>2021-11-22T11:04:58.510Z</time>
      </trkpt>
      <trkpt lat="47.610427" lon="7.939448">
        <ele>744.022733</ele>
        <time>2021-11-22T11:05:07.545Z</time>
      </trkpt>
      <trkpt lat="47.610663" lon="7.939057">
        <ele>742.290522</ele>
        <time>2021-11-22T11:05:10.856Z</time>
      </trkpt>
      <trkpt lat="47.611668" lon="7.937036">
        <ele>731.760241</ele>
        <time>2021-11-22T11:05:26.143Z</time>
      </trkpt>
      <trkpt lat="47.612157" lon="7.936591">
        <ele>729.005185</ele>
        <time>2021-11-22T11:05:31.479Z</time>
      </trkpt>
      <trkpt lat="47.612760" lon="7.936192">
        <ele>725.875933</ele>
        <time>2021-11-22T11:05:37.890Z</time>
      </trkpt>
      <trkpt lat="47.613611" lon="7.935811">
        <ele>721.233275</ele>
        <time>2021-11-22T11:05:46.552Z</time>
      </trkpt>
      <trkpt lat="47.613843" lon="7.935758">
        <ele>719.784284</ele>
        <time>2021-11-22T11:05:48.804Z</time>
      </trkpt>
      <trkpt lat="47.614095" lon="7.935725">
        <ele>718.222669</ele>
        <time>2021-11-22T11:05:51.155Z</time>
      </trkpt>
      <trkpt lat="47.615166" lon="7.935713">
        <ele>711.439456</ele>
        <time>2021-11-22T11:06:00.773Z</time>
      </trkpt>
      <trkpt lat="47.615451" lon="7.935602">
        <ele>708.775300</ele>
        <time>2021-11-22T11:06:03.336Z</time>
      </trkpt>
      <trkpt lat="47.615705" lon="7.935396">
        <ele>706.157957</ele>
        <time>2021-11-22T11:06:05.842Z</time>
      </trkpt>
      <trkpt lat="47.616262" lon="7.934487">
        <ele>698.670881</ele>
        <time>2021-11-22T11:06:13.023Z</time>
      </trkpt>
      <trkpt lat="47.616672" lon="7.934051">
        <ele>694.013351</ele>
        <time>2021-11-22T11:06:17.396Z</time>
      </trkpt>
      <trkpt lat="47.616878" lon="7.934048">
        <ele>692.039037</ele>
        <time>2021-11-22T11:06:19.177Z</time>
      </trkpt>
      <trkpt lat="47.617409" lon="7.934240">
        <ele>686.801175</ele>
        <time>2021-11-22T11:06:23.928Z</time>
      </trkpt>
      <trkpt lat="47.617581" lon="7.934210">
        <ele>685.141445</ele>
        <time>2021-11-22T11:06:25.428Z</time>
      </trkpt>
      <trkpt lat="47.618969" lon="7.933585">
        <ele>670.152684</ele>
        <time>2021-11-22T11:06:37.919Z</time>
      </trkpt>
      <trkpt lat="47.619096" lon="7.933469">
        <ele>668.508728</ele>
        <time>2021-11-22T11:06:39.185Z</time>
      </trkpt>
      <trkpt lat="47.619255" lon="7.933163">
        <ele>665.638020</ele>
        <time>2021-11-22T11:06:41.418Z</time>
      </trkpt>
      <trkpt lat="47.619818" lon="7.932353">
        <ele>657.036826</ele>
        <time>2021-11-22T11:06:48.040Z</time>
      </trkpt>
      <trkpt lat="47.620106" lon="7.931975">
        <ele>652.909482</ele>
        <time>2021-11-22T11:06:51.274Z</time>
      </trkpt>
      <trkpt lat="47.620440" lon="7.931519">
        <ele>648.037495</ele>
        <time>2021-11-22T11:06:55.131Z</time>
      </trkpt>
      <trkpt lat="47.620523" lon="7.931338">
        <ele>646.453680</ele>
        <time>2021-11-22T11:06:56.372Z</time>
      </trkpt>
      <trkpt lat="47.620633" lon="7.930854">
        <ele>642.758337</ele>
        <time>2021-11-22T11:06:59.342Z</time>
      </trkpt>
      <trkpt lat="47.620770" lon="7.930392">
        <ele>639.221696</ele>
        <time>2021-11-22T11:07:02.311Z</time>
      </trkpt>
      <trkpt lat="47.621014" lon="7.929789">
        <ele>636.546061</ele>
        <time>2021-11-22T11:07:06.588Z</time>
      </trkpt>
      <trkpt lat="47.621153" lon="7.929574">
        <ele>635.412707</ele>
        <time>2021-11-22T11:07:08.435Z</time>
      </trkpt>
      <trkpt lat="47.621561" lon="7.929312">
        <ele>632.903459</ele>
        <time>2021-11-22T11:07:12.696Z</time>
      </trkpt>
      <trkpt lat="47.622199" lon="7.929159">
        <ele>629.255780</ele>
        <time>2021-11-22T11:07:18.970Z</time>
      </trkpt>
      <trkpt lat="47.622516" lon="7.929178">
        <ele>626.947695</ele>
        <time>2021-11-22T11:07:21.991Z</time>
      </trkpt>
      <trkpt lat="47.622878" lon="7.929322">
        <ele>624.200529</ele>
        <time>2021-11-22T11:07:25.486Z</time>
      </trkpt>
      <trkpt lat="47.622967" lon="7.929237">
        <ele>623.424687</ele>
        <time>2021-11-22T11:07:26.484Z</time>
      </trkpt>
      <trkpt lat="47.622989" lon="7.929175">
        <ele>623.078524</ele>
        <time>2021-11-22T11:07:26.972Z</time>
      </trkpt>
      <trkpt lat="47.622990" lon="7.929067">
        <ele>622.544906</ele>
        <time>2021-11-22T11:07:27.578Z</time>
      </trkpt>
      <trkpt lat="47.622913" lon="7.928884">
        <ele>621.479093</ele>
        <time>2021-11-22T11:07:28.921Z</time>
      </trkpt>
      <trkpt lat="47.621861" lon="7.928723">
        <ele>612.693493</ele>
        <time>2021-11-22T11:07:38.057Z</time>
      </trkpt>
      <trkpt lat="47.620569" lon="7.928919">
        <ele>598.870535</ele>
        <time>2021-11-22T11:07:49.104Z</time>
      </trkpt>
      <trkpt lat="47.619928" lon="7.929124">
        <ele>592.932805</ele>
        <time>2021-11-22T11:07:54.770Z</time>
      </trkpt>
      <trkpt lat="47.619604" lon="7.929315">
        <ele>589.998297</ele>
        <time>2021-11-22T11:07:57.808Z</time>
      </trkpt>
      <trkpt lat="47.619329" lon="7.929527">
        <ele>587.389778</ele>
        <time>2021-11-22T11:08:00.536Z</time>
      </trkpt>
      <trkpt lat="47.618921" lon="7.930073">
        <ele>582.764928</ele>
        <time>2021-11-22T11:08:05.430Z</time>
      </trkpt>
      <trkpt lat="47.618761" lon="7.930033">
        <ele>581.440518</ele>
        <time>2021-11-22T11:08:06.935Z</time>
      </trkpt>
      <trkpt lat="47.618733" lon="7.929945">
        <ele>580.957199</ele>
        <time>2021-11-22T11:08:07.525Z</time>
      </trkpt>
      <trkpt lat="47.618734" lon="7.929873">
        <ele>580.599518</ele>
        <time>2021-11-22T11:08:07.936Z</time>
      </trkpt>
      <trkpt lat="47.618861" lon="7.929607">
        <ele>578.980530</ele>
        <time>2021-11-22T11:08:10.006Z</time>
      </trkpt>
      <trkpt lat="47.619053" lon="7.929381">
        <ele>577.174594</ele>
        <time>2021-11-22T11:08:12.235Z</time>
      </trkpt>
      <trkpt lat="47.620384" lon="7.928242">
        <ele>564.508004</ele>
        <time>2021-11-22T11:08:25.909Z</time>
      </trkpt>
      <trkpt lat="47.620796" lon="7.927816">
        <ele>558.912047</ele>
        <time>2021-11-22T11:08:30.181Z</time>
      </trkpt>
      <trkpt lat="47.620873" lon="7.927631">
        <ele>557.278971</ele>
        <time>2021-11-22T11:08:31.421Z</time>
      </trkpt>
      <trkpt lat="47.620930" lon="7.927423">
        <ele>555.592534</ele>
        <time>2021-11-22T11:08:32.683Z</time>
      </trkpt>
      <trkpt lat="47.620993" lon="7.927078">
        <ele>552.907884</ele>
        <time>2021-11-22T11:08:34.719Z</time>
      </trkpt>
      <trkpt lat="47.621010" lon="7.926916">
        <ele>551.676472</ele>
        <time>2021-11-22T11:08:35.648Z</time>
      </trkpt>
      <trkpt lat="47.621008" lon="7.926716">
        <ele>550.174140</ele>
        <time>2021-11-22T11:08:36.785Z</time>
      </trkpt>
      <trkpt lat="47.621092" lon="7.926230">
        <ele>546.237911</ele>
        <time>2021-11-22T11:08:39.628Z</time>
      </trkpt>
      <trkpt lat="47.621290" lon="7.925709">
        <ele>541.374026</ele>
        <time>2021-11-22T11:08:43.013Z</time>
      </trkpt>
      <trkpt lat="47.621339" lon="7.925596">
        <ele>540.281359</ele>
        <time>2021-11-22T11:08:43.764Z</time>
      </trkpt>
      <trkpt lat="47.621723" lon="7.924936">
        <ele>533.191191</ele>
        <time>2021-11-22T11:08:48.705Z</time>
      </trkpt>
      <trkpt lat="47.623053" lon="7.924259">
        <ele>517.497570</ele>
        <time>2021-11-22T11:09:00.808Z</time>
      </trkpt>
      <trkpt lat="47.623206" lon="7.923969">
        <ele>514.864993</ele>
        <time>2021-11-22T11:09:02.973Z</time>
      </trkpt>
      <trkpt lat="47.623246" lon="7.923768">
        <ele>513.366865</ele>
        <time>2021-11-22T11:09:04.170Z</time>
      </trkpt>
      <trkpt lat="47.623227" lon="7.922954">
        <ele>507.535433</ele>
        <time>2021-11-22T11:09:08.839Z</time>
      </trkpt>
      <trkpt lat="47.623251" lon="7.922713">
        <ele>505.652997</ele>
        <time>2021-11-22T11:09:10.216Z</time>
      </trkpt>
      <trkpt lat="47.623298" lon="7.922501">
        <ele>503.928521</ele>
        <time>2021-11-22T11:09:11.499Z</time>
      </trkpt>
      <trkpt lat="47.623564" lon="7.921962">
        <ele>498.766567</ele>
        <time>2021-11-22T11:09:15.307Z</time>
      </trkpt>
      <trkpt lat="47.623626" lon="7.921633">
        <ele>496.126886</ele>
        <time>2021-11-22T11:09:17.267Z</time>
      </trkpt>
      <trkpt lat="47.623611" lon="7.921528">
        <ele>495.297527</ele>
        <time>2021-11-22T11:09:17.869Z</time>
      </trkpt>
      <trkpt lat="47.623588" lon="7.921368">
        <ele>494.033401</ele>
        <time>2021-11-22T11:09:18.803Z</time>
      </trkpt>
      <trkpt lat="47.623561" lon="7.920975">
        <ele>490.980954</ele>
        <time>2021-11-22T11:09:21.059Z</time>
      </trkpt>
      <trkpt lat="47.623430" lon="7.919875">
        <ele>482.938956</ele>
        <time>2021-11-22T11:09:27.525Z</time>
      </trkpt>
      <trkpt lat="47.623255" lon="7.919315">
        <ele>478.768892</ele>
        <time>2021-11-22T11:09:31.099Z</time>
      </trkpt>
      <trkpt lat="47.623010" lon="7.918947">
        <ele>475.274427</ele>
        <time>2021-11-22T11:09:34.082Z</time>
      </trkpt>
      <trkpt lat="47.622446" lon="7.918652">
        <ele>469.280267</ele>
        <time>2021-11-22T11:09:39.303Z</time>
      </trkpt>
      <trkpt lat="47.622366" lon="7.918470">
        <ele>467.827885</ele>
        <time>2021-11-22T11:09:40.557Z</time>
      </trkpt>
      <trkpt lat="47.622381" lon="7.918164">
        <ele>465.782044</ele>
        <time>2021-11-22T11:09:42.367Z</time>
      </trkpt>
      <trkpt lat="47.622424" lon="7.918069">
        <ele>465.018985</ele>
        <time>2021-11-22T11:09:43.024Z</time>
      </trkpt>
      <trkpt lat="47.622587" lon="7.917873">
        <ele>462.943276</ele>
        <time>2021-11-22T11:09:44.838Z</time>
      </trkpt>
      <trkpt lat="47.622656" lon="7.917625">
        <ele>461.154231</ele>
        <time>2021-11-22T11:09:46.400Z</time>
      </trkpt>
      <trkpt lat="47.622677" lon="7.917170">
        <ele>458.113138</ele>
        <time>2021-11-22T11:09:49.056Z</time>
      </trkpt>
      <trkpt lat="47.622647" lon="7.916647">
        <ele>454.613111</ele>
        <time>2021-11-22T11:09:52.092Z</time>
      </trkpt>
      <trkpt lat="47.622576" lon="7.916379">
        <ele>452.692967</ele>
        <time>2021-11-22T11:09:53.748Z</time>
      </trkpt>
      <trkpt lat="47.622393" lon="7.916077">
        <ele>449.987942</ele>
        <time>2021-11-22T11:09:56.083Z</time>
      </trkpt>
      <trkpt lat="47.621809" lon="7.915582">
        <ele>443.349781</ele>
        <time>2021-11-22T11:10:01.896Z</time>
      </trkpt>
      <trkpt lat="47.621530" lon="7.915222">
        <ele>439.700433</ele>
        <time>2021-11-22T11:10:05.102Z</time>
      </trkpt>
      <trkpt lat="47.621037" lon="7.914355">
        <ele>432.142572</ele>
        <time>2021-11-22T11:10:11.732Z</time>
      </trkpt>
      <trkpt lat="47.620869" lon="7.913635">
        <ele>427.027682</ele>
        <time>2021-11-22T11:10:16.095Z</time>
      </trkpt>
      <trkpt lat="47.620841" lon="7.913331">
        <ele>424.967915</ele>
        <time>2021-11-22T11:10:17.874Z</time>
      </trkpt>
      <trkpt lat="47.620822" lon="7.912670">
        <ele>420.526481</ele>
        <time>2021-11-22T11:10:21.703Z</time>
      </trkpt>
      <trkpt lat="47.620858" lon="7.912289">
        <ele>417.943756</ele>
        <time>2021-11-22T11:10:23.962Z</time>
      </trkpt>
      <trkpt lat="47.620910" lon="7.911951">
        <ele>415.616354</ele>
        <time>2021-11-22T11:10:25.977Z</time>
      </trkpt>
      <trkpt lat="47.620953" lon="7.911653">
        <ele>414.064650</ele>
        <time>2021-11-22T11:10:27.767Z</time>
      </trkpt>
      <trkpt lat="47.620946" lon="7.911321">
        <ele>412.391510</ele>
        <time>2021-11-22T11:10:29.738Z</time>
      </trkpt>
      <trkpt lat="47.620846" lon="7.911023">
        <ele>410.714710</ele>
        <time>2021-11-22T11:10:31.709Z</time>
      </trkpt>
      <trkpt lat="47.620625" lon="7.910808">
        <ele>408.739745</ele>
        <time>2021-11-22T11:10:34.039Z</time>
      </trkpt>
      <trkpt lat="47.620181" lon="7.910694">
        <ele>405.372364</ele>
        <time>2021-11-22T11:10:38.046Z</time>
      </trkpt>
      <trkpt lat="47.620162" lon="7.910587">
        <ele>404.814995</ele>
        <time>2021-11-22T11:10:38.713Z</time>
      </trkpt>
      <trkpt lat="47.620245" lon="7.910440">
        <ele>403.849065</ele>
        <time>2021-11-22T11:10:39.885Z</time>
      </trkpt>
      <trkpt lat="47.620712" lon="7.910483">
        <ele>400.927774</ele>
        <time>2021-11-22T11:10:44.340Z</time>
      </trkpt>
      <trkpt lat="47.621308" lon="7.910162">
        <ele>397.742060</ele>
        <time>2021-11-22T11:10:50.394Z</time>
      </trkpt>
      <trkpt lat="47.621461" lon="7.910146">
        <ele>396.971431</ele>
        <time>2021-11-22T11:10:51.806Z</time>
      </trkpt>
      <trkpt lat="47.622368" lon="7.910396">
        <ele>392.366892</ele>
        <time>2021-11-22T11:11:00.504Z</time>
      </trkpt>
      <trkpt lat="47.622666" lon="7.910254">
        <ele>390.859579</ele>
        <time>2021-11-22T11:11:03.518Z</time>
      </trkpt>
      <trkpt lat="47.622755" lon="7.910176">
        <ele>390.361779</ele>
        <time>2021-11-22T11:11:04.470Z</time>
      </trkpt>
      <trkpt lat="47.622850" lon="7.910055">
        <ele>389.758817</ele>
        <time>2021-11-22T11:11:05.683Z</time>
      </trkpt>
      <trkpt lat="47.623414" lon="7.909173">
        <ele>385.812518</ele>
        <time>2021-11-22T11:11:13.527Z</time>
      </trkpt>
      <trkpt lat="47.623851" lon="7.909030">
        <ele>383.339625</ele>
        <time>2021-11-22T11:11:17.699Z</time>
      </trkpt>
      <trkpt lat="47.624367" lon="7.909092">
        <ele>379.792859</ele>
        <time>2021-11-22T11:11:22.618Z</time>
      </trkpt>
      <trkpt lat="47.624823" lon="7.909229">
        <ele>376.605331</ele>
        <time>2021-11-22T11:11:26.830Z</time>
      </trkpt>
      <trkpt lat="47.624962" lon="7.909272">
        <ele>375.632543</ele>
        <time>2021-11-22T11:11:28.060Z</time>
      </trkpt>
      <trkpt lat="47.625366" lon="7.909623">
        <ele>372.425067</ele>
        <time>2021-11-22T11:11:32.179Z</time>
      </trkpt>
      <trkpt lat="47.625586" lon="7.909712">
        <ele>370.429351</ele>
        <time>2021-11-22T11:11:34.166Z</time>
      </trkpt>
      <trkpt lat="47.625630" lon="7.909700">
        <ele>370.014296</ele>
        <time>2021-11-22T11:11:34.538Z</time>
      </trkpt>
      <trkpt lat="47.625660" lon="7.909693">
        <ele>369.732547</ele>
        <time>2021-11-22T11:11:34.794Z</time>
      </trkpt>
      <trkpt lat="47.625738" lon="7.909657">
        <ele>368.974690</ele>
        <time>2021-11-22T11:11:35.541Z</time>
      </trkpt>
      <trkpt lat="47.625820" lon="7.909530">
        <ele>367.874974</ele>
        <time>2021-11-22T11:11:36.577Z</time>
      </trkpt>
      <trkpt lat="47.625875" lon="7.909372">
        <ele>366.763032</ele>
        <time>2021-11-22T11:11:37.583Z</time>
      </trkpt>
      <trkpt lat="47.626074" lon="7.908682">
        <ele>362.070160</ele>
        <time>2021-11-22T11:11:41.952Z</time>
      </trkpt>
      <trkpt lat="47.626373" lon="7.908242">
        <ele>358.163195</ele>
        <time>2021-11-22T11:11:45.584Z</time>
      </trkpt>
      <trkpt lat="47.626436" lon="7.907974">
        <ele>356.388445</ele>
        <time>2021-11-22T11:11:47.211Z</time>
      </trkpt>
      <trkpt lat="47.626446" lon="7.907798">
        <ele>355.353399</ele>
        <time>2021-11-22T11:11:48.292Z</time>
      </trkpt>
      <trkpt lat="47.626442" lon="7.907543">
        <ele>354.716592</ele>
        <time>2021-11-22T11:11:49.782Z</time>
      </trkpt>
      <trkpt lat="47.626436" lon="7.907187">
        <ele>353.827524</ele>
        <time>2021-11-22T11:11:52.012Z</time>
      </trkpt>
      <trkpt lat="47.626436" lon="7.907061">
        <ele>353.512952</ele>
        <time>2021-11-22T11:11:52.836Z</time>
      </trkpt>
      <trkpt lat="47.626436" lon="7.906623">
        <ele>352.419440</ele>
        <time>2021-11-22T11:11:55.701Z</time>
      </trkpt>
      <trkpt lat="47.626439" lon="7.906299">
        <ele>351.610464</ele>
        <time>2021-11-22T11:11:57.855Z</time>
      </trkpt>
      <trkpt lat="47.626443" lon="7.905945">
        <ele>350.726542</ele>
        <time>2021-11-22T11:12:00.407Z</time>
      </trkpt>
      <trkpt lat="47.626460" lon="7.905124">
        <ele>348.751593</ele>
        <time>2021-11-22T11:12:07.313Z</time>
      </trkpt>
      <trkpt lat="47.626440" lon="7.905007">
        <ele>348.825680</ele>
        <time>2021-11-22T11:12:09.110Z</time>
      </trkpt>
      <trkpt lat="47.626399" lon="7.904961">
        <ele>348.872493</ele>
        <time>2021-11-22T11:12:09.910Z</time>
      </trkpt>
      <trkpt lat="47.626221" lon="7.904920">
        <ele>349.036543</ele>
        <time>2021-11-22T11:12:12.942Z</time>
      </trkpt>
      <trkpt lat="47.626086" lon="7.904879">
        <ele>349.162039</ele>
        <time>2021-11-22T11:12:16.130Z</time>
      </trkpt>
      <trkpt lat="47.625742" lon="7.904774">
        <ele>349.481887</ele>
        <time>2021-11-22T11:12:23.754Z</time>
      </trkpt>
      <trkpt lat="47.625516" lon="7.904701">
        <ele>349.692531</ele>
        <time>2021-11-22T11:12:28.386Z</time>
      </trkpt>
      <trkpt lat="47.625088" lon="7.904563">
        <ele>350.091417</ele>
        <time>2021-11-22T11:12:37.709Z</time>
      </trkpt>
      <trkpt lat="47.624956" lon="7.904522">
        <ele>350.214238</ele>
        <time>2021-11-22T11:12:40.464Z</time>
      </trkpt>
      <trkpt lat="47.624761" lon="7.904481">
        <ele>350.367729</ele>
        <time>2021-11-22T11:12:43.635Z</time>
      </trkpt>
      <trkpt lat="47.624565" lon="7.904455">
        <ele>350.301501</ele>
        <time>2021-11-22T11:12:46.695Z</time>
      </trkpt>
      <trkpt lat="47.624472" lon="7.904367">
        <ele>350.264377</ele>
        <time>2021-11-22T11:12:48.381Z</time>
      </trkpt>
      <trkpt lat="47.624451" lon="7.904332">
        <ele>350.253748</ele>
        <time>2021-11-22T11:12:48.902Z</time>
      </trkpt>
      <trkpt lat="47.624399" lon="7.904386">
        <ele>350.232386</ele>
        <time>2021-11-22T11:12:49.820Z</time>
      </trkpt>
      <trkpt lat="47.624263" lon="7.904484">
        <ele>350.181502</ele>
        <time>2021-11-22T11:12:52.042Z</time>
      </trkpt>
      <trkpt lat="47.624120" lon="7.904530">
        <ele>350.132257</ele>
        <time>2021-11-22T11:12:54.214Z</time>
      </trkpt>
      <trkpt lat="47.623650" lon="7.904642">
        <ele>349.972048</ele>
        <time>2021-11-22T11:13:00.492Z</time>
      </trkpt>
      <trkpt lat="47.622648" lon="7.904863">
        <ele>349.118776</ele>
        <time>2021-11-22T11:13:12.902Z</time>
      </trkpt>
      <trkpt lat="47.622424" lon="7.904919">
        <ele>348.759012</ele>
        <time>2021-11-22T11:13:15.509Z</time>
      </trkpt>
      <trkpt lat="47.622235" lon="7.904957">
        <ele>348.456945</ele>
        <time>2021-11-22T11:13:17.671Z</time>
      </trkpt>
      <trkpt lat="47.621248" lon="7.905159">
        <ele>346.853323</ele>
        <time>2021-11-22T11:13:28.771Z</time>
      </trkpt>
      <trkpt lat="47.621107" lon="7.905191">
        <ele>346.488722</ele>
        <time>2021-11-22T11:13:30.349Z</time>
      </trkpt>
      <trkpt lat="47.620699" lon="7.905223">
        <ele>345.444383</ele>
        <time>2021-11-22T11:13:34.776Z</time>
      </trkpt>
      <trkpt lat="47.620699" lon="7.905223">
        <ele>345.444383</ele>
        <time>2021-11-22T11:13:34.781Z</time>
      </trkpt>
      <trkpt lat="47.620606" lon="7.905230">
        <ele>345.206361</ele>
        <time>2021-11-22T11:13:35.903Z</time>
      </trkpt>
      <trkpt lat="47.620426" lon="7.905244">
        <ele>344.745634</ele>
        <time>2021-11-22T11:13:37.823Z</time>
      </trkpt>
      <trkpt lat="47.619447" lon="7.905300">
        <ele>342.214324</ele>
        <time>2021-11-22T11:13:47.945Z</time>
      </trkpt>
      <trkpt lat="47.619299" lon="7.905308">
        <ele>341.710764</ele>
        <time>2021-11-22T11:13:49.350Z</time>
      </trkpt>
      <trkpt lat="47.619155" lon="7.905319">
        <ele>341.220490</ele>
        <time>2021-11-22T11:13:50.915Z</time>
      </trkpt>
      <trkpt lat="47.618976" lon="7.905535">
        <ele>340.435945</ele>
        <time>2021-11-22T11:13:53.167Z</time>
      </trkpt>
      <trkpt lat="47.618920" lon="7.906208">
        <ele>338.881777</ele>
        <time>2021-11-22T11:13:57.861Z</time>
      </trkpt>
      <trkpt lat="47.618888" lon="7.906392">
        <ele>338.446253</ele>
        <time>2021-11-22T11:13:59.120Z</time>
      </trkpt>
      <trkpt lat="47.618867" lon="7.906514">
        <ele>338.157666</ele>
        <time>2021-11-22T11:13:59.905Z</time>
      </trkpt>
      <trkpt lat="47.618719" lon="7.906838">
        <ele>337.260634</ele>
        <time>2021-11-22T11:14:02.618Z</time>
      </trkpt>
      <trkpt lat="47.618579" lon="7.906988">
        <ele>336.673445</ele>
        <time>2021-11-22T11:14:04.277Z</time>
      </trkpt>
      <trkpt lat="47.618470" lon="7.907083">
        <ele>336.243600</ele>
        <time>2021-11-22T11:14:05.576Z</time>
      </trkpt>
      <trkpt lat="47.617957" lon="7.907285">
        <ele>334.889601</ele>
        <time>2021-11-22T11:14:10.885Z</time>
      </trkpt>
      <trkpt lat="47.617238" lon="7.908130">
        <ele>332.565459</ele>
        <time>2021-11-22T11:14:20.704Z</time>
      </trkpt>
      <trkpt lat="47.617086" lon="7.908230">
        <ele>332.144158</ele>
        <time>2021-11-22T11:14:22.594Z</time>
      </trkpt>
      <trkpt lat="47.616832" lon="7.908284">
        <ele>331.612295</ele>
        <time>2021-11-22T11:14:25.471Z</time>
      </trkpt>
      <trkpt lat="47.616604" lon="7.908203">
        <ele>331.467953</ele>
        <time>2021-11-22T11:14:28.097Z</time>
      </trkpt>
      <trkpt lat="47.616124" lon="7.907729">
        <ele>331.112943</ele>
        <time>2021-11-22T11:14:34.918Z</time>
      </trkpt>
      <trkpt lat="47.616009" lon="7.907686">
        <ele>331.039927</ele>
        <time>2021-11-22T11:14:36.481Z</time>
      </trkpt>
      <trkpt lat="47.615946" lon="7.907692">
        <ele>331.001059</ele>
        <time>2021-11-22T11:14:37.248Z</time>
      </trkpt>
      <trkpt lat="47.615821" lon="7.907747">
        <ele>330.920787</ele>
        <time>2021-11-22T11:14:39.326Z</time>
      </trkpt>
      <trkpt lat="47.615669" lon="7.907870">
        <ele>330.814187</ele>
        <time>2021-11-22T11:14:42.006Z</time>
      </trkpt>
      <trkpt lat="47.615460" lon="7.908111">
        <ele>330.651210</ele>
        <time>2021-11-22T11:14:46.377Z</time>
      </trkpt>
      <trkpt lat="47.615374" lon="7.908222">
        <ele>330.581026</ele>
        <time>2021-11-22T11:14:48.296Z</time>
      </trkpt>
      <trkpt lat="47.615246" lon="7.908385">
        <ele>330.638579</ele>
        <time>2021-11-22T11:14:51.319Z</time>
      </trkpt>
      <trkpt lat="47.615085" lon="7.908567">
        <ele>330.820032</ele>
        <time>2021-11-22T11:14:54.730Z</time>
      </trkpt>
      <trkpt lat="47.614876" lon="7.908760">
        <ele>331.040719</ele>
        <time>2021-11-22T11:14:59.048Z</time>
      </trkpt>
      <trkpt lat="47.614784" lon="7.908839">
        <ele>331.136010</ele>
        <time>2021-11-22T11:15:00.853Z</time>
      </trkpt>
      <trkpt lat="47.614412" lon="7.909095">
        <ele>331.503615</ele>
        <time>2021-11-22T11:15:08.124Z</time>
      </trkpt>
      <trkpt lat="47.614063" lon="7.909285">
        <ele>331.836870</ele>
        <time>2021-11-22T11:15:15.182Z</time>
      </trkpt>
      <trkpt lat="47.613934" lon="7.909339">
        <ele>331.957024</ele>
        <time>2021-11-22T11:15:17.746Z</time>
      </trkpt>
      <trkpt lat="47.613360" lon="7.909602">
        <ele>332.582807</ele>
        <time>2021-11-22T11:15:30.522Z</time>
      </trkpt>
      <trkpt lat="47.613280" lon="7.909624">
        <ele>332.674442</ele>
        <time>2021-11-22T11:15:32.229Z</time>
      </trkpt>
      <trkpt lat="47.612897" lon="7.909812">
        <ele>333.128796</ele>
        <time>2021-11-22T11:15:40.794Z</time>
      </trkpt>
      <trkpt lat="47.612370" lon="7.910062">
        <ele>333.751937</ele>
        <time>2021-11-22T11:15:51.101Z</time>
      </trkpt>
      <trkpt lat="47.612216" lon="7.910134">
        <ele>333.933790</ele>
        <time>2021-11-22T11:15:53.805Z</time>
      </trkpt>
      <trkpt lat="47.612131" lon="7.910214">
        <ele>334.047164</ele>
        <time>2021-11-22T11:15:55.678Z</time>
      </trkpt>
      <trkpt lat="47.612082" lon="7.910269">
        <ele>334.116369</ele>
        <time>2021-11-22T11:15:56.746Z</time>
      </trkpt>
      <trkpt lat="47.612020" lon="7.910364">
        <ele>334.182276</ele>
        <time>2021-11-22T11:15:58.310Z</time>
      </trkpt>
      <trkpt lat="47.611986" lon="7.910466">
        <ele>334.185495</ele>
        <time>2021-11-22T11:15:59.598Z</time>
      </trkpt>
      <trkpt lat="47.611981" lon="7.910534">
        <ele>334.187431</ele>
        <time>2021-11-22T11:16:00.228Z</time>
      </trkpt>
      <trkpt lat="47.611988" lon="7.910610">
        <ele>334.189602</ele>
        <time>2021-11-22T11:16:01.177Z</time>
      </trkpt>
      <trkpt lat="47.611994" lon="7.910676">
        <ele>334.191486</ele>
        <time>2021-11-22T11:16:02.096Z</time>
      </trkpt>
      <trkpt lat="47.612005" lon="7.910790">
        <ele>334.194745</ele>
        <time>2021-11-22T11:16:03.345Z</time>
      </trkpt>
      <trkpt lat="47.612029" lon="7.910940">
        <ele>334.199107</ele>
        <time>2021-11-22T11:16:05.253Z</time>
      </trkpt>
      <trkpt lat="47.611260" lon="7.911383">
        <ele>334.233734</ele>
        <time>2021-11-22T11:16:18.451Z</time>
      </trkpt>
      <trkpt lat="47.610416" lon="7.911983">
        <ele>333.754001</ele>
        <time>2021-11-22T11:16:30.364Z</time>
      </trkpt>
      <trkpt lat="47.610054" lon="7.912196">
        <ele>333.258685</ele>
        <time>2021-11-22T11:16:34.837Z</time>
      </trkpt>
      <trkpt lat="47.609914" lon="7.912278">
        <ele>333.067244</ele>
        <time>2021-11-22T11:16:36.565Z</time>
      </trkpt>
      <trkpt lat="47.608679" lon="7.912703">
        <ele>331.400124</ele>
        <time>2021-11-22T11:16:51.292Z</time>
      </trkpt>
      <trkpt lat="47.607663" lon="7.913198">
        <ele>329.895386</ele>
        <time>2021-11-22T11:17:03.617Z</time>
      </trkpt>
      <trkpt lat="47.607292" lon="7.913435">
        <ele>329.349265</ele>
        <time>2021-11-22T11:17:08.315Z</time>
      </trkpt>
      <trkpt lat="47.606938" lon="7.913697">
        <ele>328.904272</ele>
        <time>2021-11-22T11:17:13.089Z</time>
      </trkpt>
      <trkpt lat="47.606706" lon="7.913869">
        <ele>328.612537</ele>
        <time>2021-11-22T11:17:16.277Z</time>
      </trkpt>
      <trkpt lat="47.606558" lon="7.913988">
        <ele>328.423181</ele>
        <time>2021-11-22T11:17:18.368Z</time>
      </trkpt>
      <trkpt lat="47.606450" lon="7.914067">
        <ele>328.287734</ele>
        <time>2021-11-22T11:17:19.867Z</time>
      </trkpt>
      <trkpt lat="47.606200" lon="7.914255">
        <ele>327.972459</ele>
        <time>2021-11-22T11:17:23.281Z</time>
      </trkpt>
      <trkpt lat="47.605929" lon="7.914457">
        <ele>327.631314</ele>
        <time>2021-11-22T11:17:26.964Z</time>
      </trkpt>
      <trkpt lat="47.605648" lon="7.914613">
        <ele>327.145652</ele>
        <time>2021-11-22T11:17:30.528Z</time>
      </trkpt>
      <trkpt lat="47.605408" lon="7.914750">
        <ele>326.502324</ele>
        <time>2021-11-22T11:17:33.479Z</time>
      </trkpt>
      <trkpt lat="47.605105" lon="7.914869">
        <ele>325.718200</ele>
        <time>2021-11-22T11:17:37.050Z</time>
      </trkpt>
      <trkpt lat="47.604722" lon="7.914915">
        <ele>324.756932</ele>
        <time>2021-11-22T11:17:41.221Z</time>
      </trkpt>
      <trkpt lat="47.604393" lon="7.914885">
        <ele>323.932335</ele>
        <time>2021-11-22T11:17:44.640Z</time>
      </trkpt>
      <trkpt lat="47.604062" lon="7.914772">
        <ele>323.082636</ele>
        <time>2021-11-22T11:17:48.029Z</time>
      </trkpt>
      <trkpt lat="47.603884" lon="7.914671">
        <ele>322.349833</ele>
        <time>2021-11-22T11:17:49.817Z</time>
      </trkpt>
      <trkpt lat="47.603615" lon="7.914449">
        <ele>320.942532</ele>
        <time>2021-11-22T11:17:52.765Z</time>
      </trkpt>
      <trkpt lat="47.603373" lon="7.914188">
        <ele>319.574638</ele>
        <time>2021-11-22T11:17:55.609Z</time>
      </trkpt>
      <trkpt lat="47.603038" lon="7.913754">
        <ele>317.541178</ele>
        <time>2021-11-22T11:17:59.800Z</time>
      </trkpt>
      <trkpt lat="47.602861" lon="7.913538">
        <ele>316.493311</ele>
        <time>2021-11-22T11:18:02.004Z</time>
      </trkpt>
      <trkpt lat="47.602742" lon="7.913448">
        <ele>315.882649</ele>
        <time>2021-11-22T11:18:03.240Z</time>
      </trkpt>
      <trkpt lat="47.602118" lon="7.913280">
        <ele>313.414181</ele>
        <time>2021-11-22T11:18:09.296Z</time>
      </trkpt>
      <trkpt lat="47.600086" lon="7.913316">
        <ele>307.099481</ele>
        <time>2021-11-22T11:18:30.108Z</time>
      </trkpt>
      <trkpt lat="47.599361" lon="7.913211">
        <ele>305.369065</ele>
        <time>2021-11-22T11:18:37.958Z</time>
      </trkpt>
      <trkpt lat="47.598263" lon="7.912768">
        <ele>303.202458</ele>
        <time>2021-11-22T11:18:50.594Z</time>
      </trkpt>
      <trkpt lat="47.597324" lon="7.912182">
        <ele>301.591937</ele>
        <time>2021-11-22T11:19:02.402Z</time>
      </trkpt>
      <trkpt lat="47.596928" lon="7.912047">
        <ele>301.123968</ele>
        <time>2021-11-22T11:19:07.227Z</time>
      </trkpt>
      <trkpt lat="47.596657" lon="7.912027">
        <ele>300.851916</ele>
        <time>2021-11-22T11:19:10.498Z</time>
      </trkpt>
      <trkpt lat="47.596383" lon="7.912050">
        <ele>300.576752</ele>
        <time>2021-11-22T11:19:13.826Z</time>
      </trkpt>
      <trkpt lat="47.595919" lon="7.912182">
        <ele>300.103042</ele>
        <time>2021-11-22T11:19:19.646Z</time>
      </trkpt>
      <trkpt lat="47.595049" lon="7.912419">
        <ele>299.577594</ele>
        <time>2021-11-22T11:19:30.932Z</time>
      </trkpt>
      <trkpt lat="47.594246" lon="7.912426">
        <ele>299.487820</ele>
        <time>2021-11-22T11:19:42.055Z</time>
      </trkpt>
      <trkpt lat="47.593192" lon="7.912179">
        <ele>299.743413</ele>
        <time>2021-11-22T11:19:59.942Z</time>
      </trkpt>
      <trkpt lat="47.592198" lon="7.912030">
        <ele>300.416611</ele>
        <time>2021-11-22T11:20:18.860Z</time>
      </trkpt>
      <trkpt lat="47.591524" lon="7.911777">
        <ele>300.213164</ele>
        <time>2021-11-22T11:20:30.157Z</time>
      </trkpt>
      <trkpt lat="47.591361" lon="7.911643">
        <ele>300.002892</ele>
        <time>2021-11-22T11:20:33.519Z</time>
      </trkpt>
      <trkpt lat="47.591227" lon="7.911486">
        <ele>299.810210</ele>
        <time>2021-11-22T11:20:35.528Z</time>
      </trkpt>
      <trkpt lat="47.590486" lon="7.910371">
        <ele>298.619122</ele>
        <time>2021-11-22T11:20:47.254Z</time>
      </trkpt>
      <trkpt lat="47.590199" lon="7.910097">
        <ele>297.889389</ele>
        <time>2021-11-22T11:20:50.836Z</time>
      </trkpt>
      <trkpt lat="47.589984" lon="7.909953">
        <ele>297.375699</ele>
        <time>2021-11-22T11:20:53.326Z</time>
      </trkpt>
      <trkpt lat="47.589984" lon="7.909953">
        <ele>297.375699</ele>
        <time>2021-11-22T11:20:53.337Z</time>
      </trkpt>
      <trkpt lat="47.589846" lon="7.909880">
        <ele>297.056665</ele>
        <time>2021-11-22T11:20:54.929Z</time>
      </trkpt>
      <trkpt lat="47.589453" lon="7.909790">
        <ele>296.190793</ele>
        <time>2021-11-22T11:20:59.152Z</time>
      </trkpt>
      <trkpt lat="47.589186" lon="7.909798">
        <ele>295.609303</ele>
        <time>2021-11-22T11:21:01.989Z</time>
      </trkpt>
      <trkpt lat="47.588985" lon="7.909827">
        <ele>295.169575</ele>
        <time>2021-11-22T11:21:04.275Z</time>
      </trkpt>
      <trkpt lat="47.587926" lon="7.910125">
        <ele>293.782792</ele>
        <time>2021-11-22T11:21:16.783Z</time>
      </trkpt>
      <trkpt lat="47.587479" lon="7.910228">
        <ele>293.304783</ele>
        <time>2021-11-22T11:21:22.841Z</time>
      </trkpt>
      <trkpt lat="47.587167" lon="7.910236">
        <ele>292.975047</ele>
        <time>2021-11-22T11:21:26.955Z</time>
      </trkpt>
      <trkpt lat="47.586813" lon="7.910134">
        <ele>292.655148</ele>
        <time>2021-11-22T11:21:31.388Z</time>
      </trkpt>
      <trkpt lat="47.586540" lon="7.909941">
        <ele>292.436530</ele>
        <time>2021-11-22T11:21:35.075Z</time>
      </trkpt>
      <trkpt lat="47.586265" lon="7.909589">
        <ele>292.173921</ele>
        <time>2021-11-22T11:21:39.454Z</time>
      </trkpt>
      <trkpt lat="47.586062" lon="7.909215">
        <ele>291.939874</ele>
        <time>2021-11-22T11:21:43.532Z</time>
      </trkpt>
      <trkpt lat="47.585956" lon="7.908983">
        <ele>291.803257</ele>
        <time>2021-11-22T11:21:45.976Z</time>
      </trkpt>
      <trkpt lat="47.585899" lon="7.908777">
        <ele>291.694701</ele>
        <time>2021-11-22T11:21:48.029Z</time>
      </trkpt>
      <trkpt lat="47.585750" lon="7.908439">
        <ele>291.497839</ele>
        <time>2021-11-22T11:21:51.634Z</time>
      </trkpt>
      <trkpt lat="47.585760" lon="7.908367">
        <ele>291.504412</ele>
        <time>2021-11-22T11:21:52.349Z</time>
      </trkpt>
      <trkpt lat="47.585751" lon="7.908295">
        <ele>291.528171</ele>
        <time>2021-11-22T11:21:53.127Z</time>
      </trkpt>
      <trkpt lat="47.585761" lon="7.908160">
        <ele>291.572237</ele>
        <time>2021-11-22T11:21:54.911Z</time>
      </trkpt>
      <trkpt lat="47.585759" lon="7.908093">
        <ele>291.593997</ele>
        <time>2021-11-22T11:21:55.704Z</time>
      </trkpt>
      <trkpt lat="47.585745" lon="7.907994">
        <ele>291.626817</ele>
        <time>2021-11-22T11:21:57.016Z</time>
      </trkpt>
      <trkpt lat="47.585709" lon="7.907887">
        <ele>291.665614</ele>
        <time>2021-11-22T11:21:58.560Z</time>
      </trkpt>
      <trkpt lat="47.585496" lon="7.906982">
        <ele>291.976615</ele>
        <time>2021-11-22T11:22:08.702Z</time>
      </trkpt>
      <trkpt lat="47.585477" lon="7.906769">
        <ele>292.046327</ele>
        <time>2021-11-22T11:22:11.246Z</time>
      </trkpt>
      <trkpt lat="47.585522" lon="7.905992">
        <ele>292.299362</ele>
        <time>2021-11-22T11:22:21.431Z</time>
      </trkpt>
      <trkpt lat="47.585585" lon="7.905551">
        <ele>292.601498</ele>
        <time>2021-11-22T11:22:27.761Z</time>
      </trkpt>
      <trkpt lat="47.585693" lon="7.905272">
        <ele>292.880951</ele>
        <time>2021-11-22T11:22:32.362Z</time>
      </trkpt>
      <trkpt lat="47.585762" lon="7.905099">
        <ele>293.055549</ele>
        <time>2021-11-22T11:22:35.190Z</time>
      </trkpt>
      <trkpt lat="47.585958" lon="7.904606">
        <ele>293.552691</ele>
        <time>2021-11-22T11:22:43.152Z</time>
      </trkpt>
      <trkpt lat="47.586407" lon="7.903407">
        <ele>294.719672</ele>
        <time>2021-11-22T11:23:01.086Z</time>
      </trkpt>
      <trkpt lat="47.586847" lon="7.902221">
        <ele>295.512021</ele>
        <time>2021-11-22T11:23:18.090Z</time>
      </trkpt>
      <trkpt lat="47.587029" lon="7.901746">
        <ele>295.831807</ele>
        <time>2021-11-22T11:23:24.704Z</time>
      </trkpt>
      <trkpt lat="47.587506" lon="7.900489">
        <ele>296.668075</ele>
        <time>2021-11-22T11:23:41.735Z</time>
      </trkpt>
      <trkpt lat="47.587961" lon="7.899254">
        <ele>297.477028</ele>
        <time>2021-11-22T11:23:59.177Z</time>
      </trkpt>
      <trkpt lat="47.588436" lon="7.898021">
        <ele>298.396258</ele>
        <time>2021-11-22T11:24:17.245Z</time>
      </trkpt>
      <trkpt lat="47.588506" lon="7.897839">
        <ele>298.540098</ele>
        <time>2021-11-22T11:24:19.717Z</time>
      </trkpt>
      <trkpt lat="47.588808" lon="7.897009">
        <ele>299.187559</ele>
        <time>2021-11-22T11:24:32.001Z</time>
      </trkpt>
      <trkpt lat="47.589118" lon="7.896174">
        <ele>299.728596</ele>
        <time>2021-11-22T11:24:44.398Z</time>
      </trkpt>
      <trkpt lat="47.589590" lon="7.894990">
        <ele>300.240803</ele>
        <time>2021-11-22T11:25:00.820Z</time>
      </trkpt>
      <trkpt lat="47.589932" lon="7.894260">
        <ele>300.571819</ele>
        <time>2021-11-22T11:25:10.385Z</time>
      </trkpt>
      <trkpt lat="47.589960" lon="7.894201">
        <ele>300.579669</ele>
        <time>2021-11-22T11:25:11.078Z</time>
      </trkpt>
      <trkpt lat="47.590704" lon="7.892594">
        <ele>300.081050</ele>
        <time>2021-11-22T11:25:29.174Z</time>
      </trkpt>
      <trkpt lat="47.591003" lon="7.891941">
        <ele>299.825321</ele>
        <time>2021-11-22T11:25:35.848Z</time>
      </trkpt>
      <trkpt lat="47.591247" lon="7.891264">
        <ele>299.223206</ele>
        <time>2021-11-22T11:25:42.341Z</time>
      </trkpt>
      <trkpt lat="47.591381" lon="7.890797">
        <ele>298.825114</ele>
        <time>2021-11-22T11:25:46.371Z</time>
      </trkpt>
      <trkpt lat="47.591692" lon="7.889232">
        <ele>297.594755</ele>
        <time>2021-11-22T11:25:59.255Z</time>
      </trkpt>
      <trkpt lat="47.591728" lon="7.889070">
        <ele>297.485638</ele>
        <time>2021-11-22T11:26:00.560Z</time>
      </trkpt>
      <trkpt lat="47.591763" lon="7.888925">
        <ele>297.387116</ele>
        <time>2021-11-22T11:26:01.762Z</time>
      </trkpt>
      <trkpt lat="47.591866" lon="7.888529">
        <ele>297.115597</ele>
        <time>2021-11-22T11:26:05.156Z</time>
      </trkpt>
      <trkpt lat="47.592202" lon="7.887383">
        <ele>296.316191</ele>
        <time>2021-11-22T11:26:15.642Z</time>
      </trkpt>
      <trkpt lat="47.592409" lon="7.886663">
        <ele>295.882170</ele>
        <time>2021-11-22T11:26:22.939Z</time>
      </trkpt>
      <trkpt lat="47.592484" lon="7.886405">
        <ele>295.743544</ele>
        <time>2021-11-22T11:26:25.850Z</time>
      </trkpt>
      <trkpt lat="47.592651" lon="7.885826">
        <ele>295.432822</ele>
        <time>2021-11-22T11:26:31.319Z</time>
      </trkpt>
      <trkpt lat="47.592802" lon="7.885426">
        <ele>295.206636</ele>
        <time>2021-11-22T11:26:35.137Z</time>
      </trkpt>
      <trkpt lat="47.593166" lon="7.884637">
        <ele>294.708386</ele>
        <time>2021-11-22T11:26:42.969Z</time>
      </trkpt>
      <trkpt lat="47.593037" lon="7.884537">
        <ele>294.551500</ele>
        <time>2021-11-22T11:26:44.788Z</time>
      </trkpt>
      <trkpt lat="47.592977" lon="7.884463">
        <ele>294.467388</ele>
        <time>2021-11-22T11:26:45.663Z</time>
      </trkpt>
      <trkpt lat="47.592959" lon="7.884237">
        <ele>294.301980</ele>
        <time>2021-11-22T11:26:47.561Z</time>
      </trkpt>
      <trkpt lat="47.592917" lon="7.883969">
        <ele>294.101995</ele>
        <time>2021-11-22T11:26:49.817Z</time>
      </trkpt>
      <trkpt lat="47.592842" lon="7.883686">
        <ele>293.880984</ele>
        <time>2021-11-22T11:26:52.317Z</time>
      </trkpt>
      <trkpt lat="47.592487" lon="7.882778">
        <ele>293.118119</ele>
        <time>2021-11-22T11:27:00.840Z</time>
      </trkpt>
      <trkpt lat="47.592493" lon="7.882622">
        <ele>293.004546</ele>
        <time>2021-11-22T11:27:02.114Z</time>
      </trkpt>
      <trkpt lat="47.592531" lon="7.882114">
        <ele>292.610844</ele>
        <time>2021-11-22T11:27:06.168Z</time>
      </trkpt>
      <trkpt lat="47.592592" lon="7.881680">
        <ele>292.256031</ele>
        <time>2021-11-22T11:27:09.894Z</time>
      </trkpt>
      <trkpt lat="47.592680" lon="7.881162">
        <ele>291.828502</ele>
        <time>2021-11-22T11:27:14.457Z</time>
      </trkpt>
      <trkpt lat="47.592855" lon="7.880299">
        <ele>291.107261</ele>
        <time>2021-11-22T11:27:21.837Z</time>
      </trkpt>
      <trkpt lat="47.592558" lon="7.880084">
        <ele>290.712700</ele>
        <time>2021-11-22T11:27:25.592Z</time>
      </trkpt>
      <trkpt lat="47.592176" lon="7.879859">
        <ele>289.844513</ele>
        <time>2021-11-22T11:27:30.155Z</time>
      </trkpt>
      <trkpt lat="47.591747" lon="7.879696">
        <ele>288.909103</ele>
        <time>2021-11-22T11:27:34.920Z</time>
      </trkpt>
      <trkpt lat="47.591433" lon="7.879589">
        <ele>288.228583</ele>
        <time>2021-11-22T11:27:38.354Z</time>
      </trkpt>
      <trkpt lat="47.591348" lon="7.879568">
        <ele>288.046570</ele>
        <time>2021-11-22T11:27:39.269Z</time>
      </trkpt>
      <trkpt lat="47.591318" lon="7.879563">
        <ele>287.982805</ele>
        <time>2021-11-22T11:27:39.594Z</time>
      </trkpt>
      <trkpt lat="47.591234" lon="7.879550">
        <ele>287.804417</ele>
        <time>2021-11-22T11:27:40.478Z</time>
      </trkpt>
      <trkpt lat="47.591201" lon="7.878391">
        <ele>286.343394</ele>
        <time>2021-11-22T11:27:48.915Z</time>
      </trkpt>
      <trkpt lat="47.591165" lon="7.877839">
        <ele>285.750588</ele>
        <time>2021-11-22T11:27:53.018Z</time>
      </trkpt>
      <trkpt lat="47.591021" lon="7.877714">
        <ele>285.486115</ele>
        <time>2021-11-22T11:27:54.935Z</time>
      </trkpt>
      <trkpt lat="47.590631" lon="7.877615">
        <ele>284.858980</ele>
        <time>2021-11-22T11:27:59.630Z</time>
      </trkpt>
      <trkpt lat="47.590500" lon="7.877526">
        <ele>284.630589</ele>
        <time>2021-11-22T11:28:01.309Z</time>
      </trkpt>
      <trkpt lat="47.590479" lon="7.877434">
        <ele>284.526766</ele>
        <time>2021-11-22T11:28:02.082Z</time>
      </trkpt>
      <trkpt lat="47.590532" lon="7.877177">
        <ele>284.239489</ele>
        <time>2021-11-22T11:28:04.388Z</time>
      </trkpt>
      <trkpt lat="47.590592" lon="7.876946">
        <ele>284.026202</ele>
        <time>2021-11-22T11:28:06.344Z</time>
      </trkpt>
      <trkpt lat="47.590643" lon="7.876593">
        <ele>283.852711</ele>
        <time>2021-11-22T11:28:09.414Z</time>
      </trkpt>
      <trkpt lat="47.590771" lon="7.875667">
        <ele>283.398452</ele>
        <time>2021-11-22T11:28:17.443Z</time>
      </trkpt>
      <trkpt lat="47.590851" lon="7.875195">
        <ele>283.164570</ele>
        <time>2021-11-22T11:28:21.610Z</time>
      </trkpt>
      <trkpt lat="47.591067" lon="7.874101">
        <ele>282.637757</ele>
        <time>2021-11-22T11:28:31.940Z</time>
      </trkpt>
      <trkpt lat="47.591105" lon="7.873760">
        <ele>282.492211</ele>
        <time>2021-11-22T11:28:35.128Z</time>
      </trkpt>
      <trkpt lat="47.591074" lon="7.872343">
        <ele>281.895184</ele>
        <time>2021-11-22T11:28:47.618Z</time>
      </trkpt>
      <trkpt lat="47.590993" lon="7.871168">
        <ele>281.403217</ele>
        <time>2021-11-22T11:28:57.555Z</time>
      </trkpt>
      <trkpt lat="47.590885" lon="7.870375">
        <ele>281.069482</ele>
        <time>2021-11-22T11:29:04.374Z</time>
      </trkpt>
      <trkpt lat="47.590882" lon="7.870356">
        <ele>281.061432</ele>
        <time>2021-11-22T11:29:04.556Z</time>
      </trkpt>
      <trkpt lat="47.590872" lon="7.870300">
        <ele>281.037535</ele>
        <time>2021-11-22T11:29:05.141Z</time>
      </trkpt>
      <trkpt lat="47.590870" lon="7.870288">
        <ele>281.032436</ele>
        <time>2021-11-22T11:29:05.287Z</time>
      </trkpt>
      <trkpt lat="47.590773" lon="7.869984">
        <ele>280.893701</ele>
        <time>2021-11-22T11:29:08.187Z</time>
      </trkpt>
      <trkpt lat="47.590705" lon="7.869768">
        <ele>280.795366</ele>
        <time>2021-11-22T11:29:10.406Z</time>
      </trkpt>
      <trkpt lat="47.590470" lon="7.869069">
        <ele>280.582592</ele>
        <time>2021-11-22T11:29:17.438Z</time>
      </trkpt>
      <trkpt lat="47.590421" lon="7.868927">
        <ele>280.596763</ele>
        <time>2021-11-22T11:29:18.905Z</time>
      </trkpt>
      <trkpt lat="47.590348" lon="7.868680">
        <ele>280.620723</ele>
        <time>2021-11-22T11:29:21.779Z</time>
      </trkpt>
      <trkpt lat="47.590292" lon="7.868520">
        <ele>280.636739</ele>
        <time>2021-11-22T11:29:23.406Z</time>
      </trkpt>
      <trkpt lat="47.590365" lon="7.868441">
        <ele>280.648645</ele>
        <time>2021-11-22T11:29:24.797Z</time>
      </trkpt>
      <trkpt lat="47.590348" lon="7.868400">
        <ele>280.652921</ele>
        <time>2021-11-22T11:29:25.461Z</time>
      </trkpt>
      <trkpt lat="47.590333" lon="7.867008">
        <ele>280.776612</ele>
        <time>2021-11-22T11:29:40.455Z</time>
      </trkpt>
      <trkpt lat="47.590274" lon="7.866644">
        <ele>280.817718</ele>
        <time>2021-11-22T11:29:44.953Z</time>
      </trkpt>
      <trkpt lat="47.590266" lon="7.866595">
        <ele>280.825811</ele>
        <time>2021-11-22T11:29:45.490Z</time>
      </trkpt>
      <trkpt lat="47.590251" lon="7.866509">
        <ele>280.840070</ele>
        <time>2021-11-22T11:29:46.368Z</time>
      </trkpt>
      <trkpt lat="47.589823" lon="7.864422">
        <ele>281.190229</ele>
        <time>2021-11-22T11:30:09.639Z</time>
      </trkpt>
      <trkpt lat="47.589471" lon="7.862994">
        <ele>281.167777</ele>
        <time>2021-11-22T11:30:24.385Z</time>
      </trkpt>
      <trkpt lat="47.587447" lon="7.853842">
        <ele>280.790514</ele>
        <time>2021-11-22T11:31:59.033Z</time>
      </trkpt>
      <trkpt lat="47.587300" lon="7.853345">
        <ele>280.851817</ele>
        <time>2021-11-22T11:32:04.603Z</time>
      </trkpt>
      <trkpt lat="47.586757" lon="7.850579">
        <ele>281.289950</ele>
        <time>2021-11-22T11:32:35.359Z</time>
      </trkpt>
      <trkpt lat="47.586522" lon="7.848600">
        <ele>281.720355</ele>
        <time>2021-11-22T11:32:57.510Z</time>
      </trkpt>
      <trkpt lat="47.586484" lon="7.848370">
        <ele>281.758598</ele>
        <time>2021-11-22T11:33:00.160Z</time>
      </trkpt>
      <trkpt lat="47.586486" lon="7.847936">
        <ele>281.828692</ele>
        <time>2021-11-22T11:33:04.870Z</time>
      </trkpt>
      <trkpt lat="47.586452" lon="7.845634">
        <ele>282.072440</ele>
        <time>2021-11-22T11:33:29.127Z</time>
      </trkpt>
      <trkpt lat="47.586790" lon="7.842637">
        <ele>281.842728</ele>
        <time>2021-11-22T11:33:58.421Z</time>
      </trkpt>
      <trkpt lat="47.586802" lon="7.842180">
        <ele>281.771256</ele>
        <time>2021-11-22T11:34:02.697Z</time>
      </trkpt>
      <trkpt lat="47.586809" lon="7.842018">
        <ele>281.745887</ele>
        <time>2021-11-22T11:34:04.200Z</time>
      </trkpt>
      <trkpt lat="47.586920" lon="7.841604">
        <ele>281.676264</ele>
        <time>2021-11-22T11:34:08.372Z</time>
      </trkpt>
      <trkpt lat="47.587628" lon="7.835942">
        <ele>280.491506</ele>
        <time>2021-11-22T11:35:01.782Z</time>
      </trkpt>
      <trkpt lat="47.587848" lon="7.834235">
        <ele>280.164254</ele>
        <time>2021-11-22T11:35:17.640Z</time>
      </trkpt>
      <trkpt lat="47.586496" lon="7.833050">
        <ele>280.896952</ele>
        <time>2021-11-22T11:35:40.006Z</time>
      </trkpt>
      <trkpt lat="47.586276" lon="7.833601">
        <ele>281.375716</ele>
        <time>2021-11-22T11:35:48.259Z</time>
      </trkpt>
      <trkpt lat="47.585278" lon="7.832688">
        <ele>284.319774</ele>
        <time>2021-11-22T11:36:19.776Z</time>
      </trkpt>
      <trkpt lat="47.585247" lon="7.832651">
        <ele>284.464841</ele>
        <time>2021-11-22T11:36:21.069Z</time>
      </trkpt>
      <trkpt lat="47.585195" lon="7.832588">
        <ele>284.709629</ele>
        <time>2021-11-22T11:36:23.194Z</time>
      </trkpt>
      <trkpt lat="47.585027" lon="7.832425">
        <ele>285.441494</ele>
        <time>2021-11-22T11:36:28.641Z</time>
      </trkpt>
      <trkpt lat="47.584717" lon="7.832264">
        <ele>286.638823</ele>
        <time>2021-11-22T11:36:38.282Z</time>
      </trkpt>
      <trkpt lat="47.584616" lon="7.832259">
        <ele>287.007190</ele>
        <time>2021-11-22T11:36:41.292Z</time>
      </trkpt>
      <trkpt lat="47.584427" lon="7.832250">
        <ele>287.696482</ele>
        <time>2021-11-22T11:36:47.196Z</time>
      </trkpt>
      <trkpt lat="47.584367" lon="7.832247">
        <ele>287.915316</ele>
        <time>2021-11-22T11:36:49.383Z</time>
      </trkpt>
      <trkpt lat="47.584156" lon="7.832334">
        <ele>288.720323</ele>
        <time>2021-11-22T11:36:57.054Z</time>
      </trkpt>
      <trkpt lat="47.584029" lon="7.832543">
        <ele>289.435080</ele>
        <time>2021-11-22T11:37:03.856Z</time>
      </trkpt>
      <trkpt lat="47.583849" lon="7.832883">
        <ele>290.533297</ele>
        <time>2021-11-22T11:37:14.177Z</time>
      </trkpt>
      <trkpt lat="47.583696" lon="7.833171">
        <ele>291.464786</ele>
        <time>2021-11-22T11:37:22.876Z</time>
      </trkpt>
      <trkpt lat="47.583523" lon="7.833509">
        <ele>292.542873</ele>
        <time>2021-11-22T11:37:31.412Z</time>
      </trkpt>
      <trkpt lat="47.583401" lon="7.833658">
        <ele>293.138306</ele>
        <time>2021-11-22T11:37:35.159Z</time>
      </trkpt>
      <trkpt lat="47.583327" lon="7.833750">
        <ele>293.502106</ele>
        <time>2021-11-22T11:37:38.380Z</time>
      </trkpt>
      <trkpt lat="47.583163" lon="7.833942">
        <ele>294.289292</ele>
        <time>2021-11-22T11:37:43.872Z</time>
      </trkpt>
      <trkpt lat="47.582828" lon="7.834117">
        <ele>295.444363</ele>
        <time>2021-11-22T11:37:52.319Z</time>
      </trkpt>
      <trkpt lat="47.580816" lon="7.834599">
        <ele>298.502276</ele>
        <time>2021-11-22T11:38:36.199Z</time>
      </trkpt>
      <trkpt lat="47.580667" lon="7.834627">
        <ele>298.548915</ele>
        <time>2021-11-22T11:38:38.581Z</time>
      </trkpt>
      <trkpt lat="47.579073" lon="7.834987">
        <ele>298.641846</ele>
        <time>2021-11-22T11:39:02.542Z</time>
      </trkpt>
      <trkpt lat="47.576219" lon="7.835650">
        <ele>295.360144</ele>
        <time>2021-11-22T11:39:36.202Z</time>
      </trkpt>
      <trkpt lat="47.575959" lon="7.835718">
        <ele>295.044226</ele>
        <time>2021-11-22T11:39:39.357Z</time>
      </trkpt>
      <trkpt lat="47.575033" lon="7.835907">
        <ele>294.757042</ele>
        <time>2021-11-22T11:39:51.810Z</time>
      </trkpt>
      <trkpt lat="47.574568" lon="7.836025">
        <ele>294.693100</ele>
        <time>2021-11-22T11:39:58.797Z</time>
      </trkpt>
      <trkpt lat="47.574158" lon="7.836106">
        <ele>294.637037</ele>
        <time>2021-11-22T11:40:05.470Z</time>
      </trkpt>
      <trkpt lat="47.573815" lon="7.836215">
        <ele>294.725600</ele>
        <time>2021-11-22T11:40:13.149Z</time>
      </trkpt>
      <trkpt lat="47.573348" lon="7.836386">
        <ele>294.956632</ele>
        <time>2021-11-22T11:40:24.001Z</time>
      </trkpt>
      <trkpt lat="47.572760" lon="7.836606">
        <ele>295.247895</ele>
        <time>2021-11-22T11:40:37.612Z</time>
      </trkpt>
      <trkpt lat="47.572296" lon="7.836777">
        <ele>295.477529</ele>
        <time>2021-11-22T11:40:48.037Z</time>
      </trkpt>
      <trkpt lat="47.572139" lon="7.836834">
        <ele>295.616695</ele>
        <time>2021-11-22T11:40:51.524Z</time>
      </trkpt>
      <trkpt lat="47.571871" lon="7.836932">
        <ele>295.862787</ele>
        <time>2021-11-22T11:40:57.561Z</time>
      </trkpt>
      <trkpt lat="47.571771" lon="7.836971">
        <ele>295.954973</ele>
        <time>2021-11-22T11:40:59.797Z</time>
      </trkpt>
      <trkpt lat="47.571254" lon="7.837161">
        <ele>296.429847</ele>
        <time>2021-11-22T11:41:12.248Z</time>
      </trkpt>
      <trkpt lat="47.570985" lon="7.837265">
        <ele>296.677691</ele>
        <time>2021-11-22T11:41:19.201Z</time>
      </trkpt>
      <trkpt lat="47.570872" lon="7.837307">
        <ele>296.781552</ele>
        <time>2021-11-22T11:41:22.217Z</time>
      </trkpt>
      <trkpt lat="47.570298" lon="7.837528">
        <ele>297.446213</ele>
        <time>2021-11-22T11:41:37.539Z</time>
      </trkpt>
      <trkpt lat="47.570038" lon="7.837643">
        <ele>297.835284</ele>
        <time>2021-11-22T11:41:44.663Z</time>
      </trkpt>
      <trkpt lat="47.569907" lon="7.837696">
        <ele>298.030002</ele>
        <time>2021-11-22T11:41:48.184Z</time>
      </trkpt>
      <trkpt lat="47.569814" lon="7.837733">
        <ele>298.168079</ele>
        <time>2021-11-22T11:41:50.746Z</time>
      </trkpt>
      <trkpt lat="47.569665" lon="7.837789">
        <ele>298.388498</ele>
        <time>2021-11-22T11:41:54.709Z</time>
      </trkpt>
      <trkpt lat="47.569522" lon="7.837844">
        <ele>298.600342</ele>
        <time>2021-11-22T11:41:58.564Z</time>
      </trkpt>
      <trkpt lat="47.569310" lon="7.837922">
        <ele>298.913563</ele>
        <time>2021-11-22T11:42:04.311Z</time>
      </trkpt>
      <trkpt lat="47.568988" lon="7.838054">
        <ele>299.392627</ele>
        <time>2021-11-22T11:42:13.088Z</time>
      </trkpt>
      <trkpt lat="47.568420" lon="7.838300">
        <ele>300.031889</ele>
        <time>2021-11-22T11:42:28.346Z</time>
      </trkpt>
      <trkpt lat="47.568160" lon="7.838415">
        <ele>300.279402</ele>
        <time>2021-11-22T11:42:35.106Z</time>
      </trkpt>
      <trkpt lat="47.568042" lon="7.838436">
        <ele>300.387817</ele>
        <time>2021-11-22T11:42:37.852Z</time>
      </trkpt>
      <trkpt lat="47.567936" lon="7.838380">
        <ele>300.490472</ele>
        <time>2021-11-22T11:42:40.595Z</time>
      </trkpt>
      <trkpt lat="47.567846" lon="7.838609">
        <ele>300.653586</ele>
        <time>2021-11-22T11:42:43.477Z</time>
      </trkpt>
      <trkpt lat="47.567823" lon="7.838648">
        <ele>300.685467</ele>
        <time>2021-11-22T11:42:44.115Z</time>
      </trkpt>
      <trkpt lat="47.567634" lon="7.839037">
        <ele>300.980509</ele>
        <time>2021-11-22T11:42:49.549Z</time>
      </trkpt>
      <trkpt lat="47.567626" lon="7.839064">
        <ele>300.998659</ele>
        <time>2021-11-22T11:42:49.952Z</time>
      </trkpt>
      <trkpt lat="47.567564" lon="7.839283">
        <ele>301.144837</ele>
        <time>2021-11-22T11:42:52.833Z</time>
      </trkpt>
      <trkpt lat="47.567530" lon="7.839459">
        <ele>301.257516</ele>
        <time>2021-11-22T11:42:54.898Z</time>
      </trkpt>
      <trkpt lat="47.567510" lon="7.839548">
        <ele>301.314816</ele>
        <time>2021-11-22T11:42:55.988Z</time>
      </trkpt>
      <trkpt lat="47.567481" lon="7.839664">
        <ele>301.387051</ele>
        <time>2021-11-22T11:42:57.287Z</time>
      </trkpt>
      <trkpt lat="47.567406" lon="7.839778">
        <ele>301.480025</ele>
        <time>2021-11-22T11:42:59.473Z</time>
      </trkpt>
      <trkpt lat="47.567209" lon="7.839925">
        <ele>301.670903</ele>
        <time>2021-11-22T11:43:03.299Z</time>
      </trkpt>
      <trkpt lat="47.567111" lon="7.839998">
        <ele>301.765824</ele>
        <time>2021-11-22T11:43:05.558Z</time>
      </trkpt>
      <trkpt lat="47.567083" lon="7.840016">
        <ele>301.792237</ele>
        <time>2021-11-22T11:43:05.983Z</time>
      </trkpt>
      <trkpt lat="47.566826" lon="7.840179">
        <ele>302.034162</ele>
        <time>2021-11-22T11:43:10.918Z</time>
      </trkpt>
      <trkpt lat="47.566592" lon="7.840279">
        <ele>302.244922</ele>
        <time>2021-11-22T11:43:15.515Z</time>
      </trkpt>
      <trkpt lat="47.566515" lon="7.840312">
        <ele>302.314290</ele>
        <time>2021-11-22T11:43:16.765Z</time>
      </trkpt>
      <trkpt lat="47.566450" lon="7.840326">
        <ele>302.371134</ele>
        <time>2021-11-22T11:43:18.171Z</time>
      </trkpt>
      <trkpt lat="47.566350" lon="7.840350">
        <ele>302.458804</ele>
        <time>2021-11-22T11:43:20.007Z</time>
      </trkpt>
      <trkpt lat="47.566221" lon="7.840340">
        <ele>302.570596</ele>
        <time>2021-11-22T11:43:22.275Z</time>
      </trkpt>
      <trkpt lat="47.566142" lon="7.840322">
        <ele>302.639768</ele>
        <time>2021-11-22T11:43:23.496Z</time>
      </trkpt>
      <trkpt lat="47.566081" lon="7.840309">
        <ele>302.693102</ele>
        <time>2021-11-22T11:43:24.898Z</time>
      </trkpt>
      <trkpt lat="47.565906" lon="7.840272">
        <ele>302.846085</ele>
        <time>2021-11-22T11:43:28.193Z</time>
      </trkpt>
      <trkpt lat="47.565343" lon="7.840185">
        <ele>303.505427</ele>
        <time>2021-11-22T11:43:39.080Z</time>
      </trkpt>
      <trkpt lat="47.565233" lon="7.840176">
        <ele>303.634954</ele>
        <time>2021-11-22T11:43:41.417Z</time>
      </trkpt>
      <trkpt lat="47.565168" lon="7.840179">
        <ele>303.711413</ele>
        <time>2021-11-22T11:43:42.793Z</time>
      </trkpt>
      <trkpt lat="47.565057" lon="7.840213">
        <ele>303.844677</ele>
        <time>2021-11-22T11:43:45.036Z</time>
      </trkpt>
      <trkpt lat="47.564936" lon="7.840261">
        <ele>303.991948</ele>
        <time>2021-11-22T11:43:47.752Z</time>
      </trkpt>
      <trkpt lat="47.564558" lon="7.840516">
        <ele>304.480249</ele>
        <time>2021-11-22T11:43:56.034Z</time>
      </trkpt>
      <trkpt lat="47.564534" lon="7.840532">
        <ele>304.511190</ele>
        <time>2021-11-22T11:43:56.532Z</time>
      </trkpt>
      <trkpt lat="47.564463" lon="7.840580">
        <ele>304.602942</ele>
        <time>2021-11-22T11:43:58.146Z</time>
      </trkpt>
      <trkpt lat="47.564094" lon="7.840838">
        <ele>305.068795</ele>
        <time>2021-11-22T11:44:05.815Z</time>
      </trkpt>
      <trkpt lat="47.563986" lon="7.840916">
        <ele>305.191350</ele>
        <time>2021-11-22T11:44:08.098Z</time>
      </trkpt>
      <trkpt lat="47.563941" lon="7.840948">
        <ele>305.242264</ele>
        <time>2021-11-22T11:44:09.023Z</time>
      </trkpt>
      <trkpt lat="47.563805" lon="7.841046">
        <ele>305.396525</ele>
        <time>2021-11-22T11:44:11.836Z</time>
      </trkpt>
      <trkpt lat="47.563659" lon="7.841150">
        <ele>305.561767</ele>
        <time>2021-11-22T11:44:14.721Z</time>
      </trkpt>
      <trkpt lat="47.563483" lon="7.841269">
        <ele>305.759104</ele>
        <time>2021-11-22T11:44:18.457Z</time>
      </trkpt>
      <trkpt lat="47.563300" lon="7.841391">
        <ele>305.963797</ele>
        <time>2021-11-22T11:44:22.009Z</time>
      </trkpt>
      <trkpt lat="47.563016" lon="7.841568">
        <ele>306.278075</ele>
        <time>2021-11-22T11:44:27.868Z</time>
      </trkpt>
      <trkpt lat="47.562965" lon="7.841597">
        <ele>306.333797</ele>
        <time>2021-11-22T11:44:28.844Z</time>
      </trkpt>
      <trkpt lat="47.562904" lon="7.841632">
        <ele>306.400523</ele>
        <time>2021-11-22T11:44:30.085Z</time>
      </trkpt>
      <trkpt lat="47.562574" lon="7.841873">
        <ele>306.775804</ele>
        <time>2021-11-22T11:44:37.050Z</time>
      </trkpt>
      <trkpt lat="47.562440" lon="7.842083">
        <ele>307.021235</ele>
        <time>2021-11-22T11:44:40.662Z</time>
      </trkpt>
      <trkpt lat="47.562385" lon="7.842183">
        <ele>307.135525</ele>
        <time>2021-11-22T11:44:42.225Z</time>
      </trkpt>
      <trkpt lat="47.562300" lon="7.842326">
        <ele>307.304350</ele>
        <time>2021-11-22T11:44:45.134Z</time>
      </trkpt>
      <trkpt lat="47.562179" lon="7.842500">
        <ele>307.525703</ele>
        <time>2021-11-22T11:44:48.606Z</time>
      </trkpt>
      <trkpt lat="47.561498" lon="7.843130">
        <ele>308.579671</ele>
        <time>2021-11-22T11:45:05.314Z</time>
      </trkpt>
      <trkpt lat="47.561434" lon="7.843181">
        <ele>308.675072</ele>
        <time>2021-11-22T11:45:07.117Z</time>
      </trkpt>
      <trkpt lat="47.561038" lon="7.843502">
        <ele>309.210342</ele>
        <time>2021-11-22T11:45:15.818Z</time>
      </trkpt>
      <trkpt lat="47.560934" lon="7.843550">
        <ele>309.265673</ele>
        <time>2021-11-22T11:45:17.973Z</time>
      </trkpt>
      <trkpt lat="47.560812" lon="7.843560">
        <ele>309.327740</ele>
        <time>2021-11-22T11:45:20.216Z</time>
      </trkpt>
      <trkpt lat="47.560515" lon="7.843379">
        <ele>309.490867</ele>
        <time>2021-11-22T11:45:25.953Z</time>
      </trkpt>
      <trkpt lat="47.560430" lon="7.843341">
        <ele>309.535966</ele>
        <time>2021-11-22T11:45:27.755Z</time>
      </trkpt>
      <trkpt lat="47.560338" lon="7.843341">
        <ele>309.582700</ele>
        <time>2021-11-22T11:45:28.978Z</time>
      </trkpt>
      <trkpt lat="47.560209" lon="7.843393">
        <ele>309.650609</ele>
        <time>2021-11-22T11:45:31.453Z</time>
      </trkpt>
      <trkpt lat="47.560139" lon="7.843433">
        <ele>309.688719</ele>
        <time>2021-11-22T11:45:32.773Z</time>
      </trkpt>
      <trkpt lat="47.559847" lon="7.843604">
        <ele>309.848208</ele>
        <time>2021-11-22T11:45:37.941Z</time>
      </trkpt>
      <trkpt lat="47.559583" lon="7.843813">
        <ele>310.000249</ele>
        <time>2021-11-22T11:45:42.431Z</time>
      </trkpt>
      <trkpt lat="47.559158" lon="7.844233">
        <ele>310.027040</ele>
        <time>2021-11-22T11:45:49.640Z</time>
      </trkpt>
      <trkpt lat="47.559109" lon="7.844229">
        <ele>310.018226</ele>
        <time>2021-11-22T11:45:50.231Z</time>
      </trkpt>
      <trkpt lat="47.559060" lon="7.844197">
        <ele>310.008609</ele>
        <time>2021-11-22T11:45:50.862Z</time>
      </trkpt>
      <trkpt lat="47.558884" lon="7.843836">
        <ele>309.954633</ele>
        <time>2021-11-22T11:45:55.014Z</time>
      </trkpt>
      <trkpt lat="47.558555" lon="7.843392">
        <ele>309.874713</ele>
        <time>2021-11-22T11:46:01.050Z</time>
      </trkpt>
      <trkpt lat="47.558471" lon="7.843365">
        <ele>309.859276</ele>
        <time>2021-11-22T11:46:02.307Z</time>
      </trkpt>
      <trkpt lat="47.558405" lon="7.843371">
        <ele>309.847400</ele>
        <time>2021-11-22T11:46:03.476Z</time>
      </trkpt>
      <trkpt lat="47.558136" lon="7.843582">
        <ele>309.792737</ele>
        <time>2021-11-22T11:46:07.683Z</time>
      </trkpt>
      <trkpt lat="47.557967" lon="7.843683">
        <ele>309.775030</ele>
        <time>2021-11-22T11:46:10.402Z</time>
      </trkpt>
      <trkpt lat="47.557846" lon="7.843756">
        <ele>309.825298</ele>
        <time>2021-11-22T11:46:12.246Z</time>
      </trkpt>
      <trkpt lat="47.557759" lon="7.843839">
        <ele>309.865111</ele>
        <time>2021-11-22T11:46:14.022Z</time>
      </trkpt>
      <trkpt lat="47.557715" lon="7.843940">
        <ele>309.896326</ele>
        <time>2021-11-22T11:46:15.251Z</time>
      </trkpt>
      <trkpt lat="47.557560" lon="7.844433">
        <ele>310.037551</ele>
        <time>2021-11-22T11:46:21.210Z</time>
      </trkpt>
      <trkpt lat="47.557282" lon="7.844832">
        <ele>310.186467</ele>
        <time>2021-11-22T11:46:27.642Z</time>
      </trkpt>
      <trkpt lat="47.557134" lon="7.845095">
        <ele>310.275386</ele>
        <time>2021-11-22T11:46:31.417Z</time>
      </trkpt>
      <trkpt lat="47.556636" lon="7.845928">
        <ele>310.726340</ele>
        <time>2021-11-22T11:46:44.268Z</time>
      </trkpt>
      <trkpt lat="47.556060" lon="7.846859">
        <ele>311.548503</ele>
        <time>2021-11-22T11:47:00.395Z</time>
      </trkpt>
      <trkpt lat="47.555990" lon="7.846965">
        <ele>311.645043</ele>
        <time>2021-11-22T11:47:02.379Z</time>
      </trkpt>
      <trkpt lat="47.555966" lon="7.846932">
        <ele>311.676624</ele>
        <time>2021-11-22T11:47:02.967Z</time>
      </trkpt>
      <trkpt lat="47.555892" lon="7.846856">
        <ele>311.763470</ele>
        <time>2021-11-22T11:47:04.523Z</time>
      </trkpt>
      <trkpt lat="47.555855" lon="7.846815">
        <ele>311.808035</ele>
        <time>2021-11-22T11:47:05.433Z</time>
      </trkpt>
      <trkpt lat="47.555727" lon="7.846715">
        <ele>311.947608</ele>
        <time>2021-11-22T11:47:08.436Z</time>
      </trkpt>
      <trkpt lat="47.555199" lon="7.846687">
        <ele>312.570277</ele>
        <time>2021-11-22T11:47:18.400Z</time>
      </trkpt>
      <trkpt lat="47.555068" lon="7.846672">
        <ele>312.750984</ele>
        <time>2021-11-22T11:47:21.263Z</time>
      </trkpt>
      <trkpt lat="47.554995" lon="7.846915">
        <ele>312.997871</ele>
        <time>2021-11-22T11:47:24.984Z</time>
      </trkpt>
      <trkpt lat="47.554892" lon="7.847148">
        <ele>313.256405</ele>
        <time>2021-11-22T11:47:28.956Z</time>
      </trkpt>
      <trkpt lat="47.554759" lon="7.847388">
        <ele>313.544650</ele>
        <time>2021-11-22T11:47:33.276Z</time>
      </trkpt>
      <trkpt lat="47.554618" lon="7.847626">
        <ele>313.838603</ele>
        <time>2021-11-22T11:47:37.835Z</time>
      </trkpt>
      <trkpt lat="47.554526" lon="7.847767">
        <ele>314.020643</ele>
        <time>2021-11-22T11:47:40.641Z</time>
      </trkpt>
      <trkpt lat="47.554465" lon="7.847858">
        <ele>314.139694</ele>
        <time>2021-11-22T11:47:42.471Z</time>
      </trkpt>
      <trkpt lat="47.554465" lon="7.847858">
        <ele>314.139694</ele>
        <time>2021-11-22T11:47:42.612Z</time>
      </trkpt>
      <trkpt lat="47.554465" lon="7.847858">
        <ele>314.139694</ele>
        <time>2021-11-22T11:47:42.637Z</time>
      </trkpt>
      <trkpt lat="47.554351" lon="7.848049">
        <ele>314.376366</ele>
        <time>2021-11-22T11:47:45.929Z</time>
      </trkpt>
      <trkpt lat="47.554269" lon="7.848188">
        <ele>314.547728</ele>
        <time>2021-11-22T11:47:48.418Z</time>
      </trkpt>
      <trkpt lat="47.554209" lon="7.848300">
        <ele>314.682015</ele>
        <time>2021-11-22T11:47:50.562Z</time>
      </trkpt>
      <trkpt lat="47.554055" lon="7.848586">
        <ele>315.056980</ele>
        <time>2021-11-22T11:47:55.357Z</time>
      </trkpt>
      <trkpt lat="47.553725" lon="7.849291">
        <ele>315.936270</ele>
        <time>2021-11-22T11:48:06.733Z</time>
      </trkpt>
      <trkpt lat="47.553605" lon="7.849629">
        <ele>316.327677</ele>
        <time>2021-11-22T11:48:12.252Z</time>
      </trkpt>
      <trkpt lat="47.553537" lon="7.849904">
        <ele>316.627834</ele>
        <time>2021-11-22T11:48:16.318Z</time>
      </trkpt>
      <trkpt lat="47.553380" lon="7.850453">
        <ele>317.238908</ele>
        <time>2021-11-22T11:48:25.222Z</time>
      </trkpt>
      <trkpt lat="47.553344" lon="7.850525">
        <ele>317.330742</ele>
        <time>2021-11-22T11:48:26.525Z</time>
      </trkpt>
      <trkpt lat="47.553283" lon="7.850634">
        <ele>317.538209</ele>
        <time>2021-11-22T11:48:28.591Z</time>
      </trkpt>
      <trkpt lat="47.552876" lon="7.851300">
        <ele>319.185148</ele>
        <time>2021-11-22T11:48:42.401Z</time>
      </trkpt>
      <trkpt lat="47.552678" lon="7.851709">
        <ele>320.107810</ele>
        <time>2021-11-22T11:48:51.071Z</time>
      </trkpt>
      <trkpt lat="47.552449" lon="7.852231">
        <ele>321.249067</ele>
        <time>2021-11-22T11:49:02.575Z</time>
      </trkpt>
      <trkpt lat="47.552272" lon="7.852167">
        <ele>321.743915</ele>
        <time>2021-11-22T11:49:07.975Z</time>
      </trkpt>
      <trkpt lat="47.552097" lon="7.852063">
        <ele>322.256032</ele>
        <time>2021-11-22T11:49:13.222Z</time>
      </trkpt>
      <trkpt lat="47.552042" lon="7.852007">
        <ele>322.463490</ele>
        <time>2021-11-22T11:49:15.622Z</time>
      </trkpt>
      <trkpt lat="47.551925" lon="7.851845">
        <ele>322.971825</ele>
        <time>2021-11-22T11:49:19.888Z</time>
      </trkpt>
      <trkpt lat="47.551830" lon="7.851603">
        <ele>323.571626</ele>
        <time>2021-11-22T11:49:25.710Z</time>
      </trkpt>
      <trkpt lat="47.551660" lon="7.851725">
        <ele>324.171241</ele>
        <time>2021-11-22T11:49:30.944Z</time>
      </trkpt>
      <trkpt lat="47.551516" lon="7.851950">
        <ele>324.835569</ele>
        <time>2021-11-22T11:49:37.502Z</time>
      </trkpt>
      <trkpt lat="47.550221" lon="7.853833">
        <ele>329.364804</ele>
        <time>2021-11-22T11:50:24.794Z</time>
      </trkpt>
      <trkpt lat="47.549883" lon="7.854434">
        <ele>330.248774</ele>
        <time>2021-11-22T11:50:34.914Z</time>
      </trkpt>
      <trkpt lat="47.549566" lon="7.855225">
        <ele>331.003415</ele>
        <time>2021-11-22T11:50:48.773Z</time>
      </trkpt>
      <trkpt lat="47.549362" lon="7.855774">
        <ele>331.004868</ele>
        <time>2021-11-22T11:50:57.261Z</time>
      </trkpt>
      <trkpt lat="47.548887" lon="7.857308">
        <ele>331.008782</ele>
        <time>2021-11-22T11:51:19.369Z</time>
      </trkpt>
      <trkpt lat="47.548743" lon="7.857692">
        <ele>331.141300</ele>
        <time>2021-11-22T11:51:25.341Z</time>
      </trkpt>
      <trkpt lat="47.548701" lon="7.857893">
        <ele>331.222813</ele>
        <time>2021-11-22T11:51:28.313Z</time>
      </trkpt>
      <trkpt lat="47.548686" lon="7.857973">
        <ele>331.254978</ele>
        <time>2021-11-22T11:51:29.436Z</time>
      </trkpt>
      <trkpt lat="47.548611" lon="7.858381">
        <ele>331.418793</ele>
        <time>2021-11-22T11:51:35.650Z</time>
      </trkpt>
      <trkpt lat="47.548334" lon="7.859801">
        <ele>331.991411</ele>
        <time>2021-11-22T11:51:58.687Z</time>
      </trkpt>
      <trkpt lat="47.548049" lon="7.860929">
        <ele>333.198645</ele>
        <time>2021-11-22T11:52:19.706Z</time>
      </trkpt>
      <trkpt lat="47.547930" lon="7.861711">
        <ele>334.061209</ele>
        <time>2021-11-22T11:52:34.469Z</time>
      </trkpt>
      <trkpt lat="47.547568" lon="7.863151">
        <ele>335.431198</ele>
        <time>2021-11-22T11:53:03.597Z</time>
      </trkpt>
      <trkpt lat="47.547320" lon="7.863864">
        <ele>335.990744</ele>
        <time>2021-11-22T11:53:17.537Z</time>
      </trkpt>
      <trkpt lat="47.546974" lon="7.864423">
        <ele>336.519841</ele>
        <time>2021-11-22T11:53:28.361Z</time>
      </trkpt>
      <trkpt lat="47.546885" lon="7.864500">
        <ele>336.626360</ele>
        <time>2021-11-22T11:53:31.446Z</time>
      </trkpt>
      <trkpt lat="47.546894" lon="7.864837">
        <ele>336.698277</ele>
        <time>2021-11-22T11:53:35.329Z</time>
      </trkpt>
      <trkpt lat="47.546889" lon="7.865225">
        <ele>336.498752</ele>
        <time>2021-11-22T11:53:40.754Z</time>
      </trkpt>
      <trkpt lat="47.546819" lon="7.865489">
        <ele>336.352921</ele>
        <time>2021-11-22T11:53:44.699Z</time>
      </trkpt>
      <trkpt lat="47.546510" lon="7.865766">
        <ele>336.077818</ele>
        <time>2021-11-22T11:53:51.333Z</time>
      </trkpt>
      <trkpt lat="47.546327" lon="7.865959">
        <ele>335.906713</ele>
        <time>2021-11-22T11:53:54.848Z</time>
      </trkpt>
      <trkpt lat="47.546096" lon="7.866147">
        <ele>335.705955</ele>
        <time>2021-11-22T11:53:59.404Z</time>
      </trkpt>
      <trkpt lat="47.545240" lon="7.866887">
        <ele>335.397545</ele>
        <time>2021-11-22T11:54:16.093Z</time>
      </trkpt>
      <trkpt lat="47.545160" lon="7.866985">
        <ele>335.397545</ele>
        <time>2021-11-22T11:54:17.963Z</time>
      </trkpt>
      <trkpt lat="47.545003" lon="7.867278">
        <ele>335.397545</ele>
        <time>2021-11-22T11:54:22.982Z</time>
      </trkpt>
      <trkpt lat="47.544568" lon="7.867693">
        <ele>335.397545</ele>
        <time>2021-11-22T11:54:33.593Z</time>
      </trkpt>
      <trkpt lat="47.544469" lon="7.867776">
        <ele>335.397545</ele>
        <time>2021-11-22T11:54:35.785Z</time>
      </trkpt>
      <trkpt lat="47.544410" lon="7.867825">
        <ele>335.397545</ele>
        <time>2021-11-22T11:54:37.333Z</time>
      </trkpt>
      <trkpt lat="47.544246" lon="7.867967">
        <ele>335.397545</ele>
        <time>2021-11-22T11:54:41.223Z</time>
      </trkpt>
      <trkpt lat="47.544214" lon="7.867988">
        <ele>335.397545</ele>
        <time>2021-11-22T11:54:41.900Z</time>
      </trkpt>
      <trkpt lat="47.544023" lon="7.868118">
        <ele>335.397545</ele>
        <time>2021-11-22T11:54:46.416Z</time>
      </trkpt>
    </trkseg>
  </trk>
</gpx>